[[{"header":{"parameterUnit":"m.s-1","parameterCategory":1,"la1":30.6,"la2":29.2853,"lo1":-89.7004,"lo2":-87.6739,"dy":0.0162,"dx":0.0183,"nx":112,"ny":82,"refTime":"2023-02-22T18:00:00:Z","depth":0,"parameterNumber":2,"parameterNumberName":"U-component_of_WINDS"},"data":[0.0,0.0,0.0,0.0,0.0,0.0,0.0,0.0,0.0,0.0,0.0,0.0,0.0,0.0,0.0,0.0,0.0,0.0,0.0,0.0,0.0,0.0,0.0,0.0,0.0,0.0,0.0,0.0,0.0,0.0,0.0,0.0,0.0,0.0,0.0,0.0,0.0,0.0,0.0,0.0,0.0,0.0,0.0,0.0,0.0,0.0,0.0,0.0,0.0,0.0,0.0,0.0,0.0,0.0,0.0,0.0,0.0,0.0,0.0,0.0,0.0,0.0,0.0,0.0,0.0,0.0,0.0,0.0,0.0,0.0,0.0,0.0,0.0,0.0,0.0,0.0,0.0,0.0,0.0,0.0,0.0,0.0,0.0,0.0,0.0,0.0,0.0,0.0,0.0,0.0,-3.1807,-3.1807,-3.2161,-3.2367,-3.2299,-3.1933,-3.1715,-3.1715,0.0,0.0,0.0,0.0,0.0,0.0,0.0,0.0,0.0,0.0,0.0,0.0,0.0,0.0,0.0,0.0,0.0,0.0,0.0,0.0,0.0,0.0,0.0,0.0,0.0,0.0,0.0,0.0,0.0,0.0,0.0,0.0,0.0,0.0,0.0,0.0,0.0,0.0,0.0,0.0,0.0,0.0,0.0,0.0,0.0,0.0,0.0,0.0,0.0,0.0,0.0,0.0,0.0,0.0,0.0,0.0,0.0,0.0,0.0,0.0,0.0,0.0,0.0,0.0,0.0,0.0,0.0,0.0,0.0,0.0,0.0,0.0,0.0,0.0,0.0,0.0,0.0,0.0,0.0,0.0,0.0,0.0,0.0,0.0,0.0,0.0,0.0,0.0,0.0,0.0,0.0,0.0,0.0,0.0,0.0,0.0,0.0,0.0,0.0,0.0,0.0,0.0,0.0,0.0,-3.1807,-3.1807,-3.1862,-3.177,-3.1428,-3.1329,-3.1291,-3.1291,0.0,0.0,0.0,0.0,0.0,0.0,0.0,0.0,0.0,0.0,0.0,0.0,0.0,0.0,0.0,0.0,0.0,0.0,0.0,0.0,0.0,0.0,0.0,0.0,0.0,0.0,0.0,0.0,0.0,0.0,0.0,0.0,0.0,0.0,0.0,0.0,0.0,0.0,0.0,0.0,0.0,0.0,0.0,0.0,0.0,0.0,0.0,0.0,0.0,0.0,0.0,0.0,0.0,0.0,0.0,0.0,0.0,0.0,0.0,0.0,0.0,0.0,0.0,0.0,0.0,0.0,0.0,0.0,0.0,0.0,0.0,0.0,0.0,0.0,0.0,0.0,0.0,0.0,0.0,0.0,0.0,0.0,0.0,0.0,0.0,0.0,0.0,0.0,0.0,0.0,0.0,0.0,0.0,0.0,0.0,0.0,0.0,0.0,0.0,0.0,0.0,0.0,0.0,-3.137,-3.147,-3.147,-3.147,-3.1391,-3.121,-3.119,-3.119,-3.119,-3.119,0.0,0.0,0.0,0.0,0.0,0.0,0.0,0.0,0.0,0.0,0.0,0.0,0.0,0.0,0.0,0.0,0.0,0.0,0.0,0.0,0.0,0.0,0.0,0.0,0.0,0.0,0.0,0.0,0.0,0.0,0.0,0.0,0.0,0.0,0.0,0.0,0.0,0.0,0.0,0.0,0.0,0.0,0.0,0.0,0.0,0.0,0.0,0.0,0.0,0.0,0.0,0.0,0.0,0.0,0.0,0.0,0.0,0.0,0.0,0.0,0.0,0.0,0.0,0.0,0.0,0.0,0.0,0.0,0.0,0.0,0.0,0.0,0.0,0.0,0.0,0.0,0.0,0.0,0.0,0.0,0.0,0.0,0.0,0.0,0.0,0.0,0.0,0.0,0.0,0.0,0.0,0.0,0.0,0.0,0.0,0.0,0.0,0.0,0.0,0.0,0.0,0.0,-3.119,-3.119,-3.119,-3.119,-3.119,-3.119,-3.119,-3.119,-3.119,-3.119,0.0,0.0,0.0,0.0,0.0,0.0,0.0,0.0,0.0,0.0,0.0,0.0,0.0,0.0,0.0,0.0,0.0,0.0,0.0,0.0,0.0,0.0,0.0,0.0,0.0,0.0,0.0,0.0,0.0,0.0,0.0,0.0,0.0,0.0,0.0,0.0,0.0,0.0,0.0,0.0,0.0,0.0,0.0,0.0,0.0,0.0,0.0,0.0,0.0,0.0,0.0,0.0,0.0,0.0,0.0,0.0,0.0,0.0,0.0,0.0,0.0,0.0,0.0,0.0,0.0,0.0,0.0,0.0,0.0,0.0,0.0,0.0,0.0,0.0,0.0,0.0,0.0,0.0,0.0,0.0,0.0,0.0,0.0,0.0,0.0,0.0,0.0,0.0,0.0,0.0,0.0,0.0,0.0,0.0,0.0,0.0,0.0,0.0,0.0,0.0,0.0,0.0,-3.119,-3.119,-3.119,-3.119,-3.119,-3.119,-3.119,-3.119,-3.119,-3.119,0.0,0.0,0.0,0.0,0.0,0.0,0.0,0.0,0.0,0.0,0.0,0.0,0.0,0.0,0.0,0.0,0.0,0.0,0.0,0.0,0.0,0.0,0.0,0.0,0.0,0.0,0.0,0.0,0.0,0.0,0.0,0.0,0.0,0.0,0.0,0.0,0.0,0.0,0.0,0.0,0.0,0.0,0.0,0.0,0.0,0.0,0.0,0.0,0.0,0.0,0.0,0.0,0.0,0.0,0.0,0.0,0.0,0.0,0.0,0.0,0.0,0.0,0.0,0.0,0.0,0.0,0.0,0.0,0.0,0.0,0.0,0.0,0.0,0.0,0.0,0.0,0.0,0.0,0.0,0.0,0.0,0.0,0.0,0.0,0.0,0.0,0.0,0.0,0.0,0.0,0.0,0.0,0.0,0.0,0.0,0.0,0.0,0.0,0.0,0.0,0.0,0.0,-3.119,-3.119,0.0,-3.119,-3.119,-3.119,-3.119,-3.119,-3.119,0.0,0.0,0.0,0.0,0.0,0.0,0.0,0.0,0.0,0.0,0.0,0.0,0.0,0.0,0.0,0.0,0.0,0.0,0.0,0.0,0.0,0.0,0.0,0.0,0.0,0.0,0.0,0.0,0.0,0.0,0.0,0.0,0.0,0.0,0.0,0.0,0.0,0.0,0.0,0.0,0.0,0.0,0.0,0.0,0.0,0.0,0.0,0.0,0.0,0.0,0.0,0.0,0.0,0.0,0.0,0.0,0.0,0.0,0.0,0.0,0.0,0.0,0.0,0.0,0.0,0.0,0.0,0.0,0.0,0.0,0.0,0.0,0.0,0.0,0.0,0.0,0.0,0.0,0.0,0.0,0.0,0.0,0.0,0.0,0.0,0.0,0.0,0.0,0.0,0.0,0.0,0.0,0.0,0.0,0.0,0.0,0.0,0.0,0.0,0.0,0.0,0.0,-3.119,-3.119,-3.119,0.0,-3.119,-3.119,-3.119,-3.119,-3.119,-3.119,0.0,0.0,0.0,0.0,0.0,0.0,0.0,0.0,0.0,0.0,0.0,0.0,0.0,0.0,0.0,0.0,0.0,0.0,0.0,0.0,0.0,0.0,0.0,0.0,0.0,0.0,0.0,0.0,0.0,0.0,0.0,0.0,0.0,0.0,0.0,0.0,0.0,0.0,0.0,0.0,0.0,0.0,0.0,0.0,0.0,0.0,0.0,0.0,0.0,0.0,0.0,0.0,0.0,0.0,0.0,0.0,0.0,0.0,0.0,0.0,0.0,0.0,0.0,0.0,0.0,0.0,0.0,0.0,0.0,0.0,0.0,0.0,0.0,0.0,0.0,0.0,0.0,0.0,0.0,0.0,0.0,0.0,0.0,0.0,0.0,0.0,0.0,0.0,0.0,0.0,0.0,0.0,0.0,0.0,0.0,0.0,0.0,0.0,0.0,0.0,0.0,0.0,-3.119,-3.119,-3.119,-3.119,-3.119,-3.119,-3.119,-3.119,-3.119,0.0,0.0,0.0,0.0,0.0,0.0,0.0,0.0,0.0,0.0,0.0,0.0,0.0,0.0,0.0,0.0,0.0,0.0,0.0,0.0,0.0,0.0,0.0,0.0,0.0,0.0,0.0,0.0,0.0,0.0,0.0,0.0,0.0,0.0,0.0,0.0,0.0,0.0,0.0,0.0,0.0,0.0,0.0,0.0,0.0,0.0,0.0,0.0,0.0,0.0,0.0,0.0,0.0,0.0,0.0,0.0,0.0,0.0,0.0,0.0,0.0,0.0,0.0,0.0,0.0,0.0,0.0,0.0,0.0,0.0,0.0,0.0,0.0,0.0,0.0,0.0,0.0,0.0,0.0,0.0,0.0,0.0,0.0,0.0,0.0,0.0,0.0,0.0,0.0,0.0,0.0,0.0,0.0,0.0,0.0,0.0,0.0,0.0,0.0,0.0,0.0,0.0,0.0,-3.119,-3.119,-3.119,-3.119,-3.119,-3.119,-3.119,-3.119,-3.119,-3.119,0.0,0.0,0.0,0.0,0.0,0.0,0.0,0.0,0.0,0.0,0.0,0.0,0.0,0.0,0.0,0.0,0.0,0.0,0.0,0.0,0.0,0.0,0.0,0.0,0.0,0.0,0.0,0.0,0.0,0.0,0.0,0.0,0.0,0.0,0.0,0.0,0.0,0.0,0.0,0.0,0.0,0.0,0.0,0.0,0.0,0.0,0.0,0.0,0.0,0.0,0.0,0.0,0.0,0.0,0.0,0.0,0.0,0.0,0.0,0.0,0.0,0.0,0.0,0.0,0.0,0.0,0.0,0.0,0.0,0.0,0.0,0.0,0.0,0.0,0.0,0.0,0.0,0.0,0.0,0.0,0.0,0.0,0.0,0.0,0.0,0.0,0.0,0.0,0.0,0.0,0.0,0.0,0.0,0.0,0.0,0.0,0.0,0.0,0.0,0.0,0.0,0.0,-3.119,-3.119,-3.119,-3.119,-3.119,-3.119,-3.119,-3.119,-3.119,-3.119,0.0,0.0,0.0,0.0,0.0,0.0,0.0,0.0,0.0,0.0,0.0,0.0,0.0,0.0,0.0,0.0,0.0,0.0,0.0,0.0,0.0,0.0,0.0,0.0,0.0,0.0,0.0,0.0,0.0,0.0,0.0,0.0,0.0,0.0,0.0,0.0,0.0,0.0,0.0,0.0,0.0,0.0,0.0,0.0,0.0,0.0,0.0,0.0,0.0,0.0,0.0,0.0,0.0,0.0,0.0,0.0,0.0,0.0,0.0,0.0,0.0,0.0,0.0,0.0,0.0,0.0,0.0,0.0,0.0,0.0,0.0,0.0,0.0,0.0,0.0,0.0,0.0,0.0,0.0,0.0,0.0,0.0,0.0,0.0,0.0,0.0,0.0,0.0,0.0,0.0,0.0,0.0,0.0,0.0,0.0,0.0,0.0,0.0,0.0,0.0,0.0,0.0,-3.119,-3.119,-3.119,-3.119,-3.119,-3.119,-3.119,-3.119,-3.119,-3.119,0.0,0.0,0.0,0.0,0.0,0.0,0.0,0.0,0.0,0.0,0.0,0.0,0.0,0.0,0.0,0.0,0.0,0.0,0.0,0.0,0.0,0.0,0.0,0.0,0.0,0.0,0.0,0.0,0.0,0.0,0.0,0.0,0.0,0.0,0.0,0.0,0.0,0.0,0.0,0.0,0.0,0.0,0.0,0.0,0.0,0.0,0.0,0.0,0.0,0.0,0.0,0.0,0.0,0.0,0.0,0.0,0.0,0.0,0.0,0.0,-3.5215,0.0,0.0,0.0,0.0,0.0,0.0,0.0,0.0,0.0,0.0,0.0,0.0,0.0,0.0,0.0,0.0,0.0,0.0,0.0,0.0,0.0,0.0,0.0,0.0,0.0,0.0,0.0,0.0,0.0,0.0,0.0,0.0,0.0,0.0,0.0,0.0,0.0,0.0,0.0,0.0,0.0,-3.119,-3.119,-3.119,-3.119,-3.119,-3.119,-3.119,-3.119,-3.119,-3.119,-3.119,0.0,0.0,0.0,0.0,0.0,0.0,0.0,0.0,0.0,0.0,0.0,0.0,0.0,0.0,0.0,0.0,0.0,0.0,0.0,0.0,0.0,0.0,0.0,0.0,0.0,0.0,0.0,0.0,0.0,0.0,0.0,0.0,0.0,0.0,0.0,0.0,0.0,0.0,0.0,0.0,0.0,0.0,0.0,0.0,0.0,0.0,0.0,0.0,0.0,0.0,0.0,0.0,0.0,0.0,0.0,0.0,0.0,0.0,0.0,0.0,-3.5016,0.0,0.0,0.0,0.0,0.0,0.0,0.0,0.0,0.0,0.0,0.0,0.0,0.0,0.0,0.0,0.0,0.0,0.0,0.0,0.0,0.0,0.0,0.0,0.0,0.0,0.0,0.0,0.0,0.0,0.0,0.0,0.0,0.0,0.0,0.0,0.0,0.0,0.0,0.0,0.0,-3.119,-3.119,-3.119,-3.119,-3.119,-3.119,-3.119,-3.119,-3.119,-3.119,-3.119,0.0,0.0,0.0,0.0,0.0,0.0,0.0,0.0,0.0,0.0,0.0,0.0,0.0,0.0,0.0,0.0,0.0,0.0,0.0,0.0,0.0,0.0,0.0,0.0,0.0,0.0,0.0,0.0,0.0,0.0,0.0,0.0,0.0,0.0,0.0,0.0,0.0,0.0,0.0,0.0,0.0,0.0,0.0,0.0,0.0,0.0,0.0,0.0,0.0,0.0,0.0,0.0,0.0,-3.55,-3.55,-3.55,-3.55,-3.55,-3.5493,-3.5273,-3.5138,-3.5088,0.0,0.0,0.0,0.0,0.0,0.0,0.0,0.0,0.0,0.0,0.0,0.0,0.0,0.0,0.0,0.0,0.0,0.0,0.0,0.0,0.0,0.0,0.0,0.0,0.0,-3.3807,-3.3606,0.0,0.0,0.0,0.0,0.0,0.0,0.0,0.0,0.0,0.0,0.0,0.0,-3.119,-3.119,-3.119,-3.119,-3.119,-3.119,-3.119,-3.119,-3.119,-3.119,-3.119,-3.119,0.0,0.0,0.0,0.0,0.0,0.0,0.0,0.0,0.0,0.0,0.0,0.0,0.0,0.0,0.0,0.0,0.0,0.0,0.0,0.0,0.0,0.0,0.0,0.0,0.0,0.0,0.0,0.0,0.0,0.0,0.0,0.0,-3.5631,-3.5596,0.0,0.0,0.0,0.0,0.0,0.0,0.0,0.0,0.0,0.0,0.0,0.0,0.0,0.0,-3.55,-3.55,-3.55,-3.55,-3.55,-3.55,-3.55,-3.55,-3.55,-3.55,-3.5453,0.0,-3.5096,-3.507,0.0,0.0,0.0,0.0,0.0,0.0,0.0,0.0,0.0,0.0,0.0,0.0,0.0,0.0,0.0,0.0,0.0,0.0,0.0,0.0,0.0,0.0,-3.3807,-3.3807,-3.3807,-3.3762,0.0,-3.3361,-3.2968,-3.2501,0.0,0.0,0.0,0.0,0.0,0.0,0.0,0.0,-3.119,-3.119,-3.119,-3.119,-3.119,-3.119,-3.119,-3.119,-3.119,-3.119,-3.119,-3.119,-3.119,-3.119,0.0,0.0,0.0,0.0,0.0,0.0,0.0,0.0,0.0,0.0,0.0,0.0,0.0,0.0,0.0,0.0,0.0,0.0,0.0,0.0,0.0,0.0,0.0,0.0,0.0,0.0,0.0,0.0,0.0,-3.5659,-3.5599,-3.5552,-3.5528,-3.55,0.0,0.0,0.0,0.0,0.0,0.0,0.0,0.0,0.0,-3.55,-3.55,-3.55,-3.55,-3.5942,-3.6173,-3.6173,-3.6673,-3.6911,-3.6911,-3.6911,-3.6911,-3.6911,-3.6911,-3.6841,-3.6669,-3.5703,-3.5077,-3.4706,0.0,0.0,0.0,0.0,0.0,-3.3993,-3.3855,0.0,0.0,0.0,0.0,0.0,0.0,0.0,0.0,0.0,0.0,0.0,0.0,0.0,0.0,-3.3807,-3.3807,-3.3807,-3.3807,-3.3666,-3.3404,0.0,-3.2729,-3.2416,-3.188,0.0,0.0,0.0,0.0,0.0,-3.119,-3.119,-3.119,-3.119,-3.119,-3.119,-3.119,-3.119,-3.119,-3.119,-3.119,-3.119,-3.119,-3.119,-3.119,0.0,0.0,0.0,0.0,0.0,0.0,0.0,0.0,0.0,0.0,0.0,0.0,0.0,0.0,0.0,0.0,0.0,0.0,0.0,0.0,0.0,0.0,0.0,0.0,0.0,0.0,0.0,0.0,-3.5599,-3.557,-3.5514,-3.55,-3.55,0.0,0.0,0.0,0.0,0.0,0.0,-3.55,-3.5692,-3.5808,-3.5808,-3.6019,-3.6135,-3.6135,-3.6731,-3.7019,-3.7038,-3.77,-3.8007,-3.8007,-3.8007,-3.8007,-3.8007,-3.8007,-3.8007,-3.7892,-3.6654,-3.5852,-3.541,-3.541,-3.5115,-3.4663,-3.4334,-3.42,-3.4152,-3.3889,-3.3807,-3.3807,-3.3807,0.0,-3.3807,-3.3807,0.0,0.0,0.0,0.0,-3.3807,-3.3807,0.0,-3.3807,-3.3807,-3.3807,-3.3807,-3.3807,-3.3807,-3.3707,0.0,-3.3166,-3.2793,-3.2092,0.0,0.0,0.0,0.0,-3.119,-3.119,-3.119,-3.119,-3.119,-3.119,-3.119,-3.119,-3.119,-3.119,-3.119,-3.119,-3.119,-3.119,-3.119,-3.119,-3.119,0.0,0.0,0.0,0.0,0.0,0.0,0.0,0.0,0.0,0.0,0.0,0.0,0.0,0.0,0.0,0.0,0.0,0.0,0.0,0.0,0.0,0.0,0.0,0.0,0.0,0.0,0.0,0.0,0.0,-3.55,-3.55,0.0,0.0,0.0,0.0,-3.55,-3.55,-3.55,-3.55,-3.6212,-3.6635,-3.6635,-3.745,-3.7873,-3.7873,-3.7911,-3.793,-3.793,-3.7988,-3.8007,-3.8007,-3.8007,-3.8007,-3.8007,-3.8007,-3.8007,-3.7988,-3.7911,-3.7221,-3.6238,-3.6238,-3.5618,-3.4663,-3.4334,-3.42,-3.4152,-3.3889,-3.3807,-3.3807,-3.3807,-3.3807,-3.3807,-3.3807,-3.3807,0.0,0.0,-3.3807,-3.3807,-3.3807,-3.3807,-3.3807,-3.3807,-3.3807,-3.3807,-3.3807,-3.3807,-3.3788,0.0,-3.3087,-3.2517,-3.2467,0.0,-3.123,-3.121,-3.119,-3.119,-3.119,-3.119,-3.119,-3.119,-3.119,-3.119,-3.119,-3.119,-3.119,-3.119,-3.119,-3.119,-3.119,-3.119,-3.119,-3.119,-3.119,0.0,0.0,0.0,0.0,0.0,0.0,0.0,0.0,0.0,0.0,0.0,0.0,0.0,0.0,0.0,0.0,0.0,0.0,0.0,0.0,0.0,0.0,0.0,0.0,0.0,0.0,0.0,0.0,-3.55,-3.55,0.0,-3.55,-3.5962,-3.6269,-3.6269,-3.6788,-3.7103,-3.7103,-3.7373,-3.7546,-3.7546,-3.7834,-3.8007,-3.8007,-3.8565,-3.8834,-3.8834,-3.9361,-3.9611,-3.9611,-3.9611,-3.9611,-3.9611,-3.9611,-3.9611,-3.9611,-3.9611,-3.872,-3.7383,-3.7383,-3.7041,-3.6464,-3.6161,-3.5963,-3.5764,-3.5492,-3.5404,-3.5404,-3.5404,-3.5037,-3.4564,-3.4564,-3.4211,-3.3807,-3.3807,-3.3807,-3.3807,-3.3807,-3.4192,-3.4564,-3.4564,-3.4564,-3.4564,-3.4564,-3.4174,-3.3807,-3.3807,-3.355,-3.3072,-3.2196,-3.2039,-3.1841,-3.1271,-3.119,-3.119,-3.119,-3.119,-3.119,-3.119,-3.119,-3.119,-3.119,-3.119,-3.119,-3.119,-3.119,-3.119,-3.119,-3.119,-3.119,-3.119,-3.119,-3.119,0.0,0.0,0.0,0.0,0.0,0.0,0.0,0.0,0.0,0.0,0.0,0.0,0.0,0.0,0.0,0.0,0.0,0.0,0.0,0.0,0.0,0.0,0.0,0.0,0.0,0.0,-3.5904,-3.5904,-3.6154,-3.6346,-3.6346,-3.6827,-3.7142,-3.7142,-3.768,-3.8007,-3.8007,-3.8277,-3.843,-3.843,-3.87,-3.8834,-3.8834,-3.9419,-3.9708,-3.9708,-4.0246,-4.0496,-4.0496,-4.0496,-4.0496,-4.0496,-4.0496,-4.0496,-4.0496,-4.0496,-3.9861,-3.8815,-3.8546,-3.8049,-3.7461,-3.7196,-3.6925,-3.6656,-3.6394,-3.6303,-3.6303,-3.6303,-3.5917,-3.5445,-3.5445,-3.5073,-3.4633,-3.4633,-3.4633,-3.4633,-3.4633,-3.5037,-3.5445,-3.5445,-3.5445,-3.5445,-3.5445,-3.5018,-3.4605,-3.4442,-3.3976,-3.3314,-3.2433,-3.2264,-3.2074,-3.1506,-3.1291,-3.119,-3.119,-3.119,-3.119,-3.119,-3.119,-3.119,-3.119,-3.119,-3.119,-3.119,-3.119,-3.119,-3.119,-3.119,-3.119,-3.119,-3.119,-3.1095,-3.0898,0.0,0.0,0.0,0.0,0.0,0.0,0.0,0.0,0.0,0.0,0.0,0.0,0.0,0.0,0.0,0.0,0.0,0.0,0.0,0.0,0.0,0.0,0.0,-3.5662,-3.6231,-3.6731,-3.6731,-3.7488,-3.8007,-3.8007,-3.8027,-3.8046,-3.8046,-3.8065,-3.8084,-3.8084,-3.8873,-3.9342,-3.9342,-4.0092,-4.0496,-4.0496,-4.0496,-4.0496,-4.0496,-4.0496,-4.0496,-4.0496,-4.0496,-4.0496,-4.0496,-4.0496,-4.0496,-4.0496,-4.0496,-4.0496,-4.0419,-3.965,-3.8632,-3.7557,-3.7282,-3.7024,-3.6744,-3.6482,-3.6387,-3.6391,-3.6376,-3.6358,-3.634,-3.634,-3.6321,-3.6303,-3.6303,-3.6303,-3.6303,-3.6303,-3.6321,-3.634,-3.634,-3.634,-3.634,-3.634,-3.6321,-3.6164,-3.5709,-3.4349,-3.3286,-3.3256,-3.2504,-3.1894,-3.1876,-3.1536,0.0,-3.1241,-3.1224,-3.1224,-3.119,-3.119,-3.119,-3.119,-3.119,-3.119,-3.119,-3.119,-3.119,-3.119,-3.119,-3.119,-3.119,-3.119,-3.0898,-3.0293,0.0,0.0,0.0,0.0,0.0,0.0,0.0,0.0,0.0,0.0,0.0,0.0,0.0,0.0,0.0,0.0,0.0,0.0,0.0,0.0,0.0,0.0,-3.6775,-3.6412,-3.7103,-3.7642,-3.7642,-3.7853,-3.8007,-3.8007,-3.8565,-3.8931,-3.8931,-3.9477,-3.9804,-3.9804,-4.0035,-4.0169,-4.0169,-4.0381,-4.0496,-4.0496,-4.0496,-4.0496,-4.0496,-4.0496,-4.0496,-4.0496,-4.0496,-4.0496,-4.0496,-4.0496,-4.0496,-4.0496,-4.0496,-4.0496,-4.0477,-4.0265,-3.9859,-3.9385,-3.9298,-3.9072,-3.8763,-3.8433,-3.8331,-3.8308,-3.8099,-3.7643,-3.718,-3.718,-3.6758,-3.6303,-3.6303,-3.6303,-3.6303,-3.6303,-3.674,-3.718,-3.718,-3.718,-3.718,-3.718,-3.6707,-3.6256,-3.6131,-3.5754,-3.523,-3.4554,-3.4181,-3.388,-3.3581,-3.3128,0.0,-3.2073,-3.2005,-3.1802,-3.1258,-3.119,-3.119,-3.119,-3.119,-3.119,-3.119,-3.119,-3.119,-3.119,-3.119,-3.119,-3.119,-3.119,-3.0898,0.0,0.0,0.0,0.0,0.0,0.0,0.0,0.0,0.0,0.0,0.0,0.0,0.0,0.0,0.0,0.0,0.0,0.0,0.0,0.0,0.0,0.0,-3.7716,-3.7874,-3.7791,-3.8238,-3.8546,-3.8546,-3.8834,-3.9046,-3.9046,-3.9515,-3.9804,-3.9804,-4.0246,-4.0496,-4.0496,-4.0496,-4.0496,-4.0496,-4.0496,-4.0496,-4.0496,-4.0496,-4.0496,-4.0496,-4.0496,-4.0496,-4.0496,-4.0496,-4.0496,0.0,-4.0496,-4.0496,-4.0496,-4.0496,-4.0496,0.0,0.0,0.0,0.0,0.0,-3.9775,-3.9552,-3.9212,-3.9112,-3.9063,-3.8788,-3.8377,-3.7991,-3.7991,-3.7679,-3.7312,-3.7312,-3.7312,-3.7312,-3.7312,-3.7643,-3.7991,-3.7991,-3.7991,-3.7991,-3.7991,-3.7643,-3.7312,-3.7312,0.0,0.0,-3.6303,-3.5403,-3.464,-3.4224,-3.3724,-3.3254,0.0,-3.2767,-3.2476,-3.1752,-3.1667,-3.1549,-3.1224,-3.119,0.0,0.0,0.0,-3.119,-3.119,-3.119,0.0,0.0,0.0,-3.1035,0.0,0.0,0.0,0.0,-2.8846,-2.8294,0.0,0.0,0.0,0.0,0.0,0.0,0.0,0.0,0.0,0.0,0.0,0.0,0.0,0.0,0.0,0.0,-3.8839,-3.9323,-3.9419,-3.9438,-3.9438,-3.9438,-4.0073,-4.0496,-4.0496,-4.0496,-4.0496,-4.0496,-4.0496,-4.0496,-4.0496,0.0,0.0,0.0,0.0,-4.0496,-4.0496,-4.0496,-4.0496,-4.0496,-4.0496,-4.0496,-4.0496,-4.0496,-4.0496,-4.0496,-4.0496,-4.0496,-4.0496,-4.0496,-4.0496,-4.0496,-4.0496,-4.0356,-4.012,-3.9819,-3.9701,0.0,0.0,0.0,0.0,-3.8788,-3.8707,-3.8707,-3.8707,-3.8707,-3.8707,-3.8707,-3.8707,-3.8707,-3.8707,-3.8707,-3.8707,-3.8707,-3.8707,-3.8707,-3.8707,-3.8707,-3.8707,-3.8707,-3.8707,-3.853,-3.798,-3.6345,-3.4922,-3.4445,-3.396,0.0,-3.3541,-3.3525,-3.3237,-3.2513,0.0,0.0,-3.1376,-3.1241,-3.119,-3.119,-3.119,-3.119,-3.119,-3.119,-3.119,-3.119,-3.119,-3.119,-3.119,-3.119,-3.119,-3.1151,-2.9406,-2.8606,0.0,0.0,0.0,0.0,0.0,0.0,0.0,0.0,0.0,0.0,0.0,0.0,0.0,0.0,0.0,-3.9019,-3.9237,-3.9534,-4.0189,-4.0265,-4.0265,-4.0265,-4.0419,-4.0496,-4.0496,-4.0496,-4.0496,-4.0496,-4.0496,-4.0496,-4.0496,-4.0496,0.0,-4.0496,-4.0496,-4.0496,-4.0496,-4.0496,-4.0496,-4.0496,0.0,0.0,-4.0496,-4.0496,-4.0496,-4.0496,-4.0496,-4.0496,-4.0496,-4.0496,-4.0496,-4.0496,-4.0496,-4.0473,-4.0406,-4.0345,-4.0328,-4.0248,-3.9682,-3.9498,-3.9408,-3.8892,-3.8707,-3.8707,-3.8707,-3.8707,0.0,-3.8707,-3.8707,-3.8707,-3.8707,-3.8707,-3.8707,-3.8707,-3.8707,-3.8707,-3.8707,-3.8707,-3.8707,-3.8707,-3.8707,-3.853,-3.798,-3.7238,-3.656,-3.6044,-3.5514,-3.4957,-3.4353,-3.4286,-3.3998,-3.3271,-3.2645,-3.2242,-3.2107,-3.1529,-3.119,-3.119,-3.119,-3.119,-3.119,-3.119,-3.119,-3.119,-3.119,-3.119,-3.119,-3.119,-3.119,-3.1171,-2.9848,-2.9225,0.0,0.0,0.0,0.0,0.0,0.0,0.0,0.0,0.0,0.0,0.0,-3.8023,0.0,0.0,-3.9185,-3.994,-4.0031,-4.0133,-4.0538,-4.0596,-4.0581,-4.0504,-4.0496,-4.0496,-4.0496,-4.0496,-4.0496,-4.0496,-4.0496,-4.0496,-4.0496,-4.0496,-4.0496,-4.0496,-4.0496,-4.0496,-4.0496,-4.0496,-4.0496,-4.0496,-4.0496,-4.0496,-4.0496,-4.0496,-4.0496,-4.0496,-4.0496,-4.0496,-4.0496,-4.0496,-4.0496,-4.0496,-4.0496,-4.0496,-4.0481,-4.0347,-4.0304,-4.0203,-3.9569,-3.9339,-3.9282,-3.8848,-3.8707,-3.8707,-3.8707,-3.8707,-3.8707,-3.8707,-3.8707,-3.8707,-3.8707,-3.8707,-3.8707,-3.8707,-3.8707,-3.8707,-3.8707,-3.8707,-3.8707,-3.8707,-3.8707,-3.853,-3.798,-3.7702,-3.7285,-3.6519,-3.6182,-3.5761,-3.512,-3.5064,-3.4776,-3.4032,-3.3609,-3.3106,-3.2361,-3.1633,-3.119,-3.119,-3.119,-3.119,-3.119,-3.119,-3.119,-3.119,-3.119,-3.119,-3.119,-3.119,-3.119,-3.1171,-3.0272,-2.9848,0.0,0.0,0.0,0.0,0.0,0.0,0.0,0.0,-3.7754,-3.8457,-3.873,-3.9017,-3.9526,-3.9769,-4.0069,-4.0629,-4.0724,-4.0713,-4.0703,-4.0697,-4.0662,-4.0519,-4.0496,-4.0496,-4.0496,-4.0496,-4.0496,-4.0496,-4.0496,-4.0496,-4.0496,-4.0496,-4.0496,-4.0496,-4.0669,-4.0746,-4.0746,-4.092,-4.1016,-4.1016,-4.1016,-4.1016,-4.1016,-4.1016,-4.1016,-4.0997,-4.0823,-4.0669,-4.0496,-4.0496,-4.0496,-4.0496,-4.0496,-4.0496,-4.0473,-4.0269,-4.0139,-4.0012,-3.942,-3.9147,-3.9063,-3.8788,-3.8707,-3.8707,-3.8707,-3.8707,-3.8707,-3.8707,-3.8707,-3.8707,-3.8707,-3.8707,-3.8707,-3.8707,-3.8707,-3.8707,-3.8707,-3.8707,-3.8707,-3.8707,-3.8707,-3.8562,-3.8115,-3.8065,-3.7702,-3.6704,-3.6457,-3.6228,-3.5827,-3.565,-3.5363,-3.4776,-3.4573,-3.3969,-3.2632,-3.1833,-3.141,-3.141,-3.1275,-3.119,-3.119,-3.119,-3.119,-3.119,-3.119,-3.119,-3.119,-3.119,-3.119,-3.119,-3.0699,-3.0414,-3.9375,-3.8965,-3.8301,-3.8301,-3.8301,-3.832,0.0,0.0,-3.8476,-3.8574,-3.9219,-3.9744,-3.9708,-4.0322,-4.0827,-4.0797,-4.0781,-4.0761,-4.0715,-4.0697,-4.0662,-4.0519,-4.0496,-4.0496,-4.0496,-4.0496,-4.0496,-4.0496,-4.0496,-4.0496,-4.0496,-4.0496,-4.0496,-4.0496,-4.1258,-4.1662,-4.1662,-4.2412,-4.2816,-4.2816,-4.2816,-4.2816,-4.2816,-4.2816,-4.2816,-4.2777,-4.1989,-4.1219,-4.0496,-4.0496,-4.0496,-4.0496,-4.0496,-4.0496,-4.0496,-4.0465,-4.0294,-4.0061,-3.9668,-3.9339,-3.9063,-3.8788,-3.8707,-3.8707,-3.8707,-3.8707,-3.8707,-3.8707,-3.8707,-3.8707,-3.8707,-3.8707,-3.8707,-3.8707,-3.8707,-3.8707,-3.8707,-3.8707,-3.8707,-3.8707,-3.8707,-3.8692,-3.8627,-3.8611,-3.8269,-3.7266,-3.6704,-3.6374,-3.6312,-3.5898,-3.5566,-3.5481,-3.4895,-3.4167,-3.3355,-3.2594,-3.2175,-3.2175,-3.1546,-3.119,-3.119,-3.119,-3.119,-3.119,-3.119,-3.119,-3.119,-3.119,-3.119,-3.119,-3.1131,-3.0818,-3.9043,-3.8887,-3.8594,0.0,-3.8594,-3.873,-3.9238,-3.9355,-3.9492,-4.0019,-4.0391,-4.0623,-4.0476,-4.0742,-4.0988,0.0,-4.0917,-4.0887,-4.0761,-4.0762,-4.0685,-4.0515,-4.0496,-4.0496,-4.0496,-4.0496,-4.0496,-4.0496,-4.0969,-4.1258,-4.1258,-4.1739,-4.2008,-4.2008,-4.2374,-4.2566,-4.2566,-4.2912,-4.3104,-4.3104,-4.3104,-4.3104,-4.3104,-4.3104,-4.3104,-4.3085,-4.272,-4.2066,-4.1258,-4.1258,-4.095,-4.0496,-4.0496,-4.0496,-4.0481,-4.033,-4.0062,-3.9765,-3.9445,-3.9122,-3.8859,-3.8735,-3.8707,-3.8707,-3.8707,-3.8707,-3.8707,-3.8707,-3.8707,-3.8707,-3.8707,-3.8707,-3.8707,-3.8707,-3.8707,-3.8707,-3.8707,-3.8707,-3.8707,-3.8707,-3.8707,-3.8707,-3.8707,-3.8707,-3.8546,-3.8135,-3.7632,-3.706,-3.6478,-3.6203,-3.5941,-3.5627,-3.4945,-3.437,-3.4066,-3.3355,-3.2767,-3.2327,-3.2005,-3.165,-3.1207,-3.119,-3.119,-3.119,-3.119,-3.119,-3.119,-3.119,-3.119,-3.1207,-3.165,-3.1716,-3.9316,-3.9316,-3.9316,-3.9316,-3.9316,-3.9473,-4.0117,-4.0254,-4.0449,-4.1074,-4.1191,-4.1171,-4.1078,-4.1054,-4.1054,-4.1054,-4.1054,-4.0994,-4.0816,-4.0797,-4.0811,-4.085,-4.0854,-4.0958,-4.1189,-4.0785,-4.0593,-4.0835,-4.145,-4.1904,-4.2162,-4.2758,-4.3104,-4.3104,-4.3316,-4.3431,-4.3431,-4.3662,-4.3797,-4.3797,-4.3797,-4.3797,-4.3797,-4.3797,-4.3662,-4.3431,-4.3431,-4.2951,-4.2143,-4.1904,-4.1431,-4.0835,-4.0593,-4.0496,-4.0481,-4.0267,-4.0003,-3.969,-3.945,-3.9136,-3.8818,-3.8818,-3.8762,-3.8707,-3.8707,-3.8707,-3.8707,-3.8707,-3.8707,-3.8707,-3.8707,-3.8707,-3.8707,-3.8707,-3.8707,-3.8707,-3.8707,-3.8707,-3.8707,-3.8707,-3.8707,-3.8707,-3.8707,-3.8707,-3.8707,-3.8707,-3.8366,-3.779,-3.6923,-3.6563,-3.6245,-3.5854,-3.5203,-3.4793,-3.4793,-3.4134,-3.3474,-3.2936,-3.253,-3.2056,-3.1532,-3.1309,-3.119,-3.119,-3.119,-3.119,-3.119,-3.1393,-3.1495,-3.1512,-3.2276,-3.2716,0.0,0.0,-4.1113,-4.1113,-4.1113,-4.1133,-4.1152,-4.1152,-4.1172,-4.1191,-4.1191,-4.1191,-4.1191,-4.1191,-4.1191,-4.1191,-4.1191,-4.1103,-4.0847,-4.0797,-4.1039,-4.169,-4.175,-4.2085,0.0,-4.1497,-4.0854,-4.17,-4.1788,-4.2181,-4.3028,-4.3085,-4.3104,-4.3104,-4.3855,-4.4259,-4.4259,-4.5094,-4.5518,-4.5518,-4.5518,-4.5518,-4.5518,-4.5518,-4.5056,-4.4259,-4.4259,-4.3816,-4.3008,-4.2162,-4.1769,-4.1681,-4.0843,-4.0496,-4.0496,-4.0489,-4.0321,-4.0081,-4.0081,-3.9634,-3.9085,-3.9085,-3.8909,-3.8707,-3.8707,-3.8707,-3.8707,-3.8707,-3.8707,-3.8707,-3.8707,-3.8707,-3.8707,-3.8707,-3.8707,-3.8707,-3.8707,-3.8707,-3.8707,-3.8707,-3.8707,-3.8707,-3.8707,-3.8707,-3.8707,-3.8707,-3.8692,-3.8481,-3.7929,-3.7002,-3.6395,-3.6392,-3.5902,-3.5566,-3.5566,-3.4895,-3.4455,-3.4421,-3.3089,-3.2293,-3.2276,-3.1562,-3.119,-3.119,-3.119,-3.119,-3.119,-3.1921,-3.2276,-3.2276,-3.3017,-3.3744,0.0,0.0,-4.1191,-4.1191,-4.1191,-4.1191,-4.1191,-4.1191,-4.1191,-4.1191,-4.1191,-4.1191,-4.1191,-4.1191,-4.1191,-4.1191,-4.1191,-4.1148,-4.0957,-4.1344,-4.1728,-4.1912,-4.2356,0.0,0.0,0.0,0.0,-4.2643,-4.3162,-4.3585,-4.3874,-4.4432,-4.4767,-4.4767,-4.5017,-4.5171,-4.5171,-4.546,-4.5594,-4.5594,-4.5594,-4.5594,-4.5594,-4.5594,-4.5441,-4.5171,-4.5171,-4.4682,-4.3835,-4.3008,-4.2316,-4.1712,-4.0835,-4.0496,-4.0496,-4.0496,-4.0449,-4.0339,-4.0158,-3.9808,-3.9408,-3.916,-3.9036,-3.8919,-3.8747,-3.8707,-3.8707,-3.8707,-3.8707,-3.8707,-3.8707,-3.8707,-3.8707,-3.8707,-3.8707,-3.8707,-3.8707,-3.8707,-3.8707,-3.8707,-3.8707,-3.8707,-3.8707,-3.8707,-3.8707,-3.8707,-3.8399,-3.8099,-3.7911,-3.7341,-3.6941,-3.6941,-3.644,-3.6139,-3.6139,-3.5589,-3.503,-3.4523,-3.4037,-3.3326,-3.2344,-3.2056,-3.1701,-3.1207,-3.1684,-3.1938,-3.1938,-3.2662,-3.3034,-3.3051,-3.3778,-3.4252,0.0,-4.1191,-4.1191,-4.1191,-4.1191,-4.1191,-4.1191,-4.1191,-4.1191,-4.1191,-4.1191,-4.1191,-4.1191,-4.1191,-4.1191,-4.1191,-4.1191,-4.115,-4.1023,-4.168,-4.2253,-4.2465,-4.3156,-4.3725,0.0,0.0,0.0,-4.3547,-4.4008,-4.4432,-4.4739,-4.5306,-4.5594,-4.5594,-4.5594,-4.5594,-4.5594,-4.5594,-4.5594,-4.5594,-4.5594,-4.5594,-4.5594,-4.5594,-4.5594,-4.5594,-4.5594,-4.5287,-4.4682,-4.3566,-4.2777,-4.2162,-4.0958,-4.0496,-4.0496,-4.0496,-4.0496,-4.0473,-4.0313,-4.0033,-3.9735,-3.9529,-3.9308,-3.9058,-3.8913,-3.8777,-3.8707,-3.8707,-3.8707,-3.8707,-3.8707,-3.8707,-3.8707,-3.8707,-3.8707,-3.8707,-3.8707,-3.8707,-3.8707,-3.8707,-3.8707,-3.8707,-3.8707,-3.8707,-3.8707,-3.8707,-3.8417,-3.8183,-3.8183,-3.7755,-3.7451,-3.7451,-3.6981,-3.662,-3.6416,-3.6075,-3.5606,-3.495,-3.4641,-3.4066,-3.3139,-3.2835,-3.2459,-3.2002,-3.2442,-3.2679,-3.2679,-3.3423,-3.3795,-3.3812,-3.4556,-3.4895,-4.1191,-4.1191,-4.1191,-4.1191,-4.1191,-4.1191,-4.1191,-4.1191,-4.1191,-4.1191,-4.1191,-4.1191,0.0,0.0,-4.1191,-4.1191,-4.1191,-4.115,-4.1025,-4.1798,-4.2634,0.0,0.0,0.0,0.0,0.0,0.0,-4.4432,0.0,-4.472,-4.5556,-4.5594,-4.5594,-4.5594,-4.5594,-4.5594,-4.5594,-4.5594,-4.5594,-4.5594,-4.5594,-4.5594,-4.5594,-4.5594,-4.5594,-4.5594,-4.5594,-4.5575,-4.5421,-4.3778,-4.3066,-4.2854,-4.117,-4.0496,-4.0496,-4.0496,-4.0496,-4.0496,-4.0496,-4.0339,-4.012,-4.0101,-3.9668,-3.9133,-3.9125,-3.8923,-3.8719,-3.8707,-3.8707,-3.8707,-3.8707,-3.8707,-3.8707,-3.8707,-3.8707,-3.8707,-3.8707,-3.8707,-3.8707,-3.8707,-3.8707,-3.8707,-3.8707,-3.8707,-3.8707,-3.8707,-3.8707,-3.8707,-3.8707,-3.8267,-3.7946,-3.7946,-3.7524,-3.7038,-3.6519,-3.6437,-3.6182,-3.5672,-3.4967,-3.4539,-3.4489,-3.3829,-3.344,-3.3406,-3.344,-3.3457,-3.3457,-3.4201,-3.4556,-3.4573,-3.5261,-3.56,-4.1191,-4.1191,-4.1191,-4.1191,-4.1191,-4.1191,-4.1191,-4.1191,-4.1191,-4.1191,-4.1191,-4.1191,0.0,0.0,0.0,-4.1191,-4.1191,0.0,-4.115,-4.2362,0.0,-4.3526,0.0,-4.5603,-4.5777,-4.5775,0.0,0.0,-4.5267,-4.5364,-4.5594,-4.5594,-4.5594,-4.5594,-4.5594,-4.5594,-4.5594,-4.5594,-4.5594,-4.5594,-4.5594,-4.5594,-4.5594,-4.5594,-4.5594,-4.5594,-4.5594,-4.5229,-4.4547,-4.3528,-4.272,-4.2027,-4.0939,-4.0496,-4.0496,-4.0496,-4.0496,-4.0496,-4.0496,-4.0457,-4.0364,-4.0158,-3.9992,-3.9754,-3.9251,-3.9044,-3.8961,-3.8747,-3.8707,-3.8707,-3.8707,-3.8707,-3.8707,-3.8707,-3.8707,-3.8707,-3.8707,-3.8707,-3.8707,-3.8707,-3.8707,-3.8707,-3.8707,-3.8707,-3.8707,-3.8707,-3.8707,-3.8707,-3.8707,-3.8578,-3.8515,-3.8515,-3.8032,-3.7667,-3.7524,-3.6825,-3.6333,-3.6203,-3.564,-3.5081,-3.4506,-3.432,-3.3964,-3.3423,-3.3931,-3.4218,-3.4218,-3.4962,-3.5312,-3.5312,-3.5498,-3.56,-4.1191,-4.1191,-4.1191,-4.1191,-4.1191,-4.1191,-4.1191,-4.1191,-4.1191,-4.1191,-4.1191,0.0,-4.1191,-4.1191,0.0,0.0,0.0,0.0,-4.1191,-4.2612,-4.3637,0.0,-4.5038,0.0,-4.5944,-4.5885,-4.5802,0.0,-4.5627,-4.5594,-4.5594,-4.5594,-4.5594,-4.5594,-4.5594,-4.5594,-4.5594,-4.5594,-4.5594,-4.5594,-4.5594,-4.5594,-4.5594,-4.5594,-4.5594,-4.5575,0.0,-4.4739,-4.4201,-4.3028,-4.2239,-4.1712,-4.0835,-4.0496,-4.0496,-4.0496,-4.0496,-4.0496,-4.0496,-4.0496,-4.0473,-4.033,-4.0195,-4.0022,-3.9645,-3.9445,-3.9257,-3.8966,-3.8884,-3.8859,-3.8735,-3.8707,-3.8707,-3.8707,-3.8707,-3.8707,-3.8707,-3.8707,-3.8707,-3.8707,-3.8707,-3.8707,-3.8707,-3.8707,-3.8707,-3.8707,-3.8707,-3.8707,-3.8707,-3.8707,-3.8707,-3.8707,-3.8433,-3.8167,-3.7929,-3.7379,-3.6981,-3.6764,-3.6249,-3.5775,-3.5348,-3.5111,-3.4793,-3.4366,-3.4776,-3.4979,-3.4979,-3.5397,-3.56,-3.56,-3.56,-3.56,-4.1191,-4.1191,-4.1191,-4.1191,-4.1191,-4.1191,-4.1191,-4.1191,-4.1191,-4.1191,0.0,-4.1191,-4.1191,-4.1191,-4.1191,-4.1191,0.0,-4.1191,-4.1191,-4.2637,-4.3691,-4.3691,-4.5144,-4.6117,-4.611,-4.5992,-4.5896,-4.5828,-4.5703,-4.5635,-4.5594,-4.5594,-4.5594,-4.5594,-4.5594,-4.5594,-4.5594,-4.5594,-4.5594,-4.5594,-4.5594,-4.5594,-4.5594,-4.5594,-4.5537,-4.5383,0.0,0.0,-4.3855,-4.2412,-4.1731,-4.1546,-4.0804,-4.0496,-4.0496,-4.0496,-4.0496,-4.0496,-4.0496,-4.0496,-4.0496,-4.0496,-4.0347,-4.0148,-4.011,-3.9901,-3.9587,-3.9218,-3.9112,-3.9036,-3.8777,-3.8707,-3.8707,-3.8707,-3.8707,-3.8707,-3.8707,-3.8707,-3.8707,-3.8707,-3.8707,-3.8707,-3.8707,-3.8707,-3.8707,-3.8707,-3.8707,-3.8707,-3.8707,-3.8707,-3.8707,-3.8707,-3.8707,-3.8496,-3.8048,-3.7946,-3.772,-3.7323,-3.6803,-3.6478,-3.6395,-3.5963,-3.5672,-3.56,-3.56,-3.56,-3.56,-3.56,-3.56,-3.56,-3.56,-3.56,-4.1191,-4.1191,-4.1191,-4.1191,-4.1191,-4.1191,-4.1191,-4.1191,0.0,0.0,-4.1191,-4.1191,-4.1191,-4.1191,-4.1191,-4.1191,-4.1191,-4.1191,-4.1191,-4.2637,-4.3691,0.0,-4.5214,-4.6223,0.0,0.0,0.0,0.0,0.0,-4.5783,-4.5612,-4.5594,-4.5594,-4.5594,-4.5594,-4.5594,-4.5594,-4.5594,-4.5594,-4.5594,-4.5594,-4.5594,-4.5594,-4.5594,-4.521,-4.4509,0.0,0.0,-4.222,-4.1923,-4.1373,-4.0708,-4.0554,-4.0496,-4.0496,-4.0496,-4.0496,-4.0496,-4.0496,-4.0496,-4.0496,-4.0496,-4.0473,-4.0389,-4.0167,-4.0071,-3.9891,-3.9264,-3.9112,-3.9036,-3.8777,-3.8707,-3.8707,-3.8707,-3.8707,-3.8707,-3.8707,-3.8707,-3.8707,-3.8707,-3.8707,-3.8707,-3.8707,-3.8707,-3.8707,-3.8707,-3.8707,-3.8707,-3.8707,-3.8707,-3.8707,-3.8707,-3.8707,-3.8658,-3.8562,-3.8148,-3.7877,-3.7772,-3.7323,-3.6862,-3.6416,-3.6291,-3.6054,-3.5622,-3.56,-3.56,-3.56,-3.56,-3.56,-3.56,-3.56,-3.56,-4.1191,-4.1191,-4.1191,-4.1191,-4.1191,-4.1191,-4.1191,0.0,0.0,0.0,-4.1191,-4.1191,-4.1191,-4.1191,0.0,-4.1191,-4.1191,-4.1191,-4.1191,-4.2246,0.0,-4.3027,-4.4551,-4.5605,0.0,0.0,0.0,0.0,0.0,-4.5929,-4.5703,-4.5635,-4.5594,-4.5594,-4.5594,-4.5594,-4.5594,-4.5594,-4.5594,-4.5594,-4.5594,-4.5364,-4.4913,-4.4913,-4.447,-4.3643,-4.3201,0.0,-4.175,-4.1316,-4.0873,-4.0496,-4.0496,-4.0496,-4.0496,-4.0496,-4.0496,-4.0496,-4.0496,-4.0496,-4.0496,-4.0496,-4.0496,-4.0473,-4.0347,-4.0313,-4.0203,-3.9746,-3.9622,-3.9505,-3.9031,-3.8909,-3.8869,-3.8735,-3.8707,-3.8707,-3.8707,-3.8707,-3.8707,-3.8707,-3.8707,-3.8707,-3.8707,-3.8707,-3.8707,-3.8707,-3.8707,-3.8707,-3.8707,-3.8707,-3.8707,-3.8707,-3.8707,-3.8707,-3.8707,-3.8465,-3.8334,-3.8334,-3.7843,-3.7451,-3.7193,-3.6684,-3.6287,-3.6028,-3.5739,-3.56,-3.56,-3.56,-3.56,-3.56,-3.56,-3.56,-4.1191,-4.1191,-4.1191,-4.1191,-4.1191,-4.1191,-4.1191,-4.1191,0.0,-4.1191,-4.1191,-4.1191,-4.1191,0.0,-4.1191,0.0,-4.1191,-4.1191,-4.1191,-4.1894,-4.2402,0.0,-4.3945,0.0,0.0,0.0,0.0,0.0,0.0,0.0,-4.5832,-4.572,-4.5658,-4.5658,-4.5648,-4.5643,-4.5643,-4.562,-4.5594,-4.5594,-4.5421,-4.496,-4.4297,-4.4124,-4.3605,-4.2777,-4.2104,0.0,0.0,-4.0785,-4.0496,-4.0496,-4.0496,-4.0496,-4.0496,-4.0496,-4.0496,-4.0496,-4.0496,-4.0496,-4.0496,-4.0496,-4.0496,-4.0496,-4.0496,-4.0496,-4.043,-4.0177,-4.0101,-3.9953,-3.9352,-3.9218,-3.9144,-3.8859,-3.8732,-3.8707,-3.8707,-3.8707,-3.8707,-3.8707,-3.8707,-3.8707,-3.8707,-3.8707,-3.8707,-3.8707,-3.8707,-3.8707,-3.8707,-3.8707,-3.8707,-3.8707,-3.8707,-3.8707,-3.8707,-3.8707,-3.8707,-3.8707,-3.83,-3.7963,-3.7755,-3.7001,-3.6457,-3.6228,-3.581,-3.56,-3.56,-3.56,-3.56,-3.56,-3.56,-3.56,-4.1191,-4.1191,-4.1191,-4.1191,-4.1191,-4.1191,-4.1191,0.0,-4.1191,-4.1191,-4.1191,-4.1191,-4.1191,0.0,0.0,0.0,0.0,-4.1191,0.0,-4.1894,-4.2402,-4.2402,0.0,0.0,0.0,0.0,0.0,0.0,0.0,0.0,0.0,-4.5872,-4.5867,-4.5867,-4.5814,-4.5776,-4.5776,-4.5657,-4.5594,-4.5594,-4.4797,-4.4374,-4.4278,-4.3547,-4.2739,-4.1923,0.0,0.0,0.0,-4.0535,-4.0496,-4.0496,-4.0496,-4.0496,-4.0496,-4.0496,-4.0496,-4.0496,-4.0496,-4.0496,-4.0496,-4.0496,-4.0496,-4.0496,-4.0496,-4.0496,-4.043,-4.0177,-4.0101,-4.0012,-3.9645,-3.9552,-3.9481,-3.9139,-3.8884,-3.8707,-3.8707,-3.8707,-3.8707,-3.8707,-3.8707,-3.8707,-3.8707,-3.8707,-3.8707,-3.8707,-3.8707,-3.8707,-3.8707,-3.8707,-3.8707,-3.8707,-3.8707,-3.8707,-3.8707,-3.8707,-3.8707,-3.8707,-3.8643,-3.8218,-3.7304,-3.719,-3.6684,-3.5694,-3.5622,-3.56,-3.56,-3.56,-3.56,-3.56,-3.56,-3.56,-4.1191,-4.1191,-4.1191,-4.1191,-4.1191,-4.1191,-4.1191,0.0,-4.1055,-4.0527,-4.043,-4.043,-4.043,0.0,0.0,0.0,0.0,0.0,-4.1191,0.0,-4.168,0.0,0.0,0.0,0.0,0.0,0.0,0.0,0.0,0.0,0.0,-4.5988,-4.5899,-4.5899,-4.5825,-4.5803,-4.5803,-4.5144,-4.4816,-4.4797,-4.397,-4.3297,-4.2777,-4.247,-4.1835,-4.1008,0.0,0.0,0.0,-4.0496,-4.0496,-4.0496,-4.0496,-4.0496,-4.0496,-4.0496,-4.0496,-4.0496,-4.0496,-4.0496,-4.0496,-4.0496,-4.0496,-4.0496,-4.0496,-4.0496,-4.0481,-4.0372,-4.0347,-4.0267,-3.9973,-3.9754,-3.9576,-3.9426,-3.9171,-3.8933,-3.8933,-3.88,-3.8707,-3.8707,-3.8707,-3.8707,-3.8707,-3.8707,-3.8707,-3.8707,-3.8707,-3.8707,-3.8707,-3.8707,-3.8707,-3.8707,-3.8707,-3.8707,-3.8707,-3.8707,-3.8707,-3.8707,-3.8707,-3.8515,-3.8118,-3.779,-3.7286,-3.6583,-3.6249,-3.592,-3.56,-3.56,-3.56,-3.56,-3.56,-3.56,-4.1191,-4.1191,-4.1191,-4.1191,-4.1191,-4.1191,0.0,0.0,-4.0644,-4.0039,-3.9687,-3.9512,-3.9512,0.0,0.0,0.0,0.0,-4.1191,-4.1191,-4.1191,-4.1191,0.0,0.0,0.0,0.0,0.0,0.0,0.0,0.0,0.0,0.0,-4.5882,-4.5754,-4.6008,-4.5929,-4.5763,-4.5506,-4.4789,-4.4286,-4.4028,-4.3197,-4.2473,-4.1843,-4.1593,-4.112,-4.0496,0.0,0.0,0.0,-4.0496,-4.0496,-4.0496,-4.0496,-4.0496,-4.0496,-4.0496,-4.0496,-4.0496,-4.0496,-4.0496,-4.0496,-4.0496,-4.0496,-4.0496,-4.0496,-4.0496,-4.0496,-4.0496,-4.0496,-4.0457,-4.0278,-3.9983,-3.9754,-3.9754,-3.9486,-3.9212,-3.9125,-3.8947,-3.8788,-3.8723,-3.8707,-3.8707,-3.8707,-3.8707,-3.8707,-3.8707,-3.8707,-3.8707,-3.8707,-3.8707,-3.8707,-3.8707,-3.8707,-3.8707,-3.8707,-3.8707,-3.8707,-3.8707,-3.8707,-3.8627,-3.8465,-3.8099,-3.7685,-3.7209,-3.6664,-3.6224,-3.5849,-3.5689,-3.56,-3.56,-3.56,-3.56,-4.1191,-4.1191,-4.1191,-4.1191,-4.1191,-4.1191,0.0,0.0,-3.9902,-3.9902,-3.9219,-3.8613,-3.8613,-3.9316,0.0,0.0,0.0,0.0,0.0,0.0,0.0,0.0,0.0,0.0,0.0,0.0,0.0,0.0,0.0,0.0,0.0,-4.5488,-4.539,-4.6269,-4.6171,-4.5677,-4.4816,-4.4736,-4.4271,-4.3406,-4.2536,-4.2068,-4.1969,-4.1098,-4.063,0.0,0.0,0.0,0.0,-4.0496,-4.0496,-4.0496,-4.0496,-4.0496,-4.0496,-4.0496,-4.0496,-4.0496,-4.0496,-4.0496,-4.0496,-4.0496,-4.0496,-4.0496,-4.0496,-4.0496,-4.0496,-4.0496,-4.0496,-4.0496,-4.0496,-4.0304,-4.0091,-4.0091,-3.9829,-3.9498,-3.916,-3.9099,-3.9027,-3.8747,-3.8707,-3.8707,-3.8707,-3.8707,-3.8707,-3.8707,-3.8707,-3.8707,-3.8707,-3.8707,-3.8707,-3.8707,-3.8707,-3.8707,-3.8707,-3.8707,-3.8707,-3.8707,-3.8707,-3.8465,-3.7929,-3.7893,-3.7685,-3.7209,-3.6664,-3.6412,-3.6374,-3.5854,-3.56,-3.56,-3.56,-3.56,-4.0156,-4.0312,-4.0449,-4.1055,-4.0742,-4.0312,-4.0312,-3.9648,-3.8848,-3.8242,-3.7891,-3.7715,-3.7715,-3.8418,0.0,0.0,0.0,0.0,0.0,0.0,0.0,0.0,0.0,0.0,0.0,0.0,0.0,0.0,0.0,0.0,0.0,-4.4258,-4.4512,-4.5371,-4.4746,-4.4252,-4.3977,-4.3279,-4.2773,-4.2501,-4.163,-4.1205,-4.1169,-4.0897,0.0,0.0,0.0,0.0,0.0,-4.0496,-4.0496,-4.0496,-4.0496,-4.0496,-4.0496,-4.0496,-4.0496,-4.0496,-4.0496,-4.0496,-4.0496,-4.0496,-4.0496,-4.0496,-4.0496,-4.0496,-4.0496,-4.0496,-4.0496,-4.0496,-4.0496,-4.0441,-4.0372,-4.0372,-3.9974,-3.9576,-3.945,-3.9122,-3.8803,-3.8723,-3.8707,-3.8707,-3.8707,-3.8707,-3.8707,-3.8707,-3.8707,-3.8707,-3.8707,-3.8707,-3.8707,-3.8707,-3.8707,-3.8707,-3.8707,-3.8707,-3.8707,-3.8707,-3.8707,-3.8627,-3.8465,-3.8449,-3.82,-3.7685,-3.7506,-3.7267,-3.696,-3.6416,-3.5963,-3.56,-3.56,-3.56,0.0,-3.9414,-3.9531,-4.0078,-3.9805,0.0,0.0,-3.873,-3.7969,-3.7402,-3.7031,-3.6816,-3.6816,-3.7793,0.0,0.0,0.0,0.0,0.0,0.0,0.0,0.0,0.0,0.0,0.0,0.0,0.0,0.0,0.0,0.0,0.0,0.0,-4.3457,-4.4004,-4.3762,-4.3479,-4.3147,-4.2531,-4.2061,-4.1749,-4.1206,-4.0922,-4.0874,-4.0874,0.0,0.0,0.0,0.0,0.0,-4.0589,-4.0581,-4.0574,-4.0527,-4.0496,-4.0496,-4.0496,-4.0496,-4.0496,-4.0496,-4.0496,-4.0496,-4.0496,-4.0496,-4.0496,-4.0496,-4.0496,-4.0496,-4.0496,-4.0496,-4.0496,-4.0496,-4.0496,-4.0496,-4.0496,-4.0202,-3.9905,-3.9808,-3.9389,-3.8994,-3.8888,-3.8777,-3.8707,-3.8707,-3.8707,-3.8707,-3.8707,-3.8707,-3.8707,-3.8707,-3.8707,-3.8707,-3.8707,-3.8707,-3.8707,-3.8707,-3.8707,-3.8707,-3.8707,-3.8707,-3.8707,-3.8707,-3.8707,-3.8546,-3.82,-3.7997,-3.7755,-3.747,-3.6943,-3.6437,-3.5898,-3.5898,-3.5788,0.0,0.0,0.0,0.0,0.0,0.0,0.0,0.0,0.0,-3.7207,-3.6562,-3.5996,-3.5996,0.0,0.0,0.0,0.0,0.0,0.0,0.0,0.0,0.0,0.0,0.0,0.0,0.0,0.0,0.0,0.0,0.0,0.0,0.0,-4.2305,-4.2305,-4.3105,-4.3125,-4.2324,-4.2305,-4.1933,-4.1191,-4.1191,-4.1129,-4.1002,-4.1002,0.0,0.0,0.0,0.0,0.0,-4.0731,-4.0709,-4.0686,-4.0566,-4.0512,-4.0496,-4.0496,-4.0496,-4.0496,-4.0496,-4.0496,-4.0496,-4.0496,-4.0496,-4.0496,-4.0496,-4.0496,-4.0496,-4.0496,-4.0496,-4.0496,-4.0496,-4.0496,-4.0496,-4.0496,-4.0481,-4.0397,-4.0148,-3.9848,-3.9517,-3.9205,-3.8937,-3.8747,-3.8747,-3.8747,-3.8747,-3.8747,-3.8747,-3.8765,-3.8735,-3.8735,-3.8719,-3.8707,-3.8707,-3.8707,-3.8707,-3.8707,-3.8707,-3.8707,-3.8707,-3.8707,-3.8707,-3.8707,-3.8707,-3.8707,-3.82,-3.7946,-3.7893,-3.747,-3.696,-3.6395,-3.6395,-3.6118,0.0,0.0,0.0,0.0,0.0,0.0,0.0,0.0,0.0,0.0,0.0,0.0,0.0,0.0,0.0,0.0,0.0,0.0,0.0,0.0,0.0,0.0,0.0,0.0,0.0,0.0,0.0,0.0,0.0,0.0,0.0,0.0,-4.1484,-4.1484,-4.168,-4.1699,-4.1484,-4.1484,-4.1387,-4.1191,-4.1191,-4.1172,-4.115,-4.115,0.0,0.0,0.0,0.0,-4.0797,-4.0768,-4.0742,-4.0692,-4.0674,-4.0582,-4.0496,-4.0496,-4.0496,-4.0496,-4.0496,-4.0496,-4.0496,-4.0496,-4.0496,-4.0496,-4.0496,-4.0496,-4.0496,-4.0496,-4.0496,-4.0496,-4.0496,-4.0496,-4.0496,-4.0496,-4.0347,-4.0177,-4.011,-3.9848,-3.9576,-3.9505,-3.9432,-3.9389,-3.9389,-3.9389,-3.9389,-3.9389,-3.9389,-3.9301,-3.9054,-3.9013,-3.8937,-3.8719,-3.8707,-3.8707,-3.8707,-3.8707,-3.8707,-3.8707,-3.8707,-3.8707,-3.8707,-3.8707,-3.8707,-3.8707,-3.8596,-3.83,-3.7893,-3.779,-3.7285,-3.6395,-3.6395,-3.6118,0.0,0.0,0.0,0.0,0.0,0.0,0.0,0.0,0.0,0.0,0.0,0.0,0.0,0.0,0.0,0.0,0.0,0.0,0.0,0.0,0.0,0.0,0.0,0.0,0.0,0.0,0.0,0.0,0.0,0.0,0.0,0.0,-4.1191,-4.1191,-4.1191,-4.1191,-4.1191,-4.1191,-4.1191,-4.1191,-4.1191,-4.1191,-4.1191,-4.1191,0.0,0.0,0.0,0.0,-4.0986,-4.0917,-4.0873,-4.0839,-4.0762,-4.067,-4.0582,-4.0582,-4.0552,-4.0496,-4.0496,-4.0496,-4.0496,-4.0496,-4.0496,-4.0496,-4.0496,-4.0496,-4.0496,-4.0496,-4.0496,-4.0496,-4.0496,-4.0496,-4.0496,-4.0496,-4.0389,-4.0276,-4.0276,-4.0033,-3.9819,-3.9819,-3.972,-3.9599,-3.9599,-3.9599,-3.9599,-3.9599,-3.9599,-3.9493,-3.9133,-3.9112,-3.8999,-3.8735,-3.8707,-3.856,-3.8175,-3.8138,-3.8303,-3.8689,-3.8707,-3.8707,-3.8707,-3.8707,-3.8707,-3.8707,-3.8707,-3.8562,-3.8267,-3.8267,-3.786,-3.7097,-3.7097,-3.6686,0.0,0.0,0.0,-3.5975,-3.5996,0.0,0.0,0.0,0.0,0.0,0.0,0.0,0.0,-3.7422,0.0,0.0,0.0,0.0,0.0,0.0,0.0,0.0,0.0,0.0,0.0,0.0,0.0,0.0,0.0,0.0,0.0,0.0,0.0,-4.1191,-4.1191,-4.1191,-4.1191,-4.1191,-4.1191,-4.1191,-4.1191,-4.1191,-4.1191,-4.1191,-4.1191,0.0,0.0,0.0,-4.1191,-4.1054,-4.099,-4.0957,-4.0836,-4.0738,-4.0661,-4.0661,-4.0596,-4.0496,-4.0496,-4.0496,-4.0496,-4.0496,-4.0496,-4.0496,-4.0496,-4.0496,-4.0496,-4.0496,-4.0496,-4.0496,-4.0496,-4.0496,-4.0496,-4.0496,-4.0496,-4.0496,-4.0496,-4.033,-4.0158,-4.0158,-3.9924,-3.9735,-3.9735,-3.9735,-3.9735,-3.9735,-3.9735,-3.9603,-3.9225,-3.908,-3.8882,-3.8551,-3.8414,-3.8065,-3.7364,-3.7327,-3.7621,-3.8285,-3.834,-3.834,-3.834,-3.834,-3.834,-3.834,-3.834,-3.834,-3.834,-3.8469,-3.8232,-3.7731,-3.7839,-3.7397,-3.571,-3.5726,-3.5777,-3.5884,-3.5951,-3.5996,-3.5996,0.0,0.0,0.0,0.0,0.0,0.0,-3.7422,-3.8594,0.0,0.0,0.0,0.0,0.0,0.0,0.0,0.0,0.0,0.0,0.0,0.0,0.0,0.0,0.0,0.0,0.0,0.0,-4.1191,-4.1191,-4.1191,-4.1191,-4.1191,-4.1191,-4.1191,-4.1191,-4.1191,-4.1191,-4.1191,-4.1191,0.0,0.0,-4.1191,-4.1191,-4.1054,-4.0925,-4.0813,-4.0752,-4.0636,-4.0523,-4.0523,-4.0519,-4.0496,-4.0496,-4.0496,-4.0496,-4.0496,-4.0496,-4.0496,-4.0496,-4.0496,-4.0496,-4.0496,-4.0496,-4.0496,-4.0496,-4.0496,-4.0496,-4.0496,-4.0496,-4.0496,-4.0496,-4.0473,-4.0449,-4.0449,-4.0397,-4.0362,-4.0362,-4.0362,-4.0362,-4.0362,-4.0362,-4.0166,-3.9611,-3.8938,-3.8297,-3.7732,-3.7055,-3.6615,-3.6486,-3.6468,-3.6541,-3.6652,-3.667,-3.667,-3.667,-3.667,-3.667,-3.667,-3.667,-3.667,-3.667,-3.7364,-3.7411,-3.6904,-3.7587,-3.7614,-3.5591,-3.5638,-3.5703,-3.5732,-3.5794,-3.5866,-3.5924,-3.5947,0.0,0.0,0.0,0.0,0.0,0.0,0.0,0.0,0.0,0.0,0.0,0.0,0.0,0.0,0.0,0.0,0.0,0.0,0.0,0.0,0.0,0.0,0.0,0.0,0.0,0.0,-4.1191,-4.1191,-4.1191,-4.1191,-4.1191,-4.1191,-4.1191,-4.1191,-4.1191,-4.1191,-4.1191,-4.1191,0.0,-4.1191,-4.1191,-4.1129,-4.1077,-4.1016,-4.0906,-4.0785,-4.0645,-4.0533,-4.0496,-4.0496,-4.0496,-4.0496,-4.0496,-4.0496,-4.0496,-4.0496,-4.0496,-4.0496,-4.0496,-4.0496,-4.0496,-4.0496,-4.0496,-4.0496,-4.0496,-4.0496,-4.0496,-4.0496,-4.0496,-4.0496,-4.0496,-4.0496,-4.0496,-4.0496,-4.0496,-4.0496,-4.0342,-3.9919,-3.9842,-3.9512,-3.8582,-3.8143,-3.7748,-3.7324,-3.6956,-3.6502,-3.5906,-3.5874,-3.5979,-3.6281,-3.6303,-3.6303,-3.6303,-3.6303,-3.6303,-3.6303,-3.6303,-3.6303,-3.6303,-3.6684,-3.6728,-3.6479,-3.6859,-3.6763,-3.5521,-3.5571,-3.5629,-3.5585,0.0,-3.5723,-3.5836,-3.5875,0.0,0.0,0.0,0.0,0.0,0.0,0.0,0.0,0.0,0.0,0.0,0.0,0.0,0.0,0.0,0.0,0.0,0.0,0.0,0.0,0.0,0.0,0.0,0.0,0.0,0.0,-4.1191,-4.1191,-4.1191,-4.1191,-4.1191,-4.1191,-4.1191,-4.1191,-4.1191,-4.1191,-4.1191,-4.1191,-4.1191,-4.1191,-4.1191,-4.1171,-4.115,-4.1149,-4.1017,-4.089,-4.0757,-4.061,-4.0534,-4.0496,-4.0496,-4.0496,-4.0496,-4.0496,-4.0496,-4.0496,-4.0496,-4.0496,-4.0496,-4.0496,-4.0496,-4.0496,-4.0496,-4.0496,-4.0496,-4.0496,-4.0496,-4.0496,-4.0496,-4.0496,-4.0496,-4.0496,-4.0496,-4.0439,-4.0246,-4.0227,-3.9938,-3.913,-3.8996,-3.8623,-3.764,-3.7337,-3.7119,-3.6842,-3.664,-3.6205,-3.5392,-3.5313,-3.5485,-3.5903,-3.5795,-3.5716,-3.5716,-3.5716,-3.5716,-3.5716,-3.5716,-3.5716,-3.5716,-3.5899,-3.6009,-3.6009,-3.6193,-3.6087,-3.5507,-3.552,-3.5515,-3.5501,-3.5596,0.0,-3.5713,-3.5807,0.0,-3.5907,0.0,0.0,0.0,0.0,0.0,0.0,0.0,0.0,0.0,0.0,0.0,0.0,0.0,0.0,0.0,0.0,0.0,0.0,0.0,0.0,0.0,0.0,0.0,0.0,0.0,-4.1191,-4.1191,-4.1191,-4.1191,-4.1191,-4.1191,-4.1191,-4.1191,-4.1191,-4.1191,-4.1191,-4.1191,-4.1191,-4.1191,-4.1076,-4.1002,-4.0996,-4.0867,-4.0781,-4.0715,-4.0692,-4.0603,-4.0496,-4.0496,-4.0496,-4.0496,-4.0496,-4.0496,-4.0496,-4.0496,-4.0496,-4.0496,-4.0496,-4.0496,-4.0496,-4.0496,-4.0496,-4.0496,-4.0496,-4.0496,-4.0496,-4.0496,-4.0496,-4.0496,-4.0496,-4.0496,-4.0265,-3.9515,-3.94,-3.9092,-3.8219,-3.8084,-3.7951,-3.7544,-3.6859,-3.6273,-3.6025,-3.5325,-3.4835,-3.4758,-3.4758,-3.4766,-3.4802,-3.4284,-3.3972,-3.3972,-3.3972,-3.3972,-3.3972,-3.3972,-3.3972,-3.3972,-3.4729,-3.5096,-3.5114,-3.5917,-3.627,-3.55,-3.55,-3.55,-3.55,-3.554,0.0,0.0,-3.5678,-3.5758,-3.5869,-3.6618,0.0,0.0,0.0,0.0,0.0,0.0,0.0,0.0,0.0,0.0,0.0,0.0,0.0,0.0,0.0,0.0,0.0,0.0,0.0,0.0,0.0,0.0,0.0,0.0,-4.1191,-4.1191,-4.1191,-4.1191,-4.1191,-4.1191,-4.1191,-4.1191,-4.1191,-4.1191,-4.1191,-4.1191,-4.1191,-4.1191,-4.1149,-4.1127,-4.1105,-4.0986,-4.087,-4.0752,-4.0752,-4.0723,-4.0685,-4.0642,-4.063,-4.061,-4.0534,-4.0496,-4.0496,-4.0496,-4.0496,-4.0496,-4.0496,-4.0496,-4.0496,-4.0496,-4.0496,-4.0496,-4.0496,-4.0496,-4.0496,-4.0496,-4.0496,-4.0496,-4.0496,-4.0092,-3.9669,-3.9361,-3.8854,-3.82,-3.7315,-3.7199,-3.6978,-3.6332,-3.5987,-3.5764,-3.5657,-3.5224,-3.4954,-3.4954,-3.4595,-3.439,-3.439,-3.4171,-3.4056,-3.4056,-3.3889,-3.3807,-3.3807,-3.3807,-3.3807,-3.3807,-3.4119,-3.4252,-3.4266,-3.4596,-3.4743,-3.5084,-3.4885,-3.475,0.0,0.0,0.0,-3.5498,-3.5574,-3.564,-3.5785,-3.6759,0.0,0.0,0.0,0.0,0.0,0.0,0.0,0.0,0.0,0.0,0.0,0.0,0.0,0.0,0.0,0.0,0.0,0.0,0.0,0.0,0.0,0.0,0.0,0.0,-4.1191,-4.1191,-4.1191,-4.1191,-4.1191,-4.1191,-4.1191,-4.1191,-4.1191,-4.1191,-4.1191,-4.1191,-4.1191,-4.1191,-4.1191,-4.1191,-4.1191,-4.1103,-4.0988,-4.0864,-4.0864,-4.0847,-4.0789,-4.0742,-4.0731,-4.0715,-4.061,-4.0597,-4.0584,-4.0568,-4.0566,-4.0552,-4.0512,-4.0496,-4.0496,-4.0496,-4.0496,-4.0496,-4.0496,-4.0496,-4.0496,-4.0496,-4.0496,-4.0419,-4.0169,-3.9688,-3.913,-3.8565,-3.7988,-3.7296,-3.6442,-3.6327,-3.6115,-3.5577,-3.55,-3.55,-3.55,-3.5346,-3.5223,-3.5223,-3.486,-3.4607,-3.4607,-3.4534,-3.4349,-3.4093,-3.3902,-3.3807,-3.3807,-3.3807,-3.3807,-3.3807,-3.3807,-3.3807,-3.3807,-3.3807,-3.3807,-3.4186,-3.3564,-3.3103,0.0,0.0,0.0,-3.5308,-3.5558,-3.5605,-3.563,0.0,-3.8892,0.0,0.0,0.0,0.0,0.0,0.0,0.0,0.0,0.0,0.0,0.0,0.0,0.0,0.0,0.0,0.0,0.0,0.0,0.0,0.0,0.0,0.0,0.0,0.0,-4.1191,-4.1191,-4.1191,-4.1191,-4.1191,-4.1191,-4.1191,-4.1191,-4.1191,-4.1191,-4.1191,-4.1191,-4.1191,-4.1191,-4.1191,-4.1191,-4.1191,-4.1126,-4.0996,-4.0996,-4.0917,-4.0801,-4.0801,-4.0801,-4.0801,-4.0797,-4.0797,-4.0796,-4.0729,-4.0697,-4.0667,-4.0537,-4.0504,-4.0504,-4.0496,-4.0496,-4.0496,-4.0496,-4.0496,-4.0496,-4.0496,-4.0496,-4.0246,-3.9457,-3.9284,-3.8719,-3.7,-3.6692,-3.6423,-3.5615,-3.55,-3.55,-3.55,-3.55,-3.55,-3.55,-3.55,-3.55,-3.55,-3.55,-3.55,-3.55,-3.5239,-3.4715,-3.3842,-3.382,-3.3788,-3.3807,-3.3807,-3.3807,-3.3807,-3.3807,-3.3807,-3.3807,-3.3807,-3.3807,-3.3295,-3.3103,0.0,-3.3975,0.0,0.0,0.0,-3.5521,0.0,0.0,0.0,0.0,0.0,0.0,0.0,0.0,0.0,0.0,0.0,0.0,0.0,0.0,0.0,0.0,0.0,0.0,0.0,0.0,0.0,0.0,0.0,0.0,0.0,0.0,0.0,0.0,-4.1191,-4.1191,-4.1191,-4.1191,-4.1191,-4.1191,-4.1191,-4.1191,-4.1191,-4.1191,-4.1191,-4.1191,-4.1191,-4.1191,-4.1191,-4.1191,-4.1191,-4.1171,-4.1149,-4.1149,-4.1126,-4.1076,-4.0964,-4.095,-4.0922,-4.0824,-4.0797,-4.0793,-4.0779,-4.0766,-4.0761,-4.0723,-4.0713,-4.0692,-4.0661,-4.0649,-4.0616,-4.0527,-4.0496,-4.0496,-4.0496,-4.0054,-3.9592,-3.9361,-3.8315,-3.7315,-3.6788,-3.6231,-3.5769,-3.5538,-3.55,-3.55,-3.55,-3.55,-3.55,-3.55,-3.55,-3.55,-3.55,-3.5339,-3.5215,-3.5215,-3.4963,-3.4704,-3.4431,-3.4213,-3.3999,-3.3788,-3.3807,-3.3807,-3.3807,-3.3807,-3.3807,-3.3807,-3.3807,-3.3807,-3.2429,-3.2179,0.0,-3.3391,-3.368,-3.4007,-3.5212,0.0,0.0,0.0,0.0,0.0,0.0,0.0,0.0,0.0,0.0,0.0,0.0,0.0,0.0,0.0,0.0,0.0,0.0,0.0,0.0,0.0,0.0,0.0,0.0,0.0,0.0,0.0,0.0,0.0,-4.1191,-4.1191,-4.1191,-4.1191,-4.1191,-4.1191,-4.1191,-4.1191,-4.1191,-4.1191,-4.1191,-4.1191,-4.1191,-4.1191,-4.1191,-4.1191,-4.1191,-4.1191,-4.1191,-4.1191,-4.1191,-4.1191,-4.1104,-4.108,-4.1076,-4.099,-4.0957,-4.0952,-4.0905,-4.0874,-4.0867,-4.0809,-4.0797,-4.0785,-4.0747,-4.0747,-4.0699,-4.0545,-4.0496,-4.0419,-4.0092,-3.965,-3.9111,-3.8392,-3.743,-3.6596,-3.6269,-3.5827,-3.55,-3.55,-3.55,-3.55,-3.55,-3.55,-3.55,-3.55,-3.55,-3.55,-3.55,-3.5354,-3.5266,-3.5266,-3.5105,-3.4972,-3.4851,-3.4553,-3.4311,-3.416,-3.416,-3.4099,-3.3961,-3.3961,-3.3902,-3.3807,-3.3807,-3.3807,-3.1583,0.0,0.0,-3.2391,-3.291,0.0,-3.5115,-3.55,-3.5731,0.0,0.0,0.0,0.0,0.0,0.0,0.0,0.0,0.0,0.0,0.0,0.0,0.0,0.0,0.0,0.0,0.0,0.0,0.0,0.0,0.0,0.0,0.0,0.0,0.0,0.0,0.0,-4.0937,-4.0937,-4.0957,0.0,-4.0957,-4.0957,-4.0976,-4.1133,-4.1191,-4.1191,-4.1191,-4.1191,-4.1191,-4.1191,-4.1191,-4.1191,-4.1191,-4.1191,-4.1191,-4.1191,-4.1191,-4.1191,-4.1191,-4.1191,-4.1191,-4.1191,-4.1191,-4.1171,-4.1054,-4.1021,-4.0992,-4.087,-4.0847,-4.0824,-4.0816,-4.0813,-4.076,-4.0577,-4.053,-4.0318,-3.9509,-3.9259,-3.8712,-3.7049,-3.6664,-3.6375,-3.5643,-3.5509,-3.5528,-3.5508,-3.5494,-3.55,-3.55,-3.55,-3.55,-3.55,-3.55,-3.55,-3.55,-3.55,-3.55,-3.55,-3.55,-3.5383,-3.5157,-3.4889,-3.4714,-3.4694,-3.4694,-3.4551,-3.4253,-3.4253,-3.4099,-3.3842,-3.3842,-3.3815,-3.0673,-3.0538,0.0,0.0,-3.2949,-3.4199,-3.525,-3.55,-3.5731,0.0,0.0,0.0,0.0,0.0,0.0,0.0,0.0,0.0,0.0,0.0,0.0,0.0,0.0,0.0,0.0,0.0,0.0,0.0,0.0,0.0,0.0,0.0,0.0,0.0,0.0,-3.895,-3.9002,-3.9002,-3.9053,0.0,-3.916,-3.916,-3.9219,-4.0586,-4.1191,-4.1191,-4.1191,-4.1191,-4.1191,-4.1191,-4.1191,-4.1191,-4.1191,-4.1191,-4.1191,-4.1191,-4.1191,-4.1191,-4.1191,-4.1191,-4.1191,-4.1191,-4.1191,-4.1191,-4.1171,-4.115,-4.115,-4.1126,-4.1106,-4.1082,-4.099,-4.0957,-4.0917,-4.076,-4.0743,-4.0529,-3.9709,-3.899,-3.8194,-3.7141,-3.6388,-3.5853,-3.5698,-3.5659,-3.5648,-3.5599,-3.5534,-3.55,-3.55,-3.55,-3.55,-3.55,-3.55,-3.55,-3.55,-3.55,-3.55,-3.55,-3.55,-3.546,-3.5424,-3.5166,-3.4917,-3.4694,-3.4694,-3.4663,-3.4582,-3.4582,-3.4431,-3.4111,-3.4111,-3.4012,-3.0404,0.0,0.0,-3.1487,0.0,-3.4321,-3.4776,-3.5192,0.0,0.0,0.0,0.0,0.0,0.0,0.0,0.0,0.0,0.0,0.0,0.0,0.0,0.0,0.0,0.0,0.0,0.0,0.0,0.0,0.0,0.0,0.0,0.0,0.0,0.0,-3.8293,-3.8312,-3.8349,-3.8349,-3.8395,-3.8508,-3.8475,-3.8477,-3.8547,-3.9511,-3.9961,-3.9961,-3.9961,-4.0195,-4.0586,-4.0586,-4.082,-4.1191,-4.1191,-4.1191,-4.1191,-4.1191,-4.1191,-4.1191,-4.1191,-4.1191,-4.1191,-4.1191,-4.1191,-4.1191,-4.1191,-4.1191,-4.1191,-4.1191,-4.1191,-4.1172,-4.1106,-4.1102,-4.108,-4.1017,-4.061,-3.9996,-3.9159,-3.8284,-3.7412,-3.6552,-3.6011,-3.5707,-3.5707,-3.5707,-3.5689,-3.565,-3.5626,-3.56,-3.56,-3.56,-3.5574,-3.5558,-3.5546,-3.5534,-3.5507,-3.55,-3.55,-3.55,-3.55,-3.55,-3.55,-3.5369,-3.5223,-3.5088,-3.5088,-3.5016,-3.4898,-3.4898,-3.4744,-3.4434,-3.4434,-3.4357,-3.0404,0.0,-3.0615,-3.1487,-3.2737,0.0,-3.3936,-3.4526,0.0,0.0,0.0,0.0,0.0,0.0,0.0,0.0,0.0,0.0,0.0,0.0,0.0,0.0,0.0,0.0,0.0,0.0,0.0,0.0,0.0,0.0,0.0,0.0,-3.7758,-3.7809,-3.7813,-3.7821,-3.7836,-3.7836,-3.7861,-3.7923,-3.7873,-3.7876,-3.7944,-3.8079,-3.83,-3.8594,-3.8594,-3.9004,-3.9687,-3.9687,-4.0098,-4.0742,-4.0742,-4.084,-4.0976,-4.0976,-4.1074,-4.1191,-4.1191,-4.1191,-4.1191,-4.1191,-4.1191,-4.1191,-4.1191,-4.1191,-4.1191,-4.1191,-4.1191,-4.1191,-4.1191,-4.1191,-4.1152,-4.1016,-4.0185,-3.9224,-3.851,-3.7673,-3.6796,-3.5922,-3.5747,-3.5747,-3.5747,-3.5735,-3.5726,-3.5726,-3.5713,-3.5707,-3.5707,-3.5707,-3.5675,-3.5616,-3.5626,-3.56,-3.5547,-3.5528,-3.5528,-3.5528,-3.552,-3.55,-3.55,-3.55,-3.55,-3.55,-3.55,-3.5383,-3.5174,-3.5174,-3.5025,-3.4764,-3.4764,-3.4714,0.0,0.0,-3.0615,0.0,-3.1872,-3.2218,0.0,0.0,0.0,0.0,0.0,0.0,0.0,0.0,0.0,0.0,0.0,0.0,0.0,0.0,0.0,0.0,0.0,0.0,0.0,0.0,0.0,0.0,0.0,0.0,0.0,-3.5868,-3.5862,-3.5869,-3.5869,-3.5898,-3.5951,-3.5951,-3.5996,-3.6054,-3.6044,-3.6044,-3.6077,-3.6202,-3.7118,-3.8594,-3.8594,-3.8672,-3.8769,-3.8769,-3.8848,-3.8945,-3.8945,-3.9414,-4.0078,-4.0078,-4.0547,-4.1191,-4.1191,-4.1191,-4.1191,-4.1191,-4.1191,-4.1191,-4.1191,-4.1191,-4.1191,-4.1191,-4.1191,-4.1191,-4.1191,-4.1191,-4.1016,-4.0254,-3.9394,-3.8708,-3.8591,-3.7888,-3.7009,-3.613,-3.5954,-3.5954,-3.5954,-3.5918,-3.5873,-3.5873,-3.5769,-3.5707,-3.5707,-3.5707,-3.57,-3.5689,-3.5686,-3.5682,-3.5667,-3.5611,-3.5579,-3.5579,-3.5528,-3.55,-3.55,-3.55,-3.55,-3.55,-3.55,-3.5486,-3.5446,-3.5446,-3.5304,-3.5053,-3.5053,-3.4765,-3.0155,-3.0182,-3.0305,0.0,-3.1346,-3.1795,-3.216,0.0,0.0,0.0,0.0,0.0,0.0,0.0,0.0,0.0,0.0,0.0,0.0,0.0,0.0,0.0,0.0,0.0,0.0,0.0,0.0,0.0,0.0,0.0,-3.55,-3.55,-3.55,-3.55,-3.55,-3.5521,-3.554,-3.554,-3.5556,-3.5585,-3.5652,-3.5678,-3.5661,-3.5739,-3.6261,-3.71,-3.7128,-3.7422,-3.7871,-3.7871,-3.8164,-3.8594,-3.8594,-3.8828,-3.918,-3.918,-3.9414,-3.9746,-3.9746,-3.9746,-3.9746,-3.9746,-3.9746,-3.9824,-4.0312,-4.0469,-4.0566,-4.1055,-4.1191,-4.1094,-4.0605,-4.0469,-4.0254,-3.9375,-3.8516,-3.7871,-3.7871,-3.7187,-3.6465,-3.6074,-3.5996,-3.5996,-3.5996,-3.5974,-3.597,-3.597,-3.5901,-3.5872,-3.5872,-3.5872,-3.5843,-3.5812,-3.5807,-3.5772,-3.571,-3.5667,-3.5659,-3.5659,-3.5626,-3.56,-3.555,-3.557,-3.5547,-3.55,-3.55,-3.55,-3.55,-3.55,-3.5439,-3.532,-3.532,-3.5179,0.0,0.0,-2.9977,-3.0241,-3.0785,-3.1296,0.0,0.0,0.0,0.0,0.0,0.0,0.0,0.0,0.0,0.0,0.0,0.0,0.0,0.0,0.0,0.0,0.0,0.0,0.0,0.0,0.0,0.0,0.0,0.0,-3.5481,-3.55,-3.55,-3.55,-3.55,-3.55,-3.55,-3.55,-3.55,-3.55,-3.5591,-3.5616,-3.5577,-3.5638,-3.5726,-3.5824,-3.5924,-3.6345,-3.6951,-3.6953,-3.7344,-3.7949,-3.7949,-3.8066,-3.8262,-3.8262,-3.8418,-3.8594,-3.8594,-3.8594,-3.8594,-3.8594,-3.8594,-3.8711,-3.9375,-3.957,-3.9707,-4.0351,-4.0547,-4.0391,-3.9746,-3.957,-3.9355,-3.8476,-3.7773,-3.7246,-3.7012,-3.6465,-3.5996,-3.5996,-3.5996,-3.5996,-3.5996,-3.5996,-3.5996,-3.5996,-3.5996,-3.5996,-3.5996,-3.5996,-3.5975,-3.5921,-3.5938,-3.5887,-3.5788,-3.5766,-3.5755,-3.5755,-3.5717,-3.5659,-3.5596,-3.5611,-3.5579,-3.5507,-3.55,-3.55,-3.55,-3.55,-3.55,-3.55,-3.55,-3.5453,0.0,-2.9722,0.0,-2.9969,0.0,0.0,0.0,0.0,0.0,0.0,0.0,0.0,0.0,0.0,0.0,0.0,0.0,0.0,0.0,0.0,0.0,0.0,0.0,0.0,0.0,0.0,0.0,0.0,0.0,0.0,-3.5462,-3.55,-3.55,-3.55,-3.55,-3.55,-3.55,-3.55,-3.55,-3.55,-3.552,-3.5501,-3.5501,-3.5571,-3.5606,-3.5626,-3.5819,-3.5924,-3.5986,-3.6032,-3.6094,-3.6133,-3.6133,-3.6641,-3.7363,-3.7363,-3.7891,-3.8594,-3.8594,-3.8594,-3.8594,-3.8594,-3.8594,-3.8613,-3.8652,-3.8672,-3.8672,-3.8711,-3.873,-3.8711,-3.8672,-3.8672,-3.8457,-3.7578,-3.7324,-3.707,-3.625,-3.6035,-3.5996,-3.5996,-3.5996,-3.5996,-3.5996,-3.5996,-3.5996,-3.5996,-3.5996,-3.5996,-3.5996,-3.5996,-3.5996,-3.5996,-3.5996,-3.5996,-3.5976,-3.5921,-3.5898,-3.5898,-3.5766,-3.5659,-3.5596,-3.5611,-3.5579,-3.5507,-3.55,-3.55,-3.55,-3.55,-3.55,-3.55,-3.55,-3.5369,0.0,0.0,0.0,-2.9765,-2.9908,0.0,0.0,0.0,0.0,0.0,0.0,0.0,0.0,0.0,0.0,0.0,0.0,0.0,0.0,0.0,0.0,0.0,0.0,0.0,0.0,0.0,0.0,0.0,0.0,0.0,-3.3814,-3.3833,-3.4083,-3.4641,-3.4661,-3.493,-3.5481,-3.55,-3.55,-3.55,-3.55,-3.55,-3.55,-3.5528,-3.554,-3.5534,-3.565,-3.5735,-3.5772,-3.5889,-3.5942,-3.5945,-3.5975,-3.6191,-3.6465,-3.6465,-3.666,-3.6934,-3.6934,-3.6934,-3.6934,-3.6934,-3.6934,-3.7031,-3.7598,-3.7773,-3.7871,-3.8437,-3.8594,-3.8476,-3.791,-3.7773,-3.7559,-3.668,-3.6465,-3.6387,-3.6074,-3.5996,-3.5996,-3.5996,-3.5996,-3.5996,-3.5996,-3.5996,-3.5996,-3.5996,-3.5996,-3.5996,-3.5996,-3.5996,-3.5996,-3.5996,-3.5996,-3.5996,-3.5996,-3.5975,-3.5952,-3.5952,-3.5884,-3.5786,-3.5675,-3.5616,-3.5579,-3.5507,-3.55,-3.55,-3.55,-3.55,-3.55,-3.55,-3.55,-3.5446,-2.9232,0.0,0.0,0.0,0.0,0.0,0.0,0.0,0.0,0.0,0.0,0.0,0.0,0.0,0.0,0.0,0.0,0.0,0.0,0.0,0.0,0.0,0.0,0.0,0.0,0.0,0.0,0.0,0.0,0.0,-3.2891,-3.2891,-3.316,-3.3744,-3.4052,-3.4468,-3.5064,-3.5346,-3.55,-3.55,-3.55,-3.55,-3.55,-3.55,-3.55,-3.5507,-3.5546,-3.5596,-3.5683,-3.5789,-3.5836,-3.5841,-3.5874,-3.5928,-3.5972,-3.5972,-3.5975,-3.5996,-3.5996,-3.5996,-3.5996,-3.5996,-3.5996,-3.6113,-3.6699,-3.6855,-3.6973,-3.7559,-3.7734,-3.7598,-3.7012,-3.6855,-3.6719,-3.6133,-3.5996,-3.5996,-3.5996,-3.5996,-3.5996,-3.5996,-3.5996,-3.5996,-3.5996,-3.5996,-3.5996,-3.5996,-3.5996,-3.5996,-3.5996,-3.5996,-3.5996,-3.5996,-3.5996,-3.5996,-3.5996,-3.5996,-3.5996,-3.5996,-3.5951,-3.5859,-3.571,-3.5659,-3.559,-3.5507,-3.55,-3.55,-3.55,-3.55,-3.55,-3.55,-3.55,-3.55,0.0,0.0,0.0,0.0,0.0,0.0,0.0,0.0,0.0,0.0,0.0,0.0,0.0,0.0,0.0,0.0,0.0,0.0,0.0,0.0,0.0,0.0,0.0,0.0,0.0,0.0,0.0,0.0,0.0,-3.2006,-3.2776,-3.2852,-3.2852,-3.2852,-3.3705,-3.4167,-3.4167,-3.5007,-3.5442,-3.5462,-3.5462,-3.5481,-3.55,-3.55,-3.55,-3.55,-3.55,-3.554,-3.5596,-3.5679,-3.57,-3.57,-3.5703,-3.5772,-3.588,-3.588,-3.5944,-3.5996,-3.5996,-3.5996,-3.5996,-3.5996,-3.5996,-3.5996,-3.5996,-3.5996,-3.5996,-3.5996,-3.5996,-3.5996,-3.5996,-3.5996,-3.5996,-3.5996,-3.5996,-3.5996,-3.5996,-3.5996,-3.5996,-3.5996,-3.5996,-3.5996,-3.5996,-3.5996,-3.5996,-3.5996,-3.5996,-3.5996,-3.5996,-3.5996,-3.5996,-3.5996,-3.5996,-3.5996,-3.5996,-3.5996,-3.5996,-3.5996,-3.5996,-3.5906,-3.5717,-3.5707,-3.5644,-3.5514,-3.5507,-3.5507,-3.55,-3.55,-3.55,-3.55,-3.55,-3.55,-2.8282,0.0,0.0,0.0,0.0,0.0,0.0,0.0,0.0,0.0,0.0,0.0,0.0,0.0,0.0,0.0,0.0,0.0,0.0,0.0,0.0,0.0,0.0,0.0,0.0,0.0,0.0,0.0,-3.075,-3.0865,-3.1077,-3.1698,-3.2025,-3.2025,-3.2833,-3.3256,-3.3256,-3.3506,-3.3949,-3.4564,-3.4564,-3.4891,-3.55,-3.55,-3.55,-3.55,-3.55,-3.5508,-3.5528,-3.5611,-3.5626,-3.5635,-3.5678,-3.572,-3.5758,-3.5758,-3.5821,-3.5938,-3.5938,-3.5951,-3.5996,-3.5996,-3.5996,-3.5996,-3.5996,-3.5996,-3.5996,-3.5996,-3.5996,-3.5996,-3.5996,-3.5996,-3.5996,-3.5996,-3.5996,-3.5996,-3.5996,-3.5996,-3.5996,-3.5996,-3.5996,-3.5996,-3.5996,-3.5996,-3.5996,-3.5996,-3.5996,-3.5996,-3.5996,-3.5996,-3.5996,-3.5996,-3.5996,-3.5996,-3.5996,-3.5996,-3.5996,-3.5996,-3.5949,-3.591,-3.5843,-3.5758,-3.5663,-3.5571,-3.5566,-3.5552,-3.55,-3.55,-3.55,-3.55,-3.55,-3.55,0.0,0.0,0.0,0.0,0.0,0.0,-2.5764,-2.5892,0.0,0.0,0.0,0.0,0.0,0.0,0.0,0.0,0.0,0.0,0.0,0.0,0.0,0.0,0.0,0.0,0.0,0.0,0.0,0.0,-3.0114,-3.0142,-3.0235,-3.081,-3.1154,-3.1154,-3.1968,-3.241,-3.241,-3.2737,-3.3141,-3.366,-3.366,-3.4103,-3.4968,-3.4968,-3.5154,-3.55,-3.55,-3.55,-3.5507,-3.5534,-3.5556,-3.5562,-3.5591,-3.5635,-3.5659,-3.5659,-3.5723,-3.5814,-3.5875,-3.5938,-3.5951,-3.5951,-3.5975,-3.5996,-3.5972,-3.5975,-3.5996,-3.5996,-3.5996,-3.5996,-3.5996,-3.5996,-3.5996,-3.5996,-3.5996,-3.5996,-3.5996,-3.5996,-3.5996,-3.5996,-3.5996,-3.5996,-3.5996,-3.5996,-3.5996,-3.5996,-3.5996,-3.5996,-3.5996,-3.5996,-3.5996,-3.5996,-3.5996,-3.5996,-3.5996,-3.5996,-3.5996,-3.5996,-3.5952,-3.5939,-3.5903,-3.5814,-3.5736,-3.5633,-3.5616,-3.5574,-3.55,-3.55,-3.55,-3.5481,-3.5141,-3.4968,0.0,0.0,0.0,0.0,0.0,0.0,-2.419,-2.419,-2.419,0.0,0.0,0.0,0.0,0.0,0.0,0.0,0.0,0.0,0.0,0.0,0.0,0.0,0.0,0.0,0.0,0.0,-2.8663,-2.9374,-2.9516,-2.9693,-2.9972,-3.0235,-3.0367,-3.0404,-3.1154,-3.1564,-3.1564,-3.2275,-3.2679,-3.2776,-3.2776,-3.3218,-3.4071,-3.4071,-3.4526,-3.5365,-3.5365,-3.5404,-3.55,-3.55,-3.55,-3.55,-3.55,-3.554,-3.5585,-3.5585,-3.563,-3.57,-3.5827,-3.5869,-3.5875,-3.59,-3.5945,-3.5975,-3.5914,-3.5947,-3.5996,-3.5996,-3.5996,-3.5996,-3.5996,-3.5996,-3.5996,-3.5996,-3.5996,-3.5996,-3.5996,-3.5996,-3.5996,-3.5996,-3.5996,-3.5996,-3.5996,-3.5996,-3.5996,-3.5996,-3.5996,-3.5996,-3.5996,-3.5996,-3.5996,-3.5996,-3.5996,-3.5996,-3.5996,-3.5996,-3.5996,-3.5996,-3.5996,-3.5974,-3.5911,-3.591,-3.5847,-3.572,-3.5644,-3.5516,-3.5365,-3.5365,-3.5365,-3.5327,-3.4449,-3.4071,0.0,0.0,0.0,0.0,0.0,0.0,-2.419,-2.419,-2.419,0.0,0.0,0.0,0.0,0.0,0.0,0.0,0.0,0.0,0.0,0.0,0.0,0.0,0.0,0.0,0.0,0.0,-2.7592,-2.7754,-2.8369,-2.9112,-2.9953,-3.0061,-3.0182,-3.0398,-3.0558,-3.0654,-3.0654,-3.0808,-3.1231,-3.1929,-3.1929,-3.2352,-3.3141,-3.3141,-3.3622,-3.4449,-3.4449,-3.4853,-3.55,-3.55,-3.55,-3.55,-3.55,-3.5501,-3.5515,-3.5515,-3.5562,-3.5611,-3.5654,-3.5687,-3.5761,-3.5869,-3.5908,-3.5913,-3.5905,-3.5947,-3.5996,-3.5996,-3.5996,-3.5996,-3.5996,-3.5996,-3.5996,-3.5996,-3.5996,-3.5996,-3.5996,-3.5996,-3.5996,-3.5996,-3.5996,-3.5996,-3.5996,-3.5996,-3.5996,-3.5996,-3.5996,-3.5996,-3.5996,-3.5996,-3.5996,-3.5996,-3.5996,-3.5996,-3.5996,-3.5996,-3.5996,-3.5996,-3.5996,-3.5996,-3.5975,-3.5975,-3.5948,-3.5869,-3.5682,-3.5212,-3.4449,-3.4449,-3.4449,-3.443,-3.3564,-3.3141,0.0,0.0,0.0,-2.3589,0.0,0.0,0.0,-2.4084,-2.419,0.0,0.0,0.0,0.0,0.0,0.0,0.0,0.0,0.0,0.0,0.0,0.0,0.0,0.0,0.0,0.0,0.0,-2.6533,-2.6925,-2.7416,-2.8093,-2.8997,-2.9169,-2.9543,-3.0177,-3.0095,-3.0155,-3.0404,-3.0267,-3.0497,-3.1058,-3.1058,-3.1487,-3.2295,-3.2295,-3.2756,-3.3545,-3.3545,-3.3795,-3.4237,-3.468,-3.4853,-3.4891,-3.5327,-3.55,-3.55,-3.55,-3.5522,-3.5544,-3.5585,-3.5616,-3.5655,-3.5725,-3.5771,-3.5794,-3.5756,-3.5799,-3.5845,-3.5845,-3.5899,-3.5948,-3.5948,-3.5948,-3.5951,-3.5996,-3.5974,-3.5951,-3.5996,-3.5996,-3.5996,-3.5996,-3.5996,-3.5996,-3.5996,-3.5996,-3.5996,-3.5996,-3.5996,-3.5996,-3.5996,-3.5996,-3.5996,-3.5996,-3.5996,-3.5996,-3.5996,-3.5996,-3.5996,-3.5996,-3.5996,-3.5996,-3.5996,-3.5996,-3.5973,-3.5903,-3.5337,-3.4797,-3.4245,-3.3377,-3.316,-3.3526,-3.2699,-3.2295,0.0,0.0,0.0,0.0,0.0,-2.3599,0.0,0.0,0.0,0.0,0.0,0.0,0.0,0.0,0.0,0.0,0.0,0.0,0.0,0.0,0.0,0.0,0.0,0.0,0.0,0.0,-2.5503,-2.6319,-2.6522,-2.6981,-2.783,-2.8218,-2.8809,-2.968,-2.9745,-2.992,-3.0267,-3.0136,-3.0157,-3.0317,-3.0386,-3.0769,-3.1448,-3.1448,-3.191,-3.2679,-3.2679,-3.2756,-3.2949,-3.366,-3.3955,-3.4052,-3.5096,-3.55,-3.55,-3.55,-3.55,-3.5501,-3.5562,-3.5588,-3.5574,-3.56,-3.5644,-3.5667,-3.5635,-3.5642,-3.5682,-3.57,-3.5772,-3.5869,-3.5869,-3.5875,-3.5911,-3.5973,-3.5948,-3.5922,-3.5995,-3.5996,-3.5996,-3.5996,-3.5996,-3.5996,-3.5996,-3.5996,-3.5996,-3.5996,-3.5996,-3.5996,-3.5996,-3.5996,-3.5996,-3.5996,-3.5996,-3.5996,-3.5996,-3.5996,-3.5996,-3.5996,-3.5996,-3.5996,-3.5996,-3.5996,-3.5895,-3.5648,-3.4895,-3.4283,-3.381,-3.2391,-3.2025,-3.2641,-3.1833,-3.1448,0.0,0.0,0.0,0.0,-2.3009,0.0,0.0,0.0,-2.3403,0.0,0.0,0.0,0.0,0.0,0.0,0.0,0.0,0.0,0.0,0.0,0.0,0.0,0.0,0.0,0.0,0.0,0.0,-2.5485,-2.5551,-2.5993,-2.6982,-2.7746,-2.8305,-2.8658,-2.9502,-2.9908,-2.9782,-3.0155,-3.0254,-3.0054,-3.0292,-3.0442,-3.0558,-3.0558,-3.1019,-3.1833,-3.1833,-3.2237,-3.291,-3.3006,-3.3045,-3.3218,-3.4865,-3.55,-3.55,-3.55,-3.55,-3.55,-3.5508,-3.5515,-3.5522,-3.5588,-3.5601,-3.5611,-3.5663,-3.565,-3.5616,-3.5682,-3.5713,-3.572,-3.572,-3.5807,-3.5903,-3.5908,-3.5948,-3.5996,-3.5996,-3.5996,-3.5996,-3.5996,-3.5996,-3.5996,-3.5996,-3.5996,-3.5996,-3.5996,-3.5996,-3.5996,-3.5996,-3.5996,-3.5996,-3.5996,-3.5996,-3.5996,-3.5996,-3.5996,-3.5996,-3.5996,-3.5996,-3.5996,-3.5996,-3.5996,-3.5602,-3.4768,-3.4581,-3.37,-3.2086,-3.1832,-3.1756,-3.1814,-3.0942,-3.0558,0.0,0.0,0.0,0.0,0.0,0.0,-2.291,0.0,-2.3236,0.0,0.0,0.0,0.0,0.0,0.0,0.0,0.0,0.0,0.0,0.0,0.0,0.0,0.0,0.0,0.0,0.0,0.0,0.0,0.0,-2.5093,-2.5984,-2.6345,-2.7064,-2.823,-2.8559,-2.9045,-2.9686,-2.9784,-2.9826,-2.9829,-2.9935,-3.0059,-3.0182,-3.0182,-3.0446,-3.0942,-3.0942,-3.1135,-3.1481,-3.2006,-3.2199,-3.2314,-3.3526,-3.3987,-3.4045,-3.4564,-3.4757,-3.4814,-3.5327,-3.55,-3.5494,-3.5528,-3.5534,-3.5546,-3.5577,-3.5568,-3.5546,-3.5577,-3.5616,-3.5633,-3.5633,-3.5686,-3.5732,-3.5764,-3.5817,-3.5834,-3.5834,-3.5927,-3.5995,-3.5948,-3.5974,-3.5996,-3.5996,-3.5996,-3.5996,-3.5996,-3.5996,-3.5996,-3.5996,-3.5996,-3.5996,-3.5996,-3.5996,-3.5996,-3.5996,-3.5996,-3.5996,-3.5996,-3.5996,-3.5996,-3.5996,-3.5508,-3.5058,-3.4661,-3.3597,-3.2664,-3.1856,-3.1279,-3.0976,-3.0942,-3.0577,-3.0404,-2.3291,0.0,0.0,0.0,0.0,0.0,0.0,0.0,0.0,0.0,0.0,0.0,0.0,0.0,0.0,0.0,0.0,0.0,0.0,0.0,0.0,0.0,0.0,0.0,0.0,0.0,0.0,0.0,-2.419,0.0,-2.5044,-2.5283,-2.6008,-2.7315,-2.7713,-2.8295,-2.9177,-2.9391,-2.9532,-2.9626,-2.967,-2.9771,-2.9924,-2.9977,-3.0115,-3.0279,-3.0367,-3.0404,-3.0442,-3.1077,-3.1346,-3.1404,-3.1987,-3.2218,-3.2352,-3.343,-3.384,-3.393,-3.4564,-3.4942,-3.5173,-3.5423,-3.55,-3.55,-3.55,-3.55,-3.55,-3.55,-3.5534,-3.5566,-3.5566,-3.5599,-3.5616,-3.5667,-3.5686,-3.5707,-3.5707,-3.5839,-3.5951,-3.5908,-3.5754,-3.5644,-3.5644,-3.5644,-3.5644,-3.5644,-3.5449,-3.5293,-3.5293,-3.5293,-3.5293,-3.5293,-3.5293,-3.5293,-3.5293,-3.5293,-3.5293,-3.5293,-3.5293,-3.5293,-3.5293,-3.4687,-3.4238,-3.4023,-3.2684,-3.1845,-3.1546,-3.0847,-3.0472,-3.0428,-3.0402,-3.0404,0.0,0.0,0.0,-2.2296,0.0,0.0,0.0,0.0,-2.2402,0.0,0.0,0.0,0.0,0.0,0.0,0.0,0.0,0.0,0.0,0.0,0.0,0.0,0.0,0.0,0.0,0.0,0.0,-2.419,-2.419,0.0,-2.4245,-2.497,-2.5439,-2.5486,-2.7174,-2.8009,-2.7857,-2.9073,-2.9598,-2.9404,-2.9616,-2.9705,-2.9722,-2.9916,-3.0006,-3.0021,-3.0299,-3.0404,-3.0404,-3.0423,-3.0442,-3.0442,-3.0462,-3.0481,-3.0673,-3.2333,-3.2949,-3.2949,-3.2968,-3.3545,-3.4379,-3.5231,-3.55,-3.55,-3.55,-3.55,-3.55,-3.55,-3.5507,-3.5507,-3.5507,-3.5558,-3.5591,-3.5596,-3.565,-3.5707,-3.5707,-3.5807,-3.5903,-3.5901,-3.5266,-3.4746,-3.4746,-3.4746,-3.4746,-3.4746,-3.4023,-3.3476,-3.3476,-3.3476,-3.3476,-3.3476,-3.3476,-3.3476,-3.3476,-3.3476,-3.3476,-3.3476,-3.3476,-3.3476,-3.3476,-3.3457,-3.3086,-3.2305,-3.2098,-3.1553,-3.0642,-3.0552,-3.0498,-3.049,-3.0433,-3.0404,0.0,0.0,-2.2296,-2.2296,0.0,0.0,0.0,0.0,0.0,0.0,0.0,0.0,0.0,0.0,0.0,0.0,0.0,0.0,0.0,0.0,0.0,0.0,0.0,0.0,0.0,0.0,0.0,-2.419,-2.419,-2.419,0.0,-2.4456,-2.4842,-2.5374,-2.5989,-2.68,-2.7798,-2.8231,-2.8669,-2.9134,-2.9195,-2.9324,-2.9504,-2.957,-2.9756,-3.0006,-3.0089,-3.0241,-3.0404,-3.0404,-3.0404,-3.0404,-3.0404,-3.0404,-3.0538,-3.1679,-3.2102,-3.2179,-3.2718,-3.3468,-3.4244,-3.4545,-3.5026,-3.55,-3.55,-3.55,-3.55,-3.55,-3.55,-3.55,-3.55,-3.5528,-3.5534,-3.5534,-3.5599,-3.5616,-3.5577,-3.5674,-3.5749,-3.5706,-3.5122,-3.4632,-3.4632,-3.3747,-3.3223,-3.3769,-3.3594,-3.3398,-3.3398,-3.3398,-3.3398,-3.3398,-3.3398,-3.3398,-3.3398,-3.3398,-3.3398,-3.3398,-3.3398,-3.3398,-3.3398,-3.2891,-3.248,-3.2207,-3.1581,-3.1062,-3.0671,-3.0633,-3.0617,-3.0561,-3.0494,-3.0472,-2.2818,-2.2499,0.0,-2.2296,-2.2296,0.0,-2.2296,0.0,0.0,0.0,0.0,0.0,0.0,0.0,0.0,0.0,0.0,0.0,0.0,0.0,0.0,0.0,0.0,0.0,0.0,0.0,-2.4074,-2.419,-2.419,-2.419,0.0,0.0,-2.4438,-2.4952,-2.5246,-2.5888,-2.6935,-2.7523,-2.8062,-2.8583,-2.8858,-2.9089,-2.9257,-2.9361,-2.9533,-2.9788,-2.9861,-3.0032,-3.026,-3.026,-3.0311,-3.0404,-3.0404,-3.0404,-3.0462,-3.1019,-3.1231,-3.1365,-3.2199,-3.2833,-3.341,-3.4013,-3.4584,-3.5103,-3.5404,-3.55,-3.55,-3.55,-3.55,-3.55,-3.55,-3.55,-3.55,-3.55,-3.5528,-3.5538,-3.5508,-3.5579,-3.565,-3.5606,-3.504,-3.4467,-3.4155,-3.3005,-3.2321,-3.289,-3.2715,-3.2519,-3.2519,-3.2519,-3.2519,-3.2519,-3.2519,-3.2519,-3.2519,-3.2519,-3.2519,-3.2519,-3.2519,-3.2519,-3.2519,-3.2012,-3.1875,-3.2187,-3.1348,-3.0993,-3.1165,-3.0851,-3.068,-3.0624,-3.0565,-3.0559]},{"header":{"parameterUnit":"m.s-1","parameterCategory":1,"la1":30.6,"la2":29.2853,"lo1":-89.7004,"lo2":-87.6739,"dy":0.0162,"dx":0.0183,"nx":112,"ny":82,"refTime":"2023-02-22T18:00:00:Z","depth":0,"parameterNumber":3,"parameterNumberName":"V-component_of_WINDS"},"data":[0.0,0.0,0.0,0.0,0.0,0.0,0.0,0.0,0.0,0.0,0.0,0.0,0.0,0.0,0.0,0.0,0.0,0.0,0.0,0.0,0.0,0.0,0.0,0.0,0.0,0.0,0.0,0.0,0.0,0.0,0.0,0.0,0.0,0.0,0.0,0.0,0.0,0.0,0.0,0.0,0.0,0.0,0.0,0.0,0.0,0.0,0.0,0.0,0.0,0.0,0.0,0.0,0.0,0.0,0.0,0.0,0.0,0.0,0.0,0.0,0.0,0.0,0.0,0.0,0.0,0.0,0.0,0.0,0.0,0.0,0.0,0.0,0.0,0.0,0.0,0.0,0.0,0.0,0.0,0.0,0.0,0.0,0.0,0.0,0.0,0.0,0.0,0.0,0.0,0.0,-1.6602,-1.6602,-1.5904,-1.5482,-1.5623,-1.6358,-1.6819,-1.6819,0.0,0.0,0.0,0.0,0.0,0.0,0.0,0.0,0.0,0.0,0.0,0.0,0.0,0.0,0.0,0.0,0.0,0.0,0.0,0.0,0.0,0.0,0.0,0.0,0.0,0.0,0.0,0.0,0.0,0.0,0.0,0.0,0.0,0.0,0.0,0.0,0.0,0.0,0.0,0.0,0.0,0.0,0.0,0.0,0.0,0.0,0.0,0.0,0.0,0.0,0.0,0.0,0.0,0.0,0.0,0.0,0.0,0.0,0.0,0.0,0.0,0.0,0.0,0.0,0.0,0.0,0.0,0.0,0.0,0.0,0.0,0.0,0.0,0.0,0.0,0.0,0.0,0.0,0.0,0.0,0.0,0.0,0.0,0.0,0.0,0.0,0.0,0.0,0.0,0.0,0.0,0.0,0.0,0.0,0.0,0.0,0.0,0.0,0.0,0.0,0.0,0.0,0.0,0.0,-1.6602,-1.6602,-1.6454,-1.6715,-1.751,-1.7725,-1.7794,-1.7794,0.0,0.0,0.0,0.0,0.0,0.0,0.0,0.0,0.0,0.0,0.0,0.0,0.0,0.0,0.0,0.0,0.0,0.0,0.0,0.0,0.0,0.0,0.0,0.0,0.0,0.0,0.0,0.0,0.0,0.0,0.0,0.0,0.0,0.0,0.0,0.0,0.0,0.0,0.0,0.0,0.0,0.0,0.0,0.0,0.0,0.0,0.0,0.0,0.0,0.0,0.0,0.0,0.0,0.0,0.0,0.0,0.0,0.0,0.0,0.0,0.0,0.0,0.0,0.0,0.0,0.0,0.0,0.0,0.0,0.0,0.0,0.0,0.0,0.0,0.0,0.0,0.0,0.0,0.0,0.0,0.0,0.0,0.0,0.0,0.0,0.0,0.0,0.0,0.0,0.0,0.0,0.0,0.0,0.0,0.0,0.0,0.0,0.0,0.0,0.0,0.0,0.0,0.0,-1.7613,-1.7354,-1.7354,-1.7354,-1.7535,-1.7974,-1.8008,-1.8008,-1.8008,-1.8008,0.0,0.0,0.0,0.0,0.0,0.0,0.0,0.0,0.0,0.0,0.0,0.0,0.0,0.0,0.0,0.0,0.0,0.0,0.0,0.0,0.0,0.0,0.0,0.0,0.0,0.0,0.0,0.0,0.0,0.0,0.0,0.0,0.0,0.0,0.0,0.0,0.0,0.0,0.0,0.0,0.0,0.0,0.0,0.0,0.0,0.0,0.0,0.0,0.0,0.0,0.0,0.0,0.0,0.0,0.0,0.0,0.0,0.0,0.0,0.0,0.0,0.0,0.0,0.0,0.0,0.0,0.0,0.0,0.0,0.0,0.0,0.0,0.0,0.0,0.0,0.0,0.0,0.0,0.0,0.0,0.0,0.0,0.0,0.0,0.0,0.0,0.0,0.0,0.0,0.0,0.0,0.0,0.0,0.0,0.0,0.0,0.0,0.0,0.0,0.0,0.0,0.0,-1.8008,-1.8008,-1.8008,-1.8008,-1.8008,-1.8008,-1.8008,-1.8008,-1.8008,-1.8008,0.0,0.0,0.0,0.0,0.0,0.0,0.0,0.0,0.0,0.0,0.0,0.0,0.0,0.0,0.0,0.0,0.0,0.0,0.0,0.0,0.0,0.0,0.0,0.0,0.0,0.0,0.0,0.0,0.0,0.0,0.0,0.0,0.0,0.0,0.0,0.0,0.0,0.0,0.0,0.0,0.0,0.0,0.0,0.0,0.0,0.0,0.0,0.0,0.0,0.0,0.0,0.0,0.0,0.0,0.0,0.0,0.0,0.0,0.0,0.0,0.0,0.0,0.0,0.0,0.0,0.0,0.0,0.0,0.0,0.0,0.0,0.0,0.0,0.0,0.0,0.0,0.0,0.0,0.0,0.0,0.0,0.0,0.0,0.0,0.0,0.0,0.0,0.0,0.0,0.0,0.0,0.0,0.0,0.0,0.0,0.0,0.0,0.0,0.0,0.0,0.0,0.0,-1.8008,-1.8008,-1.8008,-1.8008,-1.8008,-1.8008,-1.8008,-1.8008,-1.8008,-1.8008,0.0,0.0,0.0,0.0,0.0,0.0,0.0,0.0,0.0,0.0,0.0,0.0,0.0,0.0,0.0,0.0,0.0,0.0,0.0,0.0,0.0,0.0,0.0,0.0,0.0,0.0,0.0,0.0,0.0,0.0,0.0,0.0,0.0,0.0,0.0,0.0,0.0,0.0,0.0,0.0,0.0,0.0,0.0,0.0,0.0,0.0,0.0,0.0,0.0,0.0,0.0,0.0,0.0,0.0,0.0,0.0,0.0,0.0,0.0,0.0,0.0,0.0,0.0,0.0,0.0,0.0,0.0,0.0,0.0,0.0,0.0,0.0,0.0,0.0,0.0,0.0,0.0,0.0,0.0,0.0,0.0,0.0,0.0,0.0,0.0,0.0,0.0,0.0,0.0,0.0,0.0,0.0,0.0,0.0,0.0,0.0,0.0,0.0,0.0,0.0,0.0,0.0,-1.8008,-1.8008,0.0,-1.8008,-1.8008,-1.8008,-1.8008,-1.8008,-1.8008,0.0,0.0,0.0,0.0,0.0,0.0,0.0,0.0,0.0,0.0,0.0,0.0,0.0,0.0,0.0,0.0,0.0,0.0,0.0,0.0,0.0,0.0,0.0,0.0,0.0,0.0,0.0,0.0,0.0,0.0,0.0,0.0,0.0,0.0,0.0,0.0,0.0,0.0,0.0,0.0,0.0,0.0,0.0,0.0,0.0,0.0,0.0,0.0,0.0,0.0,0.0,0.0,0.0,0.0,0.0,0.0,0.0,0.0,0.0,0.0,0.0,0.0,0.0,0.0,0.0,0.0,0.0,0.0,0.0,0.0,0.0,0.0,0.0,0.0,0.0,0.0,0.0,0.0,0.0,0.0,0.0,0.0,0.0,0.0,0.0,0.0,0.0,0.0,0.0,0.0,0.0,0.0,0.0,0.0,0.0,0.0,0.0,0.0,0.0,0.0,0.0,0.0,-1.8008,-1.8008,-1.8008,0.0,-1.8008,-1.8008,-1.8008,-1.8008,-1.8008,-1.8008,0.0,0.0,0.0,0.0,0.0,0.0,0.0,0.0,0.0,0.0,0.0,0.0,0.0,0.0,0.0,0.0,0.0,0.0,0.0,0.0,0.0,0.0,0.0,0.0,0.0,0.0,0.0,0.0,0.0,0.0,0.0,0.0,0.0,0.0,0.0,0.0,0.0,0.0,0.0,0.0,0.0,0.0,0.0,0.0,0.0,0.0,0.0,0.0,0.0,0.0,0.0,0.0,0.0,0.0,0.0,0.0,0.0,0.0,0.0,0.0,0.0,0.0,0.0,0.0,0.0,0.0,0.0,0.0,0.0,0.0,0.0,0.0,0.0,0.0,0.0,0.0,0.0,0.0,0.0,0.0,0.0,0.0,0.0,0.0,0.0,0.0,0.0,0.0,0.0,0.0,0.0,0.0,0.0,0.0,0.0,0.0,0.0,0.0,0.0,0.0,0.0,0.0,-1.8008,-1.8008,-1.8008,-1.8008,-1.8008,-1.8008,-1.8008,-1.8008,-1.8008,0.0,0.0,0.0,0.0,0.0,0.0,0.0,0.0,0.0,0.0,0.0,0.0,0.0,0.0,0.0,0.0,0.0,0.0,0.0,0.0,0.0,0.0,0.0,0.0,0.0,0.0,0.0,0.0,0.0,0.0,0.0,0.0,0.0,0.0,0.0,0.0,0.0,0.0,0.0,0.0,0.0,0.0,0.0,0.0,0.0,0.0,0.0,0.0,0.0,0.0,0.0,0.0,0.0,0.0,0.0,0.0,0.0,0.0,0.0,0.0,0.0,0.0,0.0,0.0,0.0,0.0,0.0,0.0,0.0,0.0,0.0,0.0,0.0,0.0,0.0,0.0,0.0,0.0,0.0,0.0,0.0,0.0,0.0,0.0,0.0,0.0,0.0,0.0,0.0,0.0,0.0,0.0,0.0,0.0,0.0,0.0,0.0,0.0,0.0,0.0,0.0,0.0,0.0,-1.8008,-1.8008,-1.8008,-1.8008,-1.8008,-1.8008,-1.8008,-1.8008,-1.8008,-1.8008,0.0,0.0,0.0,0.0,0.0,0.0,0.0,0.0,0.0,0.0,0.0,0.0,0.0,0.0,0.0,0.0,0.0,0.0,0.0,0.0,0.0,0.0,0.0,0.0,0.0,0.0,0.0,0.0,0.0,0.0,0.0,0.0,0.0,0.0,0.0,0.0,0.0,0.0,0.0,0.0,0.0,0.0,0.0,0.0,0.0,0.0,0.0,0.0,0.0,0.0,0.0,0.0,0.0,0.0,0.0,0.0,0.0,0.0,0.0,0.0,0.0,0.0,0.0,0.0,0.0,0.0,0.0,0.0,0.0,0.0,0.0,0.0,0.0,0.0,0.0,0.0,0.0,0.0,0.0,0.0,0.0,0.0,0.0,0.0,0.0,0.0,0.0,0.0,0.0,0.0,0.0,0.0,0.0,0.0,0.0,0.0,0.0,0.0,0.0,0.0,0.0,0.0,-1.8008,-1.8008,-1.8008,-1.8008,-1.8008,-1.8008,-1.8008,-1.8008,-1.8008,-1.8008,0.0,0.0,0.0,0.0,0.0,0.0,0.0,0.0,0.0,0.0,0.0,0.0,0.0,0.0,0.0,0.0,0.0,0.0,0.0,0.0,0.0,0.0,0.0,0.0,0.0,0.0,0.0,0.0,0.0,0.0,0.0,0.0,0.0,0.0,0.0,0.0,0.0,0.0,0.0,0.0,0.0,0.0,0.0,0.0,0.0,0.0,0.0,0.0,0.0,0.0,0.0,0.0,0.0,0.0,0.0,0.0,0.0,0.0,0.0,0.0,0.0,0.0,0.0,0.0,0.0,0.0,0.0,0.0,0.0,0.0,0.0,0.0,0.0,0.0,0.0,0.0,0.0,0.0,0.0,0.0,0.0,0.0,0.0,0.0,0.0,0.0,0.0,0.0,0.0,0.0,0.0,0.0,0.0,0.0,0.0,0.0,0.0,0.0,0.0,0.0,0.0,0.0,-1.8008,-1.8008,-1.8008,-1.8008,-1.8008,-1.8008,-1.8008,-1.8008,-1.8008,-1.8008,0.0,0.0,0.0,0.0,0.0,0.0,0.0,0.0,0.0,0.0,0.0,0.0,0.0,0.0,0.0,0.0,0.0,0.0,0.0,0.0,0.0,0.0,0.0,0.0,0.0,0.0,0.0,0.0,0.0,0.0,0.0,0.0,0.0,0.0,0.0,0.0,0.0,0.0,0.0,0.0,0.0,0.0,0.0,0.0,0.0,0.0,0.0,0.0,0.0,0.0,0.0,0.0,0.0,0.0,0.0,0.0,0.0,0.0,0.0,0.0,-0.7365,0.0,0.0,0.0,0.0,0.0,0.0,0.0,0.0,0.0,0.0,0.0,0.0,0.0,0.0,0.0,0.0,0.0,0.0,0.0,0.0,0.0,0.0,0.0,0.0,0.0,0.0,0.0,0.0,0.0,0.0,0.0,0.0,0.0,0.0,0.0,0.0,0.0,0.0,0.0,0.0,0.0,-1.8008,-1.8008,-1.8008,-1.8008,-1.8008,-1.8008,-1.8008,-1.8008,-1.8008,-1.8008,-1.8008,0.0,0.0,0.0,0.0,0.0,0.0,0.0,0.0,0.0,0.0,0.0,0.0,0.0,0.0,0.0,0.0,0.0,0.0,0.0,0.0,0.0,0.0,0.0,0.0,0.0,0.0,0.0,0.0,0.0,0.0,0.0,0.0,0.0,0.0,0.0,0.0,0.0,0.0,0.0,0.0,0.0,0.0,0.0,0.0,0.0,0.0,0.0,0.0,0.0,0.0,0.0,0.0,0.0,0.0,0.0,0.0,0.0,0.0,0.0,0.0,-0.8084,0.0,0.0,0.0,0.0,0.0,0.0,0.0,0.0,0.0,0.0,0.0,0.0,0.0,0.0,0.0,0.0,0.0,0.0,0.0,0.0,0.0,0.0,0.0,0.0,0.0,0.0,0.0,0.0,0.0,0.0,0.0,0.0,0.0,0.0,0.0,0.0,0.0,0.0,0.0,0.0,-1.8008,-1.8008,-1.8008,-1.8008,-1.8008,-1.8008,-1.8008,-1.8008,-1.8008,-1.8008,-1.8008,0.0,0.0,0.0,0.0,0.0,0.0,0.0,0.0,0.0,0.0,0.0,0.0,0.0,0.0,0.0,0.0,0.0,0.0,0.0,0.0,0.0,0.0,0.0,0.0,0.0,0.0,0.0,0.0,0.0,0.0,0.0,0.0,0.0,0.0,0.0,0.0,0.0,0.0,0.0,0.0,0.0,0.0,0.0,0.0,0.0,0.0,0.0,0.0,0.0,0.0,0.0,0.0,0.0,-0.63,-0.63,-0.63,-0.63,-0.63,-0.6338,-0.7176,-0.7629,-0.7859,0.0,0.0,0.0,0.0,0.0,0.0,0.0,0.0,0.0,0.0,0.0,0.0,0.0,0.0,0.0,0.0,0.0,0.0,0.0,0.0,0.0,0.0,0.0,0.0,0.0,-1.2305,-1.2732,0.0,0.0,0.0,0.0,0.0,0.0,0.0,0.0,0.0,0.0,0.0,0.0,-1.8008,-1.8008,-1.8008,-1.8008,-1.8008,-1.8008,-1.8008,-1.8008,-1.8008,-1.8008,-1.8008,-1.8008,0.0,0.0,0.0,0.0,0.0,0.0,0.0,0.0,0.0,0.0,0.0,0.0,0.0,0.0,0.0,0.0,0.0,0.0,0.0,0.0,0.0,0.0,0.0,0.0,0.0,0.0,0.0,0.0,0.0,0.0,0.0,0.0,-0.4375,-0.4647,0.0,0.0,0.0,0.0,0.0,0.0,0.0,0.0,0.0,0.0,0.0,0.0,0.0,0.0,-0.63,-0.63,-0.63,-0.63,-0.63,-0.63,-0.63,-0.63,-0.63,-0.63,-0.6451,0.0,-0.7821,-0.7936,0.0,0.0,0.0,0.0,0.0,0.0,0.0,0.0,0.0,0.0,0.0,0.0,0.0,0.0,0.0,0.0,0.0,0.0,0.0,0.0,0.0,0.0,-1.2305,-1.2305,-1.2305,-1.2372,0.0,-1.331,-1.4207,-1.5199,0.0,0.0,0.0,0.0,0.0,0.0,0.0,0.0,-1.8008,-1.8008,-1.8008,-1.8008,-1.8008,-1.8008,-1.8008,-1.8008,-1.8008,-1.8008,-1.8008,-1.8008,-1.8008,-1.8008,0.0,0.0,0.0,0.0,0.0,0.0,0.0,0.0,0.0,0.0,0.0,0.0,0.0,0.0,0.0,0.0,0.0,0.0,0.0,0.0,0.0,0.0,0.0,0.0,0.0,0.0,0.0,0.0,0.0,-0.4142,-0.4924,-0.5512,-0.6025,-0.63,0.0,0.0,0.0,0.0,0.0,0.0,0.0,0.0,0.0,-0.63,-0.63,-0.63,-0.63,-0.6378,-0.6419,-0.6419,-0.6508,-0.6508,-0.6508,-0.6508,-0.6508,-0.6508,-0.6508,-0.6787,-0.7169,-0.7021,-0.7817,-0.9097,0.0,0.0,0.0,0.0,0.0,-1.1539,-1.2114,0.0,0.0,0.0,0.0,0.0,0.0,0.0,0.0,0.0,0.0,0.0,0.0,0.0,0.0,-1.2305,-1.2305,-1.2305,-1.2305,-1.2629,-1.32,0.0,-1.47,-1.5332,-1.6419,0.0,0.0,0.0,0.0,0.0,-1.8008,-1.8008,-1.8008,-1.8008,-1.8008,-1.8008,-1.8008,-1.8008,-1.8008,-1.8008,-1.8008,-1.8008,-1.8008,-1.8008,-1.8008,0.0,0.0,0.0,0.0,0.0,0.0,0.0,0.0,0.0,0.0,0.0,0.0,0.0,0.0,0.0,0.0,0.0,0.0,0.0,0.0,0.0,0.0,0.0,0.0,0.0,0.0,0.0,0.0,-0.4924,-0.5395,-0.6222,-0.63,-0.63,0.0,0.0,0.0,0.0,0.0,0.0,-0.63,-0.6334,-0.6354,-0.6354,-0.6392,-0.6412,-0.6412,-0.6518,-0.6569,-0.6573,-0.6647,-0.6702,-0.6702,-0.6702,-0.6702,-0.6702,-0.6702,-0.6702,-0.6681,-0.6504,-0.6969,-0.785,-0.785,-0.843,-0.941,-1.0415,-1.0783,-1.0932,-1.1959,-1.2305,-1.2305,-1.2305,0.0,-1.2305,-1.2305,0.0,0.0,0.0,0.0,-1.2305,-1.2305,0.0,-1.2305,-1.2305,-1.2305,-1.2305,-1.2305,-1.2305,-1.2519,0.0,-1.3738,-1.4557,-1.6,0.0,0.0,0.0,0.0,-1.8008,-1.8008,-1.8008,-1.8008,-1.8008,-1.8008,-1.8008,-1.8008,-1.8008,-1.8008,-1.8008,-1.8008,-1.8008,-1.8008,-1.8008,-1.8008,-1.8008,0.0,0.0,0.0,0.0,0.0,0.0,0.0,0.0,0.0,0.0,0.0,0.0,0.0,0.0,0.0,0.0,0.0,0.0,0.0,0.0,0.0,0.0,0.0,0.0,0.0,0.0,0.0,0.0,0.0,-0.63,-0.63,0.0,0.0,0.0,0.0,-0.63,-0.63,-0.63,-0.63,-0.6426,-0.6501,-0.6501,-0.6603,-0.6678,-0.6678,-0.6685,-0.6688,-0.6688,-0.6698,-0.6702,-0.6702,-0.6702,-0.6702,-0.6702,-0.6702,-0.6702,-0.6698,-0.6685,-0.7193,-0.7992,-0.7992,-0.851,-0.941,-1.0415,-1.0783,-1.0932,-1.1959,-1.2305,-1.2305,-1.2305,-1.2305,-1.2305,-1.2305,-1.2305,0.0,0.0,-1.2305,-1.2305,-1.2305,-1.2305,-1.2305,-1.2305,-1.2305,-1.2305,-1.2305,-1.2305,-1.2298,0.0,-1.3875,-1.5163,-1.5269,0.0,-1.794,-1.7974,-1.8008,-1.8008,-1.8008,-1.8008,-1.8008,-1.8008,-1.8008,-1.8008,-1.8008,-1.8008,-1.8008,-1.8008,-1.8008,-1.8008,-1.8008,-1.8008,-1.8008,-1.8008,-1.8008,0.0,0.0,0.0,0.0,0.0,0.0,0.0,0.0,0.0,0.0,0.0,0.0,0.0,0.0,0.0,0.0,0.0,0.0,0.0,0.0,0.0,0.0,0.0,0.0,0.0,0.0,0.0,0.0,-0.63,-0.63,0.0,-0.63,-0.6381,-0.6436,-0.6436,-0.6528,-0.6542,-0.6542,-0.659,-0.662,-0.662,-0.6671,-0.6702,-0.6702,-0.68,-0.6848,-0.6848,-0.6896,-0.694,-0.694,-0.694,-0.694,-0.694,-0.694,-0.694,-0.694,-0.694,-0.7045,-0.7182,-0.7182,-0.7789,-0.8838,-0.9859,-1.0695,-1.1534,-1.2525,-1.2886,-1.2886,-1.2886,-1.2752,-1.2623,-1.2623,-1.2452,-1.2305,-1.2305,-1.2305,-1.2305,-1.2305,-1.2445,-1.2623,-1.2623,-1.2623,-1.2623,-1.2623,-1.2438,-1.2305,-1.2305,-1.2879,-1.3911,-1.579,-1.6149,-1.662,-1.7828,-1.8008,-1.8008,-1.8008,-1.8008,-1.8008,-1.8008,-1.8008,-1.8008,-1.8008,-1.8008,-1.8008,-1.8008,-1.8008,-1.8008,-1.8008,-1.8008,-1.8008,-1.8008,-1.8008,-1.8008,0.0,0.0,0.0,0.0,0.0,0.0,0.0,0.0,0.0,0.0,0.0,0.0,0.0,0.0,0.0,0.0,0.0,0.0,0.0,0.0,0.0,0.0,0.0,0.0,0.0,0.0,-0.6371,-0.6371,-0.6416,-0.645,-0.645,-0.6535,-0.6549,-0.6549,-0.6644,-0.6702,-0.6702,-0.6749,-0.6776,-0.6776,-0.6824,-0.6848,-0.6848,-0.6906,-0.6957,-0.6957,-0.7051,-0.7095,-0.7095,-0.7095,-0.7095,-0.7095,-0.7095,-0.7095,-0.7095,-0.7095,-0.6984,-0.6844,-0.6797,-0.7439,-0.852,-0.9533,-1.0675,-1.1822,-1.2843,-1.3213,-1.3213,-1.3213,-1.3073,-1.2945,-1.2945,-1.2766,-1.2605,-1.2605,-1.2605,-1.2605,-1.2605,-1.2752,-1.2945,-1.2945,-1.2945,-1.2945,-1.2945,-1.2746,-1.2681,-1.3006,-1.2915,-1.3375,-1.5296,-1.5649,-1.6079,-1.7329,-1.7794,-1.8008,-1.8008,-1.8008,-1.8008,-1.8008,-1.8008,-1.8008,-1.8008,-1.8008,-1.8008,-1.8008,-1.8008,-1.8008,-1.8008,-1.8008,-1.8008,-1.8008,-1.8008,-1.8134,-1.8428,0.0,0.0,0.0,0.0,0.0,0.0,0.0,0.0,0.0,0.0,0.0,0.0,0.0,0.0,0.0,0.0,0.0,0.0,0.0,0.0,0.0,0.0,0.0,-0.6168,-0.6429,-0.6518,-0.6518,-0.661,-0.6702,-0.6702,-0.6705,-0.6709,-0.6709,-0.6712,-0.6715,-0.6715,-0.6854,-0.6893,-0.6893,-0.7024,-0.7095,-0.7095,-0.7095,-0.7095,-0.7095,-0.7095,-0.7095,-0.7095,-0.7095,-0.7095,-0.7095,-0.7095,-0.7095,-0.7095,-0.7095,-0.7095,-0.7082,-0.6947,-0.7509,-0.8541,-0.9512,-1.0616,-1.1806,-1.2829,-1.3154,-1.32,-1.324,-1.3233,-1.3227,-1.3227,-1.322,-1.3213,-1.3213,-1.3213,-1.3213,-1.3213,-1.322,-1.3227,-1.3227,-1.3227,-1.3227,-1.3227,-1.322,-1.3476,-1.4382,-1.4096,-1.3702,-1.3775,-1.533,-1.6603,-1.6638,-1.7436,0.0,-1.8037,-1.8027,-1.8027,-1.8008,-1.8008,-1.8008,-1.8008,-1.8008,-1.8008,-1.8008,-1.8008,-1.8008,-1.8008,-1.8008,-1.8008,-1.8008,-1.8008,-1.8428,-1.9299,0.0,0.0,0.0,0.0,0.0,0.0,0.0,0.0,0.0,0.0,0.0,0.0,0.0,0.0,0.0,0.0,0.0,0.0,0.0,0.0,0.0,0.0,-0.525,-0.6298,-0.6542,-0.6637,-0.6637,-0.6675,-0.6702,-0.6702,-0.68,-0.6865,-0.6865,-0.6916,-0.6974,-0.6974,-0.7014,-0.7038,-0.7038,-0.7075,-0.7095,-0.7095,-0.7095,-0.7095,-0.7095,-0.7095,-0.7095,-0.7095,-0.7095,-0.7095,-0.7095,-0.7095,-0.7095,-0.7095,-0.7095,-0.7095,-0.7092,-0.7055,-0.7748,-0.8777,-0.9073,-0.9923,-1.1069,-1.2164,-1.2547,-1.2678,-1.3585,-1.3701,-1.3487,-1.3487,-1.3333,-1.3213,-1.3213,-1.3213,-1.3213,-1.3213,-1.3327,-1.3487,-1.3487,-1.3487,-1.3487,-1.3487,-1.336,-1.3286,-1.3509,-1.3457,-1.3789,-1.5114,-1.5893,-1.657,-1.7295,-1.8269,0.0,-1.8471,-1.8432,-1.8315,-1.8047,-1.8008,-1.8008,-1.8008,-1.8008,-1.8008,-1.8008,-1.8008,-1.8008,-1.8008,-1.8008,-1.8008,-1.8008,-1.8008,-1.8428,0.0,0.0,0.0,0.0,0.0,0.0,0.0,0.0,0.0,0.0,0.0,0.0,0.0,0.0,0.0,0.0,0.0,0.0,0.0,0.0,0.0,0.0,-0.5007,-0.5956,-0.6579,-0.6742,-0.6797,-0.6797,-0.6848,-0.6885,-0.6885,-0.6923,-0.6974,-0.6974,-0.7051,-0.7095,-0.7095,-0.7095,-0.7095,-0.7095,-0.7095,-0.7095,-0.7095,-0.7095,-0.7095,-0.7095,-0.7095,-0.7095,-0.7095,-0.7095,-0.7095,0.0,-0.7095,-0.7095,-0.7095,-0.7095,-0.7095,0.0,0.0,0.0,0.0,0.0,-1.0009,-1.0783,-1.1895,-1.2285,-1.2504,-1.3688,-1.3968,-1.3828,-1.3828,-1.3714,-1.3581,-1.3581,-1.3581,-1.3581,-1.3581,-1.3701,-1.3828,-1.3828,-1.3828,-1.3828,-1.3828,-1.3701,-1.3581,-1.3581,0.0,0.0,-1.5597,-1.6041,-1.6569,-1.7626,-1.8645,-1.9199,0.0,-1.887,-1.875,-1.8286,-1.8237,-1.8169,-1.8027,-1.8008,0.0,0.0,0.0,-1.8008,-1.8008,-1.8008,0.0,0.0,0.0,-1.8236,0.0,0.0,0.0,0.0,-2.1006,-2.1711,0.0,0.0,0.0,0.0,0.0,0.0,0.0,0.0,0.0,0.0,0.0,0.0,0.0,0.0,0.0,0.0,-0.6108,-0.6889,-0.6906,-0.691,-0.691,-0.691,-0.7021,-0.7095,-0.7095,-0.7095,-0.7095,-0.7095,-0.7095,-0.7095,-0.7095,0.0,0.0,0.0,0.0,-0.7095,-0.7095,-0.7095,-0.7095,-0.7095,-0.7095,-0.7095,-0.7095,-0.7095,-0.7095,-0.7095,-0.7095,-0.7095,-0.7095,-0.7095,-0.7095,-0.7095,-0.7095,-0.7753,-0.8803,-0.9836,-1.0221,0.0,0.0,0.0,0.0,-1.3688,-1.4088,-1.4088,-1.4088,-1.4088,-1.4088,-1.4088,-1.4088,-1.4088,-1.4088,-1.4088,-1.4088,-1.4088,-1.4088,-1.4088,-1.4088,-1.4088,-1.4088,-1.4088,-1.4088,-1.4454,-1.5538,-1.6039,-1.6704,-1.7836,-1.8824,0.0,-1.9365,-1.9355,-1.9189,-1.8724,0.0,0.0,-1.8115,-1.8037,-1.8008,-1.8008,-1.8008,-1.8008,-1.8008,-1.8008,-1.8008,-1.8008,-1.8008,-1.8008,-1.8008,-1.8008,-1.8008,-1.8076,-2.059,-2.1753,0.0,0.0,0.0,0.0,0.0,0.0,0.0,0.0,0.0,0.0,0.0,0.0,0.0,0.0,0.0,-0.5137,-0.6215,-0.6927,-0.7041,-0.7055,-0.7055,-0.7055,-0.7082,-0.7095,-0.7095,-0.7095,-0.7095,-0.7095,-0.7095,-0.7095,-0.7095,-0.7095,0.0,-0.7095,-0.7095,-0.7095,-0.7095,-0.7095,-0.7095,-0.7095,0.0,0.0,-0.7095,-0.7095,-0.7095,-0.7095,-0.7095,-0.7095,-0.7095,-0.7095,-0.7095,-0.7095,-0.7095,-0.7228,-0.7489,-0.7705,-0.7793,-0.8097,-1.0216,-1.0907,-1.13,-1.3392,-1.4088,-1.4088,-1.4088,-1.4088,0.0,-1.4088,-1.4088,-1.4088,-1.4088,-1.4088,-1.4088,-1.4088,-1.4088,-1.4088,-1.4088,-1.4088,-1.4088,-1.4088,-1.4088,-1.4454,-1.5538,-1.6482,-1.7487,-1.8614,-1.9686,-2.0233,-1.9834,-1.9795,-1.9629,-1.9209,-1.8848,-1.8568,-1.849,-1.8203,-1.8008,-1.8008,-1.8008,-1.8008,-1.8008,-1.8008,-1.8008,-1.8008,-1.8008,-1.8008,-1.8008,-1.8008,-1.8008,-1.8042,-1.9944,-2.0846,0.0,0.0,0.0,0.0,0.0,0.0,0.0,0.0,0.0,0.0,0.0,-0.0539,0.0,0.0,-0.3859,-0.517,-0.5804,-0.6177,-0.6239,-0.6248,-0.6473,-0.7051,-0.7095,-0.7095,-0.7095,-0.7095,-0.7095,-0.7095,-0.7095,-0.7095,-0.7095,-0.7095,-0.7095,-0.7095,-0.7095,-0.7095,-0.7095,-0.7095,-0.7095,-0.7095,-0.7095,-0.7095,-0.7095,-0.7095,-0.7095,-0.7095,-0.7095,-0.7095,-0.7095,-0.7095,-0.7095,-0.7095,-0.7095,-0.7095,-0.7183,-0.7797,-0.8017,-0.8317,-1.0649,-1.1466,-1.1729,-1.3519,-1.4088,-1.4088,-1.4088,-1.4088,-1.4088,-1.4088,-1.4088,-1.4088,-1.4088,-1.4088,-1.4088,-1.4088,-1.4088,-1.4088,-1.4088,-1.4088,-1.4088,-1.4088,-1.4088,-1.4454,-1.5538,-1.615,-1.709,-1.8758,-1.9441,-1.9925,-2.0225,-2.0244,-2.0078,-1.9648,-1.9404,-1.9065,-1.8637,-1.8217,-1.8008,-1.8008,-1.8008,-1.8008,-1.8008,-1.8008,-1.8008,-1.8008,-1.8008,-1.8008,-1.8008,-1.8008,-1.8008,-1.8042,-1.9332,-1.9944,0.0,0.0,0.0,0.0,0.0,0.0,0.0,0.0,0.0,0.0,0.0,-0.0681,-0.2851,-0.3261,-0.3638,-0.4854,-0.5045,-0.5134,-0.5359,-0.5403,-0.5805,-0.6962,-0.7095,-0.7095,-0.7095,-0.7095,-0.7095,-0.7095,-0.7095,-0.7095,-0.7095,-0.7095,-0.7095,-0.7095,-0.7125,-0.7139,-0.7139,-0.7169,-0.7186,-0.7186,-0.7186,-0.7186,-0.7186,-0.7186,-0.7186,-0.7183,-0.7152,-0.7125,-0.7095,-0.7095,-0.7095,-0.7095,-0.7095,-0.7095,-0.7228,-0.8193,-0.8715,-0.9192,-1.1257,-1.2109,-1.2504,-1.3688,-1.4088,-1.4088,-1.4088,-1.4088,-1.4088,-1.4088,-1.4088,-1.4088,-1.4088,-1.4088,-1.4088,-1.4088,-1.4088,-1.4088,-1.4088,-1.4088,-1.4088,-1.4088,-1.4088,-1.437,-1.5255,-1.5379,-1.615,-1.835,-1.8877,-1.9313,-2.0167,-2.0479,-2.0468,-2.0078,-1.9961,-1.9563,-1.8792,-1.8379,-1.8135,-1.8135,-1.8057,-1.8008,-1.8008,-1.8008,-1.8008,-1.8008,-1.8008,-1.8008,-1.8008,-1.8008,-1.8008,-1.8008,-1.8721,-1.9144,0.0,0.0,0.0,0.0,0.0,0.0,0.0,0.0,0.0,0.0,0.0,-0.039,-0.1734,-0.1981,-0.2408,-0.3614,-0.3792,-0.4194,-0.527,-0.5403,-0.5805,-0.6962,-0.7095,-0.7095,-0.7095,-0.7095,-0.7095,-0.7095,-0.7095,-0.7095,-0.7095,-0.7095,-0.7095,-0.7095,-0.7275,-0.7346,-0.7346,-0.7478,-0.755,-0.755,-0.755,-0.755,-0.755,-0.755,-0.755,-0.7543,-0.7404,-0.7268,-0.7095,-0.7095,-0.7095,-0.7095,-0.7095,-0.7095,-0.7095,-0.7272,-0.7969,-0.9065,-1.0351,-1.1466,-1.2504,-1.3688,-1.4088,-1.4088,-1.4088,-1.4088,-1.4088,-1.4088,-1.4088,-1.4088,-1.4088,-1.4088,-1.4088,-1.4088,-1.4088,-1.4088,-1.4088,-1.4088,-1.4088,-1.4088,-1.4088,-1.413,-1.425,-1.4292,-1.5026,-1.718,-1.835,-1.9036,-1.9155,-2.0001,-2.0586,-2.0537,-2.0146,-1.9727,-1.9258,-1.8818,-1.8529,-1.8529,-1.8213,-1.8008,-1.8008,-1.8008,-1.8008,-1.8008,-1.8008,-1.8008,-1.8008,-1.8008,-1.8008,-1.8008,-1.811,-1.8563,0.0,0.0,0.0,0.0,0.0,0.0,0.0,0.0,0.0,0.0,0.0,-0.0355,-0.159,-0.1779,-0.1969,0.0,-0.2547,-0.2994,-0.4194,-0.4374,-0.5041,-0.6871,-0.7095,-0.7095,-0.7095,-0.7095,-0.7095,-0.7095,-0.7224,-0.7275,-0.7275,-0.736,-0.7407,-0.7407,-0.7472,-0.7506,-0.7506,-0.7567,-0.76,-0.76,-0.76,-0.76,-0.76,-0.76,-0.76,-0.7597,-0.7533,-0.7417,-0.7275,-0.7275,-0.7221,-0.7095,-0.7095,-0.7095,-0.7183,-0.7885,-0.8882,-1.0053,-1.1171,-1.2382,-1.3428,-1.3955,-1.4088,-1.4088,-1.4088,-1.4088,-1.4088,-1.4088,-1.4088,-1.4088,-1.4088,-1.4088,-1.4088,-1.4088,-1.4088,-1.4088,-1.4088,-1.4088,-1.4088,-1.4088,-1.4088,-1.4088,-1.4088,-1.4088,-1.4412,-1.5311,-1.6363,-1.7528,-1.8838,-1.9402,-1.9923,-2.0518,-2.0176,-1.9844,-1.9668,-1.9258,-1.887,-1.8617,-1.8432,-1.8227,-1.8018,-1.8008,-1.8008,-1.8008,-1.8008,-1.8008,-1.8008,-1.8008,-1.8008,-1.8018,-1.8227,-1.8542,0.0,0.0,0.0,0.0,0.0,0.0,0.0,0.0,0.0,0.0,0.0,-0.0269,-0.1121,-0.1299,-0.1299,-0.1299,-0.1299,-0.1835,-0.3392,-0.3614,-0.4469,-0.6882,-0.7204,-0.7176,-0.7216,-0.7146,-0.7112,-0.72,-0.7309,-0.7436,-0.7434,-0.7539,-0.76,-0.76,-0.7638,-0.7658,-0.7658,-0.7699,-0.7723,-0.7723,-0.7723,-0.7723,-0.7723,-0.7723,-0.7699,-0.7658,-0.7658,-0.7573,-0.7431,-0.7436,-0.7305,-0.72,-0.7112,-0.7095,-0.7183,-0.8101,-0.9144,-1.0265,-1.108,-1.2339,-1.3603,-1.3603,-1.3822,-1.4088,-1.4088,-1.4088,-1.4088,-1.4088,-1.4088,-1.4088,-1.4088,-1.4088,-1.4088,-1.4088,-1.4088,-1.4088,-1.4088,-1.4088,-1.4088,-1.4088,-1.4088,-1.4088,-1.4088,-1.4088,-1.4088,-1.4088,-1.4776,-1.5944,-1.7859,-1.863,-1.9323,-2.0079,-2.012,-2.0088,-2.0088,-1.9707,-1.9326,-1.8968,-1.8734,-1.8461,-1.8159,-1.8076,-1.8008,-1.8008,-1.8008,-1.8008,-1.8008,-1.8125,-1.8184,-1.8193,-1.8588,-1.8841,0.0,0.0,0.0,0.0,0.0,0.0,0.0,0.0,0.0,0.0,0.0,0.0,-0.0045,-0.0045,-0.0045,-0.0045,-0.0045,-0.0897,-0.326,-0.3614,-0.454,-0.707,-0.7409,-0.7421,0.0,-0.727,-0.7204,-0.7353,-0.7415,-0.7438,-0.7587,-0.7597,-0.76,-0.76,-0.7733,-0.7804,-0.7804,-0.7901,-0.7975,-0.7975,-0.7975,-0.7975,-0.7975,-0.7975,-0.7894,-0.7804,-0.7804,-0.7726,-0.7584,-0.7434,-0.7412,-0.735,-0.7156,-0.7095,-0.7095,-0.7139,-0.7929,-0.8978,-0.8978,-1.0481,-1.237,-1.237,-1.316,-1.4088,-1.4088,-1.4088,-1.4088,-1.4088,-1.4088,-1.4088,-1.4088,-1.4088,-1.4088,-1.4088,-1.4088,-1.4088,-1.4088,-1.4088,-1.4088,-1.4088,-1.4088,-1.4088,-1.4088,-1.4088,-1.4088,-1.4088,-1.413,-1.4531,-1.5662,-1.7649,-1.8997,-1.9045,-1.9952,-2.0586,-2.0586,-2.0146,-1.9893,-1.9873,-1.9056,-1.8598,-1.8588,-1.8223,-1.8008,-1.8008,-1.8008,-1.8008,-1.8008,-1.8383,-1.8588,-1.8588,-1.9062,-1.9482,0.0,0.0,0.0,0.0,0.0,0.0,0.0,0.0,0.0,0.0,0.0,0.0,0.0,0.0,0.0,0.0,0.0,-0.0584,-0.2191,-0.3163,-0.434,-0.603,-0.6993,0.0,0.0,0.0,0.0,-0.7519,-0.7611,-0.7685,-0.7736,-0.7834,-0.7843,-0.7843,-0.7887,-0.7914,-0.7914,-0.7965,-0.7988,-0.7988,-0.7988,-0.7988,-0.7988,-0.7988,-0.7961,-0.7914,-0.7914,-0.7879,-0.7729,-0.7584,-0.7461,-0.7402,-0.72,-0.7095,-0.7095,-0.7095,-0.736,-0.7841,-0.8627,-0.9879,-1.13,-1.2066,-1.2589,-1.3069,-1.3864,-1.4088,-1.4088,-1.4088,-1.4088,-1.4088,-1.4088,-1.4088,-1.4088,-1.4088,-1.4088,-1.4088,-1.4088,-1.4088,-1.4088,-1.4088,-1.4088,-1.4088,-1.4088,-1.4088,-1.4088,-1.4088,-1.4692,-1.5296,-1.5655,-1.6968,-1.7868,-1.7868,-1.8868,-1.952,-1.952,-2.0033,-2.0225,-1.9932,-1.9602,-1.9192,-1.8627,-1.8461,-1.8256,-1.8018,-1.8247,-1.8393,-1.8393,-1.8857,-1.9072,-1.9082,-1.9502,-1.9775,0.0,0.0,0.0,0.0,0.0,0.0,0.0,0.0,0.0,0.0,0.0,0.0,0.0,0.0,0.0,0.0,0.0,-0.0404,-0.1612,-0.2549,-0.3557,-0.4791,-0.6161,-0.6974,0.0,0.0,0.0,-0.7678,-0.776,-0.7834,-0.7889,-0.7938,-0.7988,-0.7988,-0.7988,-0.7988,-0.7988,-0.7988,-0.7988,-0.7988,-0.7988,-0.7988,-0.7988,-0.7988,-0.7988,-0.7988,-0.7988,-0.7934,-0.7879,-0.7682,-0.7543,-0.7434,-0.7176,-0.7095,-0.7095,-0.7095,-0.7095,-0.7228,-0.7973,-0.9013,-1.0091,-1.0869,-1.1643,-1.2456,-1.3209,-1.3779,-1.4088,-1.4088,-1.4088,-1.4088,-1.4088,-1.4088,-1.4088,-1.4088,-1.4088,-1.4088,-1.4088,-1.4088,-1.4088,-1.4088,-1.4088,-1.4088,-1.4088,-1.4088,-1.4088,-1.4088,-1.4699,-1.5137,-1.5137,-1.6075,-1.6723,-1.6723,-1.7738,-1.8559,-1.8957,-1.9638,-2.0042,-2.0128,-2.0,-1.9668,-1.9085,-1.8909,-1.874,-1.8477,-1.873,-1.8867,-1.8867,-1.9297,-1.9512,-1.9521,-1.9951,-2.0146,0.0,0.0,0.0,0.0,0.0,0.0,0.0,0.0,0.0,0.0,0.0,0.0,0.0,0.0,0.0,0.0,0.0,-0.0404,-0.1567,-0.1779,-0.2281,0.0,0.0,0.0,0.0,0.0,0.0,-0.7834,0.0,-0.7885,-0.7982,-0.7988,-0.7988,-0.7988,-0.7988,-0.7988,-0.7988,-0.7988,-0.7988,-0.7988,-0.7988,-0.7988,-0.7988,-0.7988,-0.7988,-0.7988,-0.7988,-0.7985,-0.7958,-0.7719,-0.7594,-0.7556,-0.7213,-0.7095,-0.7095,-0.7095,-0.7095,-0.7095,-0.7095,-0.7841,-0.8803,-0.889,-1.0351,-1.2151,-1.2242,-1.3118,-1.3997,-1.4088,-1.4088,-1.4088,-1.4088,-1.4088,-1.4088,-1.4088,-1.4088,-1.4088,-1.4088,-1.4088,-1.4088,-1.4088,-1.4088,-1.4088,-1.4088,-1.4088,-1.4088,-1.4088,-1.4088,-1.4088,-1.4088,-1.4977,-1.5621,-1.5621,-1.656,-1.7666,-1.8758,-1.8917,-1.9441,-2.044,-2.0138,-1.9941,-1.9912,-1.9531,-1.9307,-1.9287,-1.9307,-1.9316,-1.9316,-1.9746,-1.9951,-1.9961,-2.041,-2.0605,0.0,0.0,0.0,0.0,0.0,0.0,0.0,0.0,0.0,0.0,0.0,0.0,0.0,0.0,0.0,0.0,0.0,0.0,-0.0404,-0.1341,0.0,-0.2424,0.0,-0.4843,-0.5874,-0.6331,0.0,0.0,-0.7931,-0.7948,-0.7988,-0.7988,-0.7988,-0.7988,-0.7988,-0.7988,-0.7988,-0.7988,-0.7988,-0.7988,-0.7988,-0.7988,-0.7988,-0.7988,-0.7988,-0.7988,-0.7988,-0.7924,-0.7855,-0.7675,-0.7533,-0.7411,-0.7173,-0.7095,-0.7095,-0.7095,-0.7095,-0.7095,-0.7095,-0.7316,-0.7709,-0.8627,-0.9279,-1.0096,-1.1766,-1.2498,-1.2942,-1.3864,-1.4088,-1.4088,-1.4088,-1.4088,-1.4088,-1.4088,-1.4088,-1.4088,-1.4088,-1.4088,-1.4088,-1.4088,-1.4088,-1.4088,-1.4088,-1.4088,-1.4088,-1.4088,-1.4088,-1.4088,-1.4088,-1.4328,-1.4496,-1.4496,-1.5462,-1.6232,-1.6511,-1.806,-1.9116,-1.9402,-2.0062,-2.0254,-1.9922,-1.9814,-1.9609,-1.9297,-1.959,-1.9756,-1.9756,-2.0185,-2.0439,-2.0439,-2.0546,-2.0605,0.0,0.0,0.0,0.0,0.0,0.0,0.0,0.0,0.0,0.0,0.0,0.0,0.0,0.0,0.0,0.0,0.0,0.0,0.0,-0.0651,-0.1143,0.0,-0.2311,0.0,-0.4171,-0.4772,-0.5675,0.0,-0.7686,-0.7988,-0.7988,-0.7988,-0.7988,-0.7988,-0.7988,-0.7988,-0.7988,-0.7988,-0.7988,-0.7988,-0.7988,-0.7988,-0.7988,-0.7988,-0.7988,-0.7985,0.0,-0.7889,-0.7794,-0.7587,-0.7448,-0.7402,-0.72,-0.7095,-0.7095,-0.7095,-0.7095,-0.7095,-0.7095,-0.7095,-0.7228,-0.7885,-0.8452,-0.9148,-1.0438,-1.1171,-1.1815,-1.2991,-1.3294,-1.3428,-1.3955,-1.4088,-1.4088,-1.4088,-1.4088,-1.4088,-1.4088,-1.4088,-1.4088,-1.4088,-1.4088,-1.4088,-1.4088,-1.4088,-1.4088,-1.4088,-1.4088,-1.4088,-1.4088,-1.4088,-1.4088,-1.4088,-1.4657,-1.5179,-1.5662,-1.6838,-1.7738,-1.823,-1.9274,-1.9779,-1.9543,-1.9966,-2.0088,-1.9891,-2.0078,-2.0195,-2.0195,-2.0488,-2.0605,-2.0605,-2.0605,-2.0605,0.0,0.0,0.0,0.0,0.0,0.0,0.0,0.0,0.0,0.0,0.0,0.0,0.0,0.0,0.0,0.0,0.0,0.0,0.0,0.0,0.0,0.0,-0.1034,-0.1812,-0.1963,-0.3065,-0.4268,-0.5627,-0.683,-0.7637,-0.7988,-0.7988,-0.7988,-0.7988,-0.7988,-0.7988,-0.7988,-0.7988,-0.7988,-0.7988,-0.7988,-0.7988,-0.7988,-0.7988,-0.7978,-0.7951,0.0,0.0,-0.7733,-0.7478,-0.7405,-0.7326,-0.7149,-0.7095,-0.7095,-0.7095,-0.7095,-0.7095,-0.7095,-0.7095,-0.7095,-0.7095,-0.7797,-0.8671,-0.8846,-0.9579,-1.0654,-1.1943,-1.2285,-1.2589,-1.3779,-1.4088,-1.4088,-1.4088,-1.4088,-1.4088,-1.4088,-1.4088,-1.4088,-1.4088,-1.4088,-1.4088,-1.4088,-1.4088,-1.4088,-1.4088,-1.4088,-1.4088,-1.4088,-1.4088,-1.4088,-1.4088,-1.4088,-1.4489,-1.5421,-1.5621,-1.6108,-1.7009,-1.8149,-1.8838,-1.8997,-1.9883,-2.044,-2.0605,-2.0605,-2.0605,-2.0605,-2.0605,-2.0605,-2.0605,-2.0605,-2.0605,0.0,0.0,0.0,0.0,0.0,0.0,0.0,0.0,0.0,0.0,0.0,0.0,0.0,0.0,0.0,0.0,0.0,0.0,0.0,0.0,0.0,0.0,-0.0197,-0.0807,0.0,0.0,0.0,0.0,0.0,-0.5672,-0.7889,-0.7988,-0.7988,-0.7988,-0.7988,-0.7988,-0.7988,-0.7988,-0.7988,-0.7988,-0.7988,-0.7988,-0.7988,-0.7988,-0.7921,-0.7848,0.0,0.0,-0.7444,-0.7439,-0.7295,-0.7132,-0.7105,-0.7095,-0.7095,-0.7095,-0.7095,-0.7095,-0.7095,-0.7095,-0.7095,-0.7095,-0.7228,-0.7577,-0.8584,-0.9021,-0.9623,-1.1724,-1.2285,-1.2589,-1.3779,-1.4088,-1.4088,-1.4088,-1.4088,-1.4088,-1.4088,-1.4088,-1.4088,-1.4088,-1.4088,-1.4088,-1.4088,-1.4088,-1.4088,-1.4088,-1.4088,-1.4088,-1.4088,-1.4088,-1.4088,-1.4088,-1.4088,-1.4166,-1.437,-1.5171,-1.5786,-1.5985,-1.7009,-1.8029,-1.8957,-1.9195,-1.9678,-2.0566,-2.0605,-2.0605,-2.0605,-2.0605,-2.0605,-2.0605,-2.0605,-2.0605,0.0,0.0,0.0,0.0,0.0,0.0,0.0,0.0,0.0,0.0,0.0,0.0,0.0,0.0,0.0,0.0,0.0,0.0,0.0,0.0,0.0,0.0,0.0,-0.0249,0.0,0.0,0.0,0.0,0.0,-0.4119,-0.683,-0.7637,-0.7988,-0.7988,-0.7988,-0.7988,-0.7988,-0.7988,-0.7988,-0.7988,-0.7988,-0.7948,-0.7919,-0.7919,-0.7841,-0.7695,-0.7617,0.0,-0.7409,-0.7285,-0.7207,-0.7095,-0.7095,-0.7095,-0.7095,-0.7095,-0.7095,-0.7095,-0.7095,-0.7095,-0.7095,-0.7095,-0.7095,-0.7228,-0.7797,-0.7973,-0.8317,-1.0048,-1.0524,-1.0956,-1.2729,-1.316,-1.3336,-1.3955,-1.4088,-1.4088,-1.4088,-1.4088,-1.4088,-1.4088,-1.4088,-1.4088,-1.4088,-1.4088,-1.4088,-1.4088,-1.4088,-1.4088,-1.4088,-1.4088,-1.4088,-1.4088,-1.4088,-1.4088,-1.4088,-1.4573,-1.4859,-1.4859,-1.5869,-1.6723,-1.7245,-1.839,-1.9244,-1.9766,-2.0323,-2.0605,-2.0605,-2.0605,-2.0605,-2.0605,-2.0605,-2.0605,0.0,0.0,0.0,0.0,0.0,0.0,0.0,0.0,0.0,0.0,0.0,0.0,0.0,0.0,0.0,0.0,0.0,0.0,0.0,0.0,0.0,0.0,0.0,0.0,0.0,0.0,0.0,0.0,0.0,0.0,-0.5425,-0.6578,-0.7129,-0.7129,-0.7434,-0.7587,-0.7587,-0.7839,-0.7988,-0.7988,-0.7958,-0.7877,-0.7811,-0.778,-0.7689,-0.7543,-0.7424,0.0,0.0,-0.7146,-0.7095,-0.7095,-0.7095,-0.7095,-0.7095,-0.7095,-0.7095,-0.7095,-0.7095,-0.7095,-0.7095,-0.7095,-0.7095,-0.7095,-0.7095,-0.7095,-0.7356,-0.854,-0.889,-0.9362,-1.1423,-1.1943,-1.2248,-1.3428,-1.3906,-1.4088,-1.4088,-1.4088,-1.4088,-1.4088,-1.4088,-1.4088,-1.4088,-1.4088,-1.4088,-1.4088,-1.4088,-1.4088,-1.4088,-1.4088,-1.4088,-1.4088,-1.4088,-1.4088,-1.4088,-1.4088,-1.4088,-1.4088,-1.4894,-1.5579,-1.6026,-1.7698,-1.8877,-1.9313,-2.0157,-2.0605,-2.0605,-2.0605,-2.0605,-2.0605,-2.0605,-2.0605,0.0,0.0,0.0,0.0,0.0,0.0,0.0,0.0,0.0,0.0,0.0,0.0,0.0,0.0,0.0,0.0,0.0,0.0,0.0,0.0,0.0,0.0,0.0,0.0,0.0,0.0,0.0,0.0,0.0,0.0,0.0,-0.4316,-0.4366,-0.4366,-0.5575,-0.6179,-0.6179,-0.7385,-0.7988,-0.7988,-0.7899,-0.7824,-0.7807,-0.7678,-0.7536,-0.7439,0.0,0.0,0.0,-0.7102,-0.7095,-0.7095,-0.7095,-0.7095,-0.7095,-0.7095,-0.7095,-0.7095,-0.7095,-0.7095,-0.7095,-0.7095,-0.7095,-0.7095,-0.7095,-0.7095,-0.7356,-0.854,-0.889,-0.9192,-1.0438,-1.0783,-1.1042,-1.22,-1.3294,-1.4088,-1.4088,-1.4088,-1.4088,-1.4088,-1.4088,-1.4088,-1.4088,-1.4088,-1.4088,-1.4088,-1.4088,-1.4088,-1.4088,-1.4088,-1.4088,-1.4088,-1.4088,-1.4088,-1.4088,-1.4088,-1.4088,-1.4088,-1.4208,-1.5103,-1.705,-1.7342,-1.839,-2.0401,-2.0566,-2.0605,-2.0605,-2.0605,-2.0605,-2.0605,-2.0605,-2.0605,0.0,0.0,0.0,0.0,0.0,0.0,0.0,0.0,0.0,0.0,0.0,0.0,0.0,0.0,0.0,0.0,0.0,0.0,0.0,0.0,0.0,0.0,0.0,0.0,0.0,0.0,0.0,0.0,0.0,0.0,0.0,-0.3115,-0.4016,-0.4016,-0.5322,-0.5979,-0.5979,-0.7251,-0.7902,-0.7899,-0.7753,-0.7634,-0.7543,-0.7489,-0.7377,-0.7231,0.0,0.0,0.0,-0.7095,-0.7095,-0.7095,-0.7095,-0.7095,-0.7095,-0.7095,-0.7095,-0.7095,-0.7095,-0.7095,-0.7095,-0.7095,-0.7095,-0.7095,-0.7095,-0.7095,-0.7183,-0.7665,-0.7797,-0.8101,-0.9274,-1.0096,-1.0697,-1.1166,-1.2163,-1.3027,-1.3027,-1.3597,-1.4088,-1.4088,-1.4088,-1.4088,-1.4088,-1.4088,-1.4088,-1.4088,-1.4088,-1.4088,-1.4088,-1.4088,-1.4088,-1.4088,-1.4088,-1.4088,-1.4088,-1.4088,-1.4088,-1.4088,-1.4088,-1.4496,-1.5352,-1.5992,-1.7041,-1.859,-1.9274,-1.9962,-2.0605,-2.0605,-2.0605,-2.0605,-2.0605,-2.0605,0.0,0.0,0.0,0.0,0.0,0.0,0.0,0.0,0.0,0.0,0.0,0.0,0.0,0.0,0.0,0.0,0.0,0.0,0.0,0.0,0.0,0.0,0.0,0.0,0.0,0.0,0.0,0.0,0.0,0.0,0.0,-0.1803,-0.2798,-0.2814,-0.4119,-0.481,-0.4833,-0.6046,-0.6668,-0.6678,-0.6552,-0.6632,-0.6861,-0.682,-0.6927,-0.7095,0.0,0.0,0.0,-0.7095,-0.7095,-0.7095,-0.7095,-0.7095,-0.7095,-0.7095,-0.7095,-0.7095,-0.7095,-0.7095,-0.7095,-0.7095,-0.7095,-0.7095,-0.7095,-0.7095,-0.7095,-0.7095,-0.7095,-0.7316,-0.8149,-0.9231,-1.0096,-1.0096,-1.095,-1.1895,-1.2242,-1.2984,-1.3688,-1.4046,-1.4088,-1.4088,-1.4088,-1.4088,-1.4088,-1.4088,-1.4088,-1.4088,-1.4088,-1.4088,-1.4088,-1.4088,-1.4088,-1.4088,-1.4088,-1.4088,-1.4088,-1.4088,-1.4088,-1.425,-1.4573,-1.5296,-1.6191,-1.7302,-1.843,-1.9362,-2.0128,-2.045,-2.0605,-2.0605,-2.0605,-2.0605,0.0,0.0,0.0,0.0,0.0,0.0,0.0,0.0,0.0,0.0,0.0,0.0,0.0,0.0,0.0,0.0,0.0,0.0,0.0,0.0,0.0,0.0,0.0,0.0,0.0,0.0,0.0,0.0,0.0,0.0,0.0,-0.005,-0.005,-0.005,-0.136,-0.2044,-0.2055,-0.3374,-0.4019,-0.4036,-0.3908,-0.4468,-0.5619,-0.5502,-0.6027,0.0,0.0,0.0,0.0,-0.7095,-0.7095,-0.7095,-0.7095,-0.7095,-0.7095,-0.7095,-0.7095,-0.7095,-0.7095,-0.7095,-0.7095,-0.7095,-0.7095,-0.7095,-0.7095,-0.7095,-0.7095,-0.7095,-0.7095,-0.7095,-0.7095,-0.8017,-0.8934,-0.8934,-0.9792,-1.0907,-1.2066,-1.2328,-1.2681,-1.3864,-1.4088,-1.4088,-1.4088,-1.4088,-1.4088,-1.4088,-1.4088,-1.4088,-1.4088,-1.4088,-1.4088,-1.4088,-1.4088,-1.4088,-1.4088,-1.4088,-1.4088,-1.4088,-1.4088,-1.4573,-1.5662,-1.5696,-1.6191,-1.7302,-1.843,-1.9006,-1.9036,-2.0079,-2.0605,-2.0605,-2.0605,-2.0605,0.0,0.0,0.0,0.0,0.0,0.0,0.0,0.0,0.0,0.0,0.0,0.0,0.0,0.0,0.0,0.0,0.0,0.0,0.0,0.0,0.0,0.0,0.0,0.0,0.0,0.0,0.0,0.0,0.0,0.0,0.0,0.0,0.0,0.0,-0.1318,-0.198,-0.2016,-0.3216,-0.3883,-0.3859,-0.3734,-0.3877,-0.4236,-0.4208,0.0,0.0,0.0,0.0,0.0,-0.7095,-0.7095,-0.7095,-0.7095,-0.7095,-0.7095,-0.7095,-0.7095,-0.7095,-0.7095,-0.7095,-0.7095,-0.7095,-0.7095,-0.7095,-0.7095,-0.7095,-0.7095,-0.7095,-0.7095,-0.7095,-0.7095,-0.7404,-0.7665,-0.7665,-0.9183,-1.0697,-1.108,-1.2382,-1.3646,-1.4046,-1.4088,-1.4088,-1.4088,-1.4088,-1.4088,-1.4088,-1.4088,-1.4088,-1.4088,-1.4088,-1.4088,-1.4088,-1.4088,-1.4088,-1.4088,-1.4088,-1.4088,-1.4088,-1.4088,-1.425,-1.4573,-1.4615,-1.5095,-1.6191,-1.6552,-1.7131,-1.7827,-1.8957,-1.9883,-2.0605,-2.0605,-2.0605,0.0,0.0,0.0,0.0,0.0,0.0,0.0,0.0,0.0,0.0,0.0,0.0,0.0,0.0,0.0,0.0,0.0,0.0,0.0,0.0,0.0,0.0,0.0,0.0,0.0,0.0,0.0,0.0,0.0,0.0,0.0,0.0,0.0,0.0,-0.0812,-0.1233,-0.1224,-0.1996,-0.2388,-0.2371,-0.2295,-0.2458,-0.2903,-0.2903,0.0,0.0,0.0,0.0,0.0,-0.6293,-0.6473,-0.6517,-0.6918,-0.7095,-0.7095,-0.7095,-0.7095,-0.7095,-0.7095,-0.7095,-0.7095,-0.7095,-0.7095,-0.7095,-0.7095,-0.7095,-0.7095,-0.7095,-0.7095,-0.7095,-0.7095,-0.7095,-0.7095,-0.7095,-0.8225,-0.9396,-0.9879,-1.1434,-1.2905,-1.3343,-1.3779,-1.4088,-1.4088,-1.4088,-1.4088,-1.4088,-1.4088,-1.4088,-1.4088,-1.4088,-1.4088,-1.4088,-1.4088,-1.4088,-1.4088,-1.4088,-1.4088,-1.4088,-1.4088,-1.4088,-1.4088,-1.4088,-1.4412,-1.5095,-1.5496,-1.6026,-1.6683,-1.7819,-1.8917,-2.0001,-2.0001,-2.0196,0.0,0.0,0.0,0.0,0.0,0.0,0.0,0.0,0.0,0.0,0.0,0.0,0.0,0.0,0.0,0.0,0.0,0.0,0.0,0.0,0.0,0.0,0.0,0.0,0.0,0.0,0.0,0.0,0.0,0.0,0.0,0.0,0.0,0.0,0.0,0.0,0.0,0.0,0.0,0.0,0.0,-0.0583,-0.1656,-0.1656,0.0,0.0,0.0,0.0,0.0,-0.4821,-0.5314,-0.5492,-0.6561,-0.7007,-0.7095,-0.7095,-0.7095,-0.7095,-0.7095,-0.7095,-0.7095,-0.7095,-0.7095,-0.7095,-0.7095,-0.7095,-0.7095,-0.7095,-0.7095,-0.7095,-0.7095,-0.7095,-0.7095,-0.7095,-0.7183,-0.7533,-0.8671,-0.9797,-1.0913,-1.1986,-1.3075,-1.3864,-1.3864,-1.3864,-1.3864,-1.3864,-1.3864,-1.387,-1.3955,-1.3955,-1.3997,-1.4088,-1.4088,-1.4088,-1.4088,-1.4088,-1.4088,-1.4088,-1.4088,-1.4088,-1.4088,-1.4088,-1.4088,-1.4088,-1.5095,-1.5621,-1.5696,-1.6683,-1.7827,-1.8997,-1.8997,-1.9559,0.0,0.0,0.0,0.0,0.0,0.0,0.0,0.0,0.0,0.0,0.0,0.0,0.0,0.0,0.0,0.0,0.0,0.0,0.0,0.0,0.0,0.0,0.0,0.0,0.0,0.0,0.0,0.0,0.0,0.0,0.0,0.0,0.0,0.0,0.0,0.0,0.0,0.0,0.0,0.0,0.0,-0.0135,-0.0404,-0.0404,0.0,0.0,0.0,0.0,-0.3614,-0.3926,-0.4552,-0.5447,-0.5716,-0.6337,-0.7095,-0.7095,-0.7095,-0.7095,-0.7095,-0.7095,-0.7095,-0.7095,-0.7095,-0.7095,-0.7095,-0.7095,-0.7095,-0.7095,-0.7095,-0.7095,-0.7095,-0.7095,-0.7095,-0.7095,-0.7797,-0.854,-0.8846,-0.9797,-1.0697,-1.0956,-1.1214,-1.1434,-1.1434,-1.1434,-1.1434,-1.1434,-1.1434,-1.1735,-1.2595,-1.2723,-1.3075,-1.3997,-1.4088,-1.4088,-1.4088,-1.4088,-1.4088,-1.4088,-1.4088,-1.4088,-1.4088,-1.4088,-1.4088,-1.4088,-1.4334,-1.4894,-1.5696,-1.5944,-1.709,-1.8997,-1.8997,-1.9559,0.0,0.0,0.0,0.0,0.0,0.0,0.0,0.0,0.0,0.0,0.0,0.0,0.0,0.0,0.0,0.0,0.0,0.0,0.0,0.0,0.0,0.0,0.0,0.0,0.0,0.0,0.0,0.0,0.0,0.0,0.0,0.0,0.0,0.0,0.0,0.0,0.0,0.0,0.0,0.0,0.0,0.0,0.0,0.0,0.0,0.0,0.0,0.0,-0.2013,-0.2547,-0.3172,-0.3798,-0.4374,-0.5309,-0.6337,-0.6337,-0.665,-0.7095,-0.7095,-0.7095,-0.7095,-0.7095,-0.7095,-0.7095,-0.7095,-0.7095,-0.7095,-0.7095,-0.7095,-0.7095,-0.7095,-0.7095,-0.7095,-0.7095,-0.7577,-0.8057,-0.8057,-0.9013,-0.9836,-0.9836,-1.0226,-1.0611,-1.0611,-1.0611,-1.0611,-1.0611,-1.0611,-1.0999,-1.2151,-1.2285,-1.2766,-1.3955,-1.4088,-1.4035,-1.3895,-1.3881,-1.3941,-1.4082,-1.4088,-1.4088,-1.4088,-1.4088,-1.4088,-1.4088,-1.4088,-1.437,-1.4977,-1.4977,-1.5827,-1.7496,-1.7496,-1.8341,0.0,0.0,0.0,0.0275,0.0118,0.0,0.0,0.0,0.0,0.0,0.0,0.0,0.0,0.0,0.0,0.0,0.0,0.0,0.0,0.0,0.0,0.0,0.0,0.0,0.0,0.0,0.0,0.0,0.0,0.0,0.0,0.0,0.0,0.0,0.0,0.0,0.0,0.0,0.0,0.0,0.0,0.0,0.0,0.0,0.0,0.0,0.0,0.0,-0.009,-0.1299,-0.1924,-0.2191,-0.3393,-0.4596,-0.5669,-0.5669,-0.6248,-0.7095,-0.7095,-0.7095,-0.7095,-0.7095,-0.7095,-0.7095,-0.7095,-0.7095,-0.7095,-0.7095,-0.7095,-0.7095,-0.7095,-0.7095,-0.7095,-0.7095,-0.7095,-0.7095,-0.7095,-0.7885,-0.8627,-0.8627,-0.9401,-1.0091,-1.0091,-1.0091,-1.0091,-1.0091,-1.0091,-1.0519,-1.1852,-1.1994,-1.2493,-1.3889,-1.3981,-1.3854,-1.3553,-1.354,-1.3646,-1.3935,-1.3955,-1.3955,-1.3955,-1.3955,-1.3955,-1.3955,-1.3955,-1.3955,-1.3955,-1.4001,-1.458,-1.5629,-1.5674,-1.6797,0.3046,0.2851,0.2423,0.1567,0.0667,0.0,0.0,0.0,0.0,0.0,0.0,0.0,0.0,0.0,0.0,0.0,0.0,0.0,0.0,0.0,0.0,0.0,0.0,0.0,0.0,0.0,0.0,0.0,0.0,0.0,0.0,0.0,0.0,0.0,0.0,0.0,0.0,0.0,0.0,0.0,0.0,0.0,0.0,0.0,0.0,0.0,0.0,0.0,-0.009,-0.1299,-0.2413,-0.3436,-0.4643,-0.5847,-0.6827,-0.6827,-0.6962,-0.7095,-0.7095,-0.7095,-0.7095,-0.7095,-0.7095,-0.7095,-0.7095,-0.7095,-0.7095,-0.7095,-0.7095,-0.7095,-0.7095,-0.7095,-0.7095,-0.7095,-0.7095,-0.7095,-0.7095,-0.7228,-0.736,-0.736,-0.7533,-0.7617,-0.7617,-0.7617,-0.7617,-0.7617,-0.7617,-0.84,-1.0567,-1.0661,-1.1344,-1.3454,-1.3487,-1.3327,-1.328,-1.3273,-1.33,-1.334,-1.3347,-1.3347,-1.3347,-1.3347,-1.3347,-1.3347,-1.3347,-1.3347,-1.3347,-1.3553,-1.4267,-1.538,-1.5569,-1.6355,0.4686,0.3982,0.3124,0.3244,0.2464,0.1527,0.098,0.0863,0.0,0.0,0.0,0.0,0.0,0.0,0.0,0.0,0.0,0.0,0.0,0.0,0.0,0.0,0.0,0.0,0.0,0.0,0.0,0.0,0.0,0.0,0.0,0.0,0.0,0.0,0.0,0.0,0.0,0.0,0.0,0.0,0.0,0.0,0.0,0.0,0.0,0.0,0.0,0.0,-0.0045,-0.0583,-0.1165,-0.1791,-0.2995,-0.4152,-0.5351,-0.6647,-0.7095,-0.7095,-0.7095,-0.7095,-0.7095,-0.7095,-0.7095,-0.7095,-0.7095,-0.7095,-0.7095,-0.7095,-0.7095,-0.7095,-0.7095,-0.7095,-0.7095,-0.7095,-0.7095,-0.7095,-0.7095,-0.7095,-0.7095,-0.7095,-0.7095,-0.7095,-0.7095,-0.7095,-0.7068,-0.6994,-0.698,-0.7591,-0.9218,-0.9289,-0.9894,-1.1589,-1.1652,-1.1728,-1.2101,-1.2134,-1.2432,-1.316,-1.3213,-1.3213,-1.3213,-1.3213,-1.3213,-1.3213,-1.3213,-1.3213,-1.3213,-1.3307,-1.3641,-1.4186,-1.4287,-1.49,0.6064,0.5118,0.4059,0.4882,0.0,0.289,0.2113,0.1762,0.0,0.0,0.0,0.0,0.0,0.0,0.0,0.0,0.0,0.0,0.0,0.0,0.0,0.0,0.0,0.0,0.0,0.0,0.0,0.0,0.0,0.0,0.0,0.0,0.0,0.0,0.0,0.0,0.0,0.0,0.0,0.0,0.0,0.0,0.0,0.0,0.0,0.0,0.0,0.0,0.0,-0.0314,-0.0404,-0.0539,-0.1746,-0.2949,-0.4239,-0.6024,-0.6874,-0.7095,-0.7095,-0.7095,-0.7095,-0.7095,-0.7095,-0.7095,-0.7095,-0.7095,-0.7095,-0.7095,-0.7095,-0.7095,-0.7095,-0.7095,-0.7095,-0.7095,-0.7095,-0.7095,-0.7095,-0.7095,-0.7095,-0.7095,-0.7095,-0.7085,-0.7051,-0.7048,-0.6997,-0.6856,-0.6832,-0.7246,-0.8258,-0.8363,-0.8783,-0.9958,-1.0032,-1.0211,-1.0694,-1.0754,-1.1188,-1.2231,-1.272,-1.2999,-1.2999,-1.2999,-1.2999,-1.2999,-1.2999,-1.2999,-1.2999,-1.3066,-1.3106,-1.3106,-1.3173,-1.3627,0.6261,0.6183,0.6103,0.618,0.4647,0.0,0.3007,0.2268,0.0,0.1489,0.0,0.0,0.0,0.0,0.0,0.0,0.0,0.0,0.0,0.0,0.0,0.0,0.0,0.0,0.0,0.0,0.0,0.0,0.0,0.0,0.0,0.0,0.0,0.0,0.0,0.0,0.0,0.0,0.0,0.0,0.0,0.0,0.0,0.0,0.0,0.0,0.0,0.0,-0.009,-0.121,-0.1656,-0.179,-0.2992,-0.4196,-0.527,-0.5447,-0.6204,-0.7095,-0.7095,-0.7095,-0.7095,-0.7095,-0.7095,-0.7095,-0.7095,-0.7095,-0.7095,-0.7095,-0.7095,-0.7095,-0.7095,-0.7095,-0.7095,-0.7095,-0.7095,-0.7095,-0.7095,-0.7095,-0.7095,-0.7095,-0.7095,-0.7055,-0.6923,-0.6903,-0.6849,-0.6739,-0.6715,-0.712,-0.8237,-0.8171,-0.8458,-0.9611,-0.9507,-0.9375,-0.9435,-0.9435,-0.9478,-0.957,-1.1347,-1.2365,-1.2365,-1.2365,-1.2365,-1.2365,-1.2365,-1.2365,-1.2365,-1.2683,-1.2817,-1.2824,-1.3073,-1.3246,0.63,0.63,0.63,0.63,0.5709,0.0,0.0,0.3789,0.3168,0.188,0.1279,0.0,0.0,0.0,0.0,0.0,0.0,0.0,0.0,0.0,0.0,0.0,0.0,0.0,0.0,0.0,0.0,0.0,0.0,0.0,0.0,0.0,0.0,0.0,0.0,0.0,0.0,0.0,0.0,0.0,0.0,0.0,0.0,0.0,0.0,0.0,0.0,0.0,-0.0045,-0.0494,-0.0673,-0.0807,-0.2013,-0.3217,-0.4283,-0.4283,-0.455,-0.5041,-0.5802,-0.6027,-0.616,-0.6874,-0.7095,-0.7095,-0.7095,-0.7095,-0.7095,-0.7095,-0.7095,-0.7095,-0.7095,-0.7095,-0.7095,-0.7095,-0.7095,-0.7095,-0.7095,-0.7095,-0.7095,-0.7095,-0.7024,-0.695,-0.6896,-0.6851,-0.6736,-0.658,-0.6559,-0.6687,-0.7062,-0.6995,-0.7114,-0.7538,-0.8051,-0.8351,-0.8351,-0.9513,-1.0228,-1.0228,-1.0938,-1.1354,-1.1354,-1.1959,-1.2305,-1.2305,-1.2305,-1.2305,-1.2305,-1.2418,-1.2509,-1.2472,-1.2592,-1.2645,0.6186,0.619,0.6166,0.0,0.0,0.0,0.5345,0.496,0.4297,0.2856,0.2047,0.0,0.0,0.0,0.0,0.0,0.0,0.0,0.0,0.0,0.0,0.0,0.0,0.0,0.0,0.0,0.0,0.0,0.0,0.0,0.0,0.0,0.0,0.0,0.0,0.0,0.0,0.0,0.0,0.0,0.0,0.0,0.0,0.0,0.0,0.0,0.0,0.0,0.0,0.0,0.0,-0.009,-0.0897,-0.1969,-0.3037,-0.3037,-0.326,-0.3703,-0.4552,-0.4821,-0.4954,-0.5753,-0.5977,-0.6065,-0.6425,-0.6561,-0.665,-0.7007,-0.7095,-0.7095,-0.7095,-0.7095,-0.7095,-0.7095,-0.7095,-0.7095,-0.7095,-0.7095,-0.7082,-0.7038,-0.6953,-0.6856,-0.68,-0.6698,-0.6576,-0.6467,-0.6446,-0.6409,-0.6313,-0.63,-0.63,-0.63,-0.6911,-0.7326,-0.7326,-0.8571,-0.9394,-0.9394,-0.9658,-1.0297,-1.1242,-1.1922,-1.2305,-1.2305,-1.2305,-1.2305,-1.2305,-1.2305,-1.2305,-1.2305,-1.2305,-1.2305,0.599,0.5918,0.5837,0.0,0.0,0.0,0.6265,0.5473,0.4727,0.4691,0.0,0.2038,0.0,0.0,0.0,0.0,0.0,0.0,0.0,0.0,0.0,0.0,0.0,0.0,0.0,0.0,0.0,0.0,0.0,0.0,0.0,0.0,0.0,0.0,0.0,0.0,0.0,0.0,0.0,0.0,0.0,0.0,0.0,0.0,0.0,0.0,0.0,0.0,0.0,0.0,0.0,0.0,0.0,-0.0718,-0.179,-0.179,-0.2547,-0.357,-0.357,-0.357,-0.357,-0.3614,-0.3614,-0.3838,-0.5001,-0.5403,-0.5625,-0.6738,-0.7051,-0.7051,-0.7095,-0.7095,-0.7095,-0.7095,-0.7095,-0.7095,-0.7095,-0.7095,-0.7051,-0.6913,-0.6883,-0.6827,-0.6566,-0.6511,-0.6463,-0.632,-0.63,-0.63,-0.63,-0.63,-0.63,-0.63,-0.63,-0.63,-0.63,-0.63,-0.63,-0.63,-0.7249,-0.914,-1.215,-1.2268,-1.2298,-1.2305,-1.2305,-1.2305,-1.2305,-1.2305,-1.2305,-1.2305,-1.2305,-1.2305,0.5871,0.5837,0.0,0.5952,0.0,0.0,0.0,0.6064,0.0,0.0,0.0,0.0,0.0,0.0,0.0,0.0,0.0,0.0,0.0,0.0,0.0,0.0,0.0,0.0,0.0,0.0,0.0,0.0,0.0,0.0,0.0,0.0,0.0,0.0,0.0,0.0,0.0,0.0,0.0,0.0,0.0,0.0,0.0,0.0,0.0,0.0,0.0,0.0,0.0,0.0,0.0,0.0,0.0,-0.0225,-0.0539,-0.0539,-0.0763,-0.121,-0.2057,-0.2325,-0.2458,-0.3303,-0.3614,-0.3659,-0.4016,-0.415,-0.4194,-0.455,-0.4639,-0.4816,-0.5669,-0.5894,-0.6115,-0.6918,-0.7095,-0.7095,-0.7095,-0.7018,-0.6937,-0.6896,-0.6756,-0.658,-0.6528,-0.6429,-0.6347,-0.6306,-0.63,-0.63,-0.63,-0.63,-0.63,-0.63,-0.63,-0.63,-0.63,-0.6949,-0.7365,-0.7365,-0.8313,-0.9258,-1.0158,-1.087,-1.1583,-1.2298,-1.2305,-1.2305,-1.2305,-1.2305,-1.2305,-1.2305,-1.2305,-1.2305,0.5718,0.5674,0.0,0.5888,0.5939,0.5996,0.6248,0.0,0.0,0.0,0.0,0.0,0.0,0.0,0.0,0.0,0.0,0.0,0.0,0.0,0.0,0.0,0.0,0.0,0.0,0.0,0.0,0.0,0.0,0.0,0.0,0.0,0.0,0.0,0.0,0.0,0.0,0.0,0.0,0.0,0.0,0.0,0.0,0.0,0.0,0.0,0.0,0.0,0.0,0.0,0.0,0.0,0.0,0.0,0.0,0.0,0.0,-0.009,-0.0852,-0.1076,-0.121,-0.1924,-0.2191,-0.2281,-0.2726,-0.2903,-0.2992,-0.3481,-0.3614,-0.3748,-0.4508,-0.4688,-0.5087,-0.6694,-0.7095,-0.7082,-0.7024,-0.6947,-0.6852,-0.677,-0.66,-0.6494,-0.6436,-0.6358,-0.63,-0.63,-0.63,-0.63,-0.63,-0.63,-0.63,-0.63,-0.63,-0.63,-0.63,-0.6872,-0.7215,-0.7215,-0.7783,-0.8275,-0.8689,-0.9664,-1.049,-1.1099,-1.1099,-1.1285,-1.1694,-1.1694,-1.1922,-1.2305,-1.2305,-1.2305,0.5569,0.0,0.0,0.5711,0.5803,0.0,0.6231,0.63,0.634,0.0,0.0,0.0,0.0,0.0,0.0,0.0,0.0,0.0,0.0,0.0,0.0,0.0,0.0,0.0,0.0,0.0,0.0,0.0,0.0,0.0,0.0,0.0,0.0,0.0,0.0,0.0,0.0134,0.0134,0.0089,0.0,0.0,0.0,0.0,0.0,0.0,0.0,0.0,0.0,0.0,0.0,0.0,0.0,0.0,0.0,0.0,0.0,0.0,0.0,0.0,0.0,0.0,0.0,0.0,-0.0225,-0.1299,-0.1657,-0.1879,-0.2948,-0.326,-0.3303,-0.3392,-0.3436,-0.4014,-0.6245,-0.6782,-0.6747,-0.6612,-0.657,-0.6522,-0.6283,-0.6218,-0.6169,-0.6045,-0.6022,-0.6025,-0.6141,-0.6219,-0.63,-0.63,-0.63,-0.63,-0.63,-0.63,-0.63,-0.63,-0.63,-0.63,-0.63,-0.63,-0.6718,-0.7633,-0.8618,-0.9221,-0.9296,-0.9296,-0.9744,-1.0677,-1.0677,-1.1162,-1.215,-1.215,-1.2224,0.5443,0.5419,0.0,0.0,0.581,0.603,0.6255,0.63,0.634,0.0,0.0,0.0,0.0,0.0,0.0,0.0,0.0,0.0,0.0,0.0,0.0,0.0,0.0,0.0,0.0,0.0,0.0,0.0,0.0,0.0,0.0,0.0,0.0,0.0,0.0,0.2041,0.1277,0.1277,0.0852,0.0,0.0,0.0,0.0,0.0,0.0,0.0,0.0,0.0,0.0,0.0,0.0,0.0,0.0,0.0,0.0,0.0,0.0,0.0,0.0,0.0,0.0,0.0,0.0,-0.0045,-0.0314,-0.0404,-0.0449,-0.0718,-0.0762,-0.0986,-0.1924,-0.2191,-0.2547,-0.4014,-0.4372,-0.4349,-0.4305,-0.4227,-0.4141,-0.4068,-0.3945,-0.3808,-0.3791,-0.3787,-0.4062,-0.4924,-0.5747,-0.63,-0.63,-0.63,-0.63,-0.63,-0.63,-0.63,-0.63,-0.63,-0.63,-0.63,-0.63,-0.6412,-0.6606,-0.7595,-0.8504,-0.9296,-0.9296,-0.941,-0.9631,-0.9631,-1.0158,-1.1124,-1.1124,-1.1545,0.5395,0.0,0.0,0.5552,0.0,0.6013,0.6132,0.6245,0.0,0.0,0.0,0.0,0.0,0.0,0.0,0.0,0.0,0.0,0.0,0.0,0.0,0.0,0.0,0.0,0.0,0.0,0.0,0.0,0.0,0.0,0.0,0.0,0.0,0.0,0.3098,0.2847,0.2304,0.2304,0.1802,0.0756,0.126,0.1218,0.0757,0.0216,0.0,0.0,0.0,0.0,0.0,0.0,0.0,0.0,0.0,0.0,0.0,0.0,0.0,0.0,0.0,0.0,0.0,0.0,0.0,0.0,0.0,0.0,0.0,0.0,0.0,-0.0135,-0.0762,-0.0942,-0.1076,-0.1746,-0.2751,-0.3587,-0.3512,-0.3434,-0.3314,-0.3278,-0.319,-0.3085,-0.3085,-0.3085,-0.3279,-0.3865,-0.4414,-0.4766,-0.4766,-0.4766,-0.496,-0.5473,-0.555,-0.5747,-0.6261,-0.63,-0.63,-0.63,-0.63,-0.63,-0.63,-0.6795,-0.7326,-0.7859,-0.7859,-0.8084,-0.858,-0.858,-0.9107,-1.0078,-1.0078,-1.034,0.5395,0.0,0.5433,0.5552,0.5772,0.0,0.5946,0.6088,0.0,0.0,0.0,0.0,0.0,0.0,0.0,0.0,0.0,0.0,0.0,0.0,0.0,0.0,0.0,0.0,0.0,0.0,0.0,0.0,0.0,0.0,0.0,0.0,0.4678,0.3682,0.3641,0.3559,0.3393,0.3393,0.2855,0.1863,0.269,0.2649,0.1823,0.0748,0.0167,0.0,0.0,0.0,0.0,0.0,0.0,0.0,0.0,0.0,0.0,0.0,0.0,0.0,0.0,0.0,0.0,0.0,0.0,0.0,0.0,0.0,0.0,0.0,0.0,0.0,0.0,0.0,0.0,0.0,-0.1535,-0.2958,-0.282,-0.2758,-0.2694,-0.2591,-0.2578,-0.2578,-0.2578,-0.2734,-0.2851,-0.2851,-0.3007,-0.3085,-0.3085,-0.3085,-0.3435,-0.4334,-0.4414,-0.4766,-0.567,-0.5906,-0.6025,-0.6025,-0.6183,-0.63,-0.63,-0.63,-0.63,-0.63,-0.63,-0.6718,-0.7557,-0.7557,-0.8046,-0.9031,-0.9031,-0.9221,0.0,0.0,0.5433,0.0,0.562,0.5681,0.0,0.0,0.0,0.0,0.0,0.0,0.0,0.0,0.0,0.0,0.0,0.0,0.0,0.0,0.0,0.0,0.0,0.0,0.0,0.0,0.0,0.0,0.0,0.0,0.0,0.6123,0.6041,0.5882,0.5882,0.5445,0.4494,0.4494,0.3942,0.2917,0.3035,0.3035,0.2879,0.1858,0.0891,0.0,0.0,0.0,0.0,0.0,0.0,0.0,0.0,0.0,0.0,0.0,0.0,0.0,0.0,0.0,0.0,0.0,0.0,0.0,0.0,0.0,0.0,0.0,0.0,0.0,0.0,0.0,0.0,0.0,-0.0258,-0.0464,-0.0463,-0.0455,-0.0444,-0.0434,-0.0431,-0.0431,-0.0431,-0.1176,-0.1802,-0.1802,-0.254,-0.3085,-0.3085,-0.3085,-0.3163,-0.3279,-0.3318,-0.3357,-0.3513,-0.4373,-0.4921,-0.4921,-0.5786,-0.63,-0.63,-0.63,-0.63,-0.63,-0.63,-0.6377,-0.649,-0.649,-0.7022,-0.8012,-0.8012,-0.895,0.6272,0.6141,0.6028,0.0,0.5562,0.5606,0.5671,0.0,0.0,0.0,0.0,0.0,0.0,0.0,0.0,0.0,0.0,0.0,0.0,0.0,0.0,0.0,0.0,0.0,0.0,0.0,0.0,0.0,0.0,0.0,0.63,0.63,0.63,0.63,0.63,0.6064,0.5589,0.5589,0.5354,0.4882,0.3669,0.3396,0.3945,0.293,0.1861,0.085,0.0243,0.0,0.0,0.0,0.0,0.0,0.0,0.0,0.0,0.0,0.0,0.0,0.0,0.0,0.0,0.0,0.0,0.0,0.0,0.0,0.0,0.0,0.0,0.0,0.0,0.0,0.0,0.0,0.0,0.0,0.0,0.0,0.0,0.0,0.0,0.0,0.0,-0.0392,-0.0706,-0.0706,-0.1097,-0.137,-0.137,-0.137,-0.1604,-0.219,-0.2268,-0.2501,-0.3046,-0.3513,-0.3787,-0.3787,-0.4256,-0.4766,-0.5392,-0.5395,-0.567,-0.63,-0.63,-0.63,-0.63,-0.63,-0.6528,-0.6945,-0.6945,-0.7437,0.0,0.0,0.6817,0.5947,0.581,0.5836,0.0,0.0,0.0,0.0,0.0,0.0,0.0,0.0,0.0,0.0,0.0,0.0,0.0,0.0,0.0,0.0,0.0,0.0,0.0,0.0,0.0,0.0,0.0,0.0,0.6296,0.63,0.63,0.63,0.63,0.63,0.63,0.63,0.63,0.63,0.4686,0.4334,0.5079,0.3982,0.3086,0.2309,0.098,0.0396,0.0403,0.0121,0.0,0.0,0.0,0.0,0.0,0.0,0.0,0.0,0.0,0.0,0.0,0.0,0.0,0.0,0.0,0.0,0.0,0.0,0.0,0.0,0.0,0.0,0.0,0.0,0.0,0.0,0.0,0.0,0.0,0.0,0.0,0.0,0.0,0.0,0.0,0.0,0.0,0.0,0.0,0.0,-0.0314,-0.1097,-0.1176,-0.1488,-0.2267,-0.2579,-0.2735,-0.2735,-0.2968,-0.3591,-0.4647,-0.4688,-0.5198,-0.6261,-0.63,-0.63,-0.63,-0.63,-0.63,-0.63,-0.63,-0.6451,0.0,0.7929,0.0,0.685,0.0,0.0,0.0,0.0,0.0,0.0,0.0,0.0,0.0,0.0,0.0,0.0,0.0,0.0,0.0,0.0,0.0,0.0,0.0,0.0,0.0,0.0,0.0,0.0,0.0,0.0,0.6293,0.63,0.63,0.63,0.63,0.63,0.63,0.63,0.63,0.63,0.6183,0.618,0.618,0.5118,0.4569,0.4414,0.2387,0.1529,0.1453,0.0432,0.0,0.0,0.0,0.0,0.0,0.0,0.0,0.0,0.0,0.0,0.0,0.0,0.0,0.0,0.0,0.0,0.0,0.0,0.0,0.0,0.0,0.0,0.0,0.0,0.0,0.0,0.0,0.0,0.0,0.0,0.0,0.0,0.0,0.0,0.0,0.0,0.0,0.0,0.0,0.0,-0.0039,-0.0079,-0.0079,-0.0118,-0.0157,-0.1097,-0.1685,-0.1685,-0.2579,-0.3591,-0.4647,-0.4688,-0.5198,-0.6261,-0.63,-0.63,-0.63,-0.63,-0.63,-0.63,-0.63,-0.6795,0.0,0.0,0.0,0.7767,0.7111,0.0,0.0,0.0,0.0,0.0,0.0,0.0,0.0,0.0,0.0,0.0,0.0,0.0,0.0,0.0,0.0,0.0,0.0,0.0,0.0,0.0,0.0,0.0,0.0,0.0,0.5962,0.5966,0.601,0.6108,0.6112,0.6159,0.6296,0.63,0.63,0.63,0.63,0.63,0.63,0.5906,0.5709,0.5628,0.4219,0.3205,0.2501,0.1449,0.102,0.0941,0.0275,0.0,0.0,0.0,0.0,0.0,0.0,0.0,0.0,0.0,0.0,0.0,0.0,0.0,0.0,0.0,0.0,0.0,0.0,0.0,0.0,0.0,0.0,0.0,0.0,0.0,0.0,0.0,0.0,0.0,0.0,0.0,0.0,0.0,0.0,0.0,0.0,0.0,0.0,0.0,0.0,0.0,0.0,-0.0353,-0.0588,-0.0588,-0.1567,-0.2581,-0.3632,-0.4334,-0.5198,-0.6261,-0.63,-0.63,-0.63,-0.63,-0.63,-0.63,-0.63,-0.649,0.9888,0.0,0.0,0.0,0.0,0.0,0.0,0.0,0.0,0.0,0.0,0.0,0.0,0.0,0.0,0.0,0.0,0.0,0.0,0.0,0.0,0.0,0.0,0.0,0.0,0.0,0.0,0.0,0.0,0.0,0.58,0.58,0.5847,0.5912,0.5966,0.6078,0.6183,0.6272,0.63,0.63,0.63,0.63,0.63,0.63,0.63,0.6261,0.555,0.4647,0.3554,0.2542,0.2113,0.2035,0.1331,0.0823,0.0549,0.0549,0.0314,0.0,0.0,0.0,0.0,0.0,0.0,0.0,0.0,0.0,0.0,0.0,0.0,0.0,0.0,0.0,0.0,0.0,0.0,0.0,0.0,0.0,0.0,0.0,0.0,0.0,0.0,0.0,0.0,0.0,0.0,0.0,0.0,0.0,0.0,0.0,0.0,0.0,0.0,0.0,0.0,0.0,-0.0667,-0.1683,-0.3046,-0.3787,-0.4844,-0.6261,-0.63,-0.63,-0.63,-0.63,-0.63,-0.63,-0.63,-0.63,0.0,0.0,0.0,0.0,0.0,0.0,0.0,0.0,0.0,0.0,0.0,0.0,0.0,0.0,0.0,0.0,0.0,0.0,0.0,0.0,0.0,0.0,0.0,0.0,0.0,0.0,0.0,0.0,0.0,0.5644,0.5779,0.5793,0.5793,0.5793,0.5905,0.5986,0.5986,0.6173,0.6289,0.6293,0.6293,0.6296,0.63,0.63,0.63,0.63,0.63,0.5709,0.4647,0.3593,0.3163,0.3163,0.3124,0.2501,0.1645,0.1645,0.098,0.0039,0.0039,0.0039,0.0,0.0,0.0,0.0,0.0,0.0,0.0,0.0,0.0,0.0,0.0,0.0,0.0,0.0,0.0,0.0,0.0,0.0,0.0,0.0,0.0,0.0,0.0,0.0,0.0,0.0,0.0,0.0,0.0,0.0,0.0,0.0,0.0,0.0,0.0,0.0,0.0,0.0,-0.0039,-0.094,-0.2968,-0.3085,-0.41,-0.6222,-0.6261,-0.6261,-0.63,-0.63,-0.63,-0.63,-0.63,-0.63,1.0294,0.0,0.0,0.0,0.0,0.0,0.0,0.0,0.0,0.0,0.0,0.0,0.0,0.0,0.0,0.0,0.0,0.0,0.0,0.0,0.0,0.0,0.0,0.0,0.0,0.0,0.0,0.0,0.5457,0.5477,0.5515,0.5589,0.5647,0.5647,0.5789,0.5864,0.5864,0.5908,0.5986,0.6095,0.6095,0.6152,0.63,0.63,0.63,0.63,0.63,0.6141,0.5786,0.4688,0.4256,0.4178,0.3396,0.2929,0.2696,0.2696,0.2034,0.1176,0.1176,0.0667,0.0,0.0,0.0,0.0,0.0,0.0,0.0,0.0,0.0,0.0,0.0,0.0,0.0,0.0,0.0,0.0,0.0,0.0,0.0,0.0,0.0,0.0,0.0,0.0,0.0,0.0,0.0,0.0,0.0,0.0,0.0,0.0,0.0,0.0,0.0,0.0,0.0,0.0,-0.0745,-0.1411,-0.1996,-0.2696,-0.3748,-0.5118,-0.5157,-0.5512,-0.63,-0.63,-0.63,-0.63,-0.63,-0.63,0.0,0.0,0.0,0.0,0.0,0.0,0.8558,0.8164,0.0,0.0,0.0,0.0,0.0,0.0,0.0,0.0,0.0,0.0,0.0,0.0,0.0,0.0,0.0,0.0,0.0,0.0,0.0,0.0,0.647,0.6338,0.598,0.5675,0.5528,0.5528,0.5637,0.5715,0.5715,0.5772,0.5844,0.5935,0.5935,0.6013,0.6166,0.6166,0.6238,0.63,0.63,0.63,0.6261,0.5628,0.5354,0.5315,0.4686,0.4178,0.3787,0.3787,0.3125,0.2151,0.1762,0.1176,0.0667,0.0667,0.0353,0.0079,0.0549,0.0353,0.0,0.0,0.0,0.0,0.0,0.0,0.0,0.0,0.0,0.0,0.0,0.0,0.0,0.0,0.0,0.0,0.0,0.0,0.0,0.0,0.0,0.0,0.0,0.0,0.0,0.0,0.0,0.0,0.0,0.0,0.0,0.0,-0.0588,-0.1137,-0.1568,-0.2151,-0.2969,-0.4021,-0.4491,-0.5237,-0.63,-0.63,-0.63,-0.6296,-0.6196,-0.6166,0.0,0.0,0.0,0.0,0.0,0.0,0.8804,0.8804,0.8804,0.0,0.0,0.0,0.0,0.0,0.0,0.0,0.0,0.0,0.0,0.0,0.0,0.0,0.0,0.0,0.0,0.0,0.758,0.7871,0.7943,0.7576,0.6748,0.598,0.5491,0.5395,0.5528,0.5566,0.5566,0.5691,0.5762,0.5779,0.5779,0.5857,0.5969,0.5969,0.6088,0.6276,0.6276,0.6282,0.63,0.63,0.63,0.63,0.63,0.5709,0.4882,0.4882,0.4217,0.3163,0.227,0.188,0.1762,0.1646,0.0941,0.0353,0.1293,0.0863,0.0,0.0,0.0,0.0,0.0,0.0,0.0,0.0,0.0,0.0,0.0,0.0,0.0,0.0,0.0,0.0,0.0,0.0,0.0,0.0,0.0,0.0,0.0,0.0,0.0,0.0,0.0,0.0,0.0,0.0,0.0,0.0,0.0,-0.0432,-0.1372,-0.1411,-0.1918,-0.2929,-0.41,-0.5229,-0.6276,-0.6276,-0.6276,-0.6269,-0.6074,-0.5969,0.0,0.0,0.0,0.0,0.0,0.0,0.8804,0.8804,0.8804,0.0,0.0,0.0,0.0,0.0,0.0,0.0,0.0,0.0,0.0,0.0,0.0,0.0,0.0,0.0,0.0,0.0,0.72,0.7275,0.7469,0.7326,0.6743,0.6527,0.6141,0.5428,0.5423,0.544,0.544,0.5467,0.5542,0.563,0.563,0.5705,0.5844,0.5844,0.5928,0.6074,0.6074,0.6146,0.63,0.63,0.63,0.63,0.63,0.618,0.5983,0.5983,0.5315,0.4373,0.4181,0.3515,0.2657,0.188,0.145,0.1333,0.1528,0.0863,0.0,0.0,0.0,0.0,0.0,0.0,0.0,0.0,0.0,0.0,0.0,0.0,0.0,0.0,0.0,0.0,0.0,0.0,0.0,0.0,0.0,0.0,0.0,0.0,0.0,0.0,0.0,0.0,0.0,0.0,0.0,0.0,0.0,-0.0079,-0.0314,-0.0314,-0.0824,-0.188,-0.375,-0.5145,-0.6074,-0.6074,-0.6074,-0.6071,-0.5918,-0.5844,0.0,0.0,0.0,1.0257,0.0,0.0,0.0,0.9035,0.8804,0.0,0.0,0.0,0.0,0.0,0.0,0.0,0.0,0.0,0.0,0.0,0.0,0.0,0.0,0.0,0.0,0.0,0.8207,0.8393,0.8121,0.789,0.777,0.734,0.6787,0.6071,0.6465,0.6272,0.5395,0.5815,0.5859,0.5511,0.5511,0.5552,0.5694,0.5694,0.5776,0.5915,0.5915,0.5959,0.6037,0.6115,0.6146,0.6152,0.6269,0.63,0.63,0.63,0.5944,0.5431,0.4882,0.4334,0.3826,0.3322,0.2776,0.2464,0.2971,0.2386,0.1565,0.1565,0.1175,0.0784,0.0784,0.0784,0.0667,0.0118,0.0392,0.0667,0.0118,0.0,0.0,0.0,0.0,0.0,0.0,0.0,0.0,0.0,0.0,0.0,0.0,0.0,0.0,0.0,0.0,0.0,0.0,0.0,0.0,0.0,0.0,0.0,0.0,0.0,-0.051,-0.1568,-0.3053,-0.4273,-0.5271,-0.5623,-0.5847,-0.5911,-0.5766,-0.5694,0.0,0.0,0.0,0.0,0.0,0.9987,0.0,0.0,0.0,0.0,0.0,0.0,0.0,0.0,0.0,0.0,0.0,0.0,0.0,0.0,0.0,0.0,0.0,0.0,0.0,0.0,0.9251,0.9579,0.8939,0.8604,0.8708,0.8091,0.7484,0.6886,0.7451,0.7149,0.5918,0.6268,0.617,0.5653,0.5495,0.546,0.5545,0.5545,0.5627,0.5762,0.5762,0.5776,0.581,0.5935,0.5949,0.5966,0.6228,0.63,0.63,0.63,0.63,0.618,0.5315,0.5002,0.496,0.4766,0.41,0.3513,0.4178,0.3943,0.3357,0.3163,0.2501,0.188,0.188,0.1762,0.1372,0.051,0.0824,0.1058,0.0196,0.0,0.0,0.0,0.0,0.0,0.0,0.0,0.0,0.0,0.0,0.0,0.0,0.0,0.0,0.0,0.0,0.0,0.0,0.0,0.0,0.0,0.0,0.0,0.0,0.0,-0.0509,-0.1595,-0.244,-0.3414,-0.4451,-0.5239,-0.5647,-0.5755,-0.5613,-0.5545,0.0,0.0,0.0,0.0,1.1191,0.0,0.0,0.0,1.0389,0.0,0.0,0.0,0.0,0.0,0.0,0.0,0.0,0.0,0.0,0.0,0.0,0.0,0.0,0.0,0.0,0.0,0.0,0.9244,0.9174,0.8918,0.8475,0.8582,0.8284,0.7445,0.7049,0.7111,0.7702,0.6272,0.5881,0.656,0.5785,0.5402,0.5423,0.5423,0.5504,0.5613,0.5613,0.5684,0.5803,0.582,0.5827,0.5857,0.6187,0.63,0.63,0.63,0.63,0.63,0.6141,0.6103,0.5944,0.5002,0.4608,0.4373,0.3552,0.3865,0.4334,0.3357,0.3007,0.2929,0.2929,0.2268,0.1568,0.145,0.0784,0.0157,0.0039,0.0,0.0,0.0,0.0,0.0,0.0,0.0,0.0,0.0,0.0,0.0,0.0,0.0,0.0,0.0,0.0,0.0,0.0,0.0,0.0,0.0,0.0,0.0,0.0,0.0,-0.0505,-0.1594,-0.2456,-0.3356,-0.4224,-0.5149,-0.5599,-0.561,-0.5491,-0.5423,0.0,0.0,0.0,0.0,0.0,0.0,1.1391,0.0,1.0712,0.0,0.0,0.0,0.0,0.0,0.0,0.0,0.0,0.0,0.0,0.0,0.0,0.0,0.0,0.0,0.0,0.0,0.0,0.0,0.0,0.8948,0.8884,0.8975,0.8794,0.8262,0.8527,0.8466,0.7989,0.7772,0.7609,0.7437,0.7083,0.6629,0.6141,0.6141,0.5918,0.5491,0.5491,0.5525,0.5586,0.5644,0.5677,0.5698,0.5911,0.5993,0.6003,0.6095,0.6129,0.6139,0.6269,0.63,0.6219,0.5786,0.5628,0.555,0.5079,0.5276,0.555,0.5079,0.4491,0.4021,0.4021,0.3711,0.3244,0.2618,0.2112,0.18,0.18,0.0862,0.0196,0.0824,0.0432,0.0,0.0,0.0,0.0,0.0,0.0,0.0,0.0,0.0,0.0,0.0,0.0,0.0,0.0,0.0,0.0,0.0,0.0,0.0,0.0,0.0,-0.0229,-0.0681,-0.154,-0.2427,-0.3348,-0.4222,-0.4941,-0.5491,-0.5426,-0.5395,1.3447,0.0,0.0,0.0,0.0,0.0,0.0,0.0,0.0,0.0,0.0,0.0,0.0,0.0,0.0,0.0,0.0,0.0,0.0,0.0,0.0,0.0,0.0,0.0,0.0,0.0,0.0,0.0,0.8804,0.0,0.9084,0.9171,0.9114,0.8908,0.9441,0.9365,0.8573,0.8811,0.8748,0.8355,0.8124,0.7665,0.7046,0.6817,0.6367,0.5749,0.5491,0.5395,0.5402,0.5515,0.5562,0.5573,0.564,0.5681,0.5705,0.5895,0.5929,0.5983,0.6095,0.6201,0.6242,0.6286,0.63,0.63,0.63,0.63,0.63,0.63,0.5747,0.5157,0.5157,0.4924,0.4491,0.3709,0.3318,0.3085,0.3085,0.1682,0.0667,0.145,0.0741,0.0,0.0,0.0,0.0,0.0,0.0,0.0,0.0,0.0,0.0,0.0,0.0,0.0,0.0,0.0,0.0,0.0,0.0,0.0,0.0,0.0,0.0,0.0,-0.0856,-0.1773,-0.2691,-0.3583,-0.435,-0.5024,-0.5292,-0.5395,0.0,0.0,0.0,1.2905,0.0,0.0,0.0,0.0,1.2642,0.0,0.0,0.0,0.0,0.0,0.0,0.0,0.0,0.0,0.0,0.0,0.0,0.0,0.0,0.0,0.0,0.0,0.0,0.8804,0.8804,0.0,0.8824,0.9058,0.9196,0.9182,0.8961,0.9236,1.0036,0.8715,0.8452,0.9236,0.8388,0.7994,0.7929,0.7079,0.6687,0.6621,0.5752,0.5395,0.5395,0.5399,0.5402,0.5402,0.5405,0.5409,0.5443,0.5701,0.581,0.581,0.5813,0.5915,0.6023,0.6252,0.63,0.63,0.63,0.63,0.63,0.63,0.6261,0.6261,0.6261,0.5473,0.4686,0.4647,0.3865,0.3085,0.3085,0.2268,0.1568,0.1607,0.0731,0.0,0.0,0.0,0.0,0.0,0.0,0.0,0.0,0.0,0.0,0.0,0.0,0.0,0.0,0.0,0.0,0.0,0.0,0.0,0.0,0.0,0.0,0.0,-0.0841,-0.1757,-0.2714,-0.3582,-0.4015,-0.4082,-0.499,-0.5395,0.0,0.0,1.2905,1.2905,0.0,0.0,0.0,0.0,0.0,0.0,0.0,0.0,0.0,0.0,0.0,0.0,0.0,0.0,0.0,0.0,0.0,0.0,0.0,0.0,0.0,0.0,0.0,0.8804,0.8804,0.8804,0.0,0.8871,0.9011,0.9204,0.9108,0.9392,1.0083,0.9617,0.9662,1.0174,0.9875,0.9422,0.8844,0.8549,0.78,0.6687,0.6396,0.5947,0.5395,0.5395,0.5395,0.5395,0.5395,0.5395,0.5419,0.5586,0.5661,0.5674,0.5769,0.5901,0.6,0.6091,0.6176,0.63,0.63,0.63,0.63,0.63,0.63,0.63,0.63,0.6025,0.5747,0.5747,0.4924,0.4334,0.5079,0.3828,0.2813,0.3517,0.2264,0.1058,0.1058,0.0479,0.0,0.0,0.0,0.0,0.0,0.0,0.0,0.0,0.0,0.0,0.0,0.0,0.0,0.0,0.0,0.0,0.0,0.0,0.0,0.0,-0.0276,-0.0881,-0.1775,-0.2075,-0.2544,-0.3145,-0.4048,-0.4486,1.3174,1.3023,0.0,1.2905,1.2905,0.0,1.2905,0.0,0.0,0.0,0.0,0.0,0.0,0.0,0.0,0.0,0.0,0.0,0.0,0.0,0.0,0.0,0.0,0.0,0.0,0.0,0.9061,0.8804,0.8804,0.8804,0.0,0.0,0.8865,0.9051,0.9158,0.9391,0.977,0.9983,1.0214,1.0439,1.0539,1.0301,0.9754,0.9434,0.8678,0.76,0.7307,0.6658,0.5848,0.5848,0.5686,0.5395,0.5395,0.5395,0.5405,0.5504,0.5542,0.5566,0.5677,0.5789,0.5891,0.5959,0.6098,0.619,0.6282,0.63,0.63,0.63,0.63,0.63,0.63,0.63,0.63,0.63,0.5786,0.547,0.6141,0.4921,0.3865,0.4569,0.3297,0.2108,0.2089,0.1225,0.0423,0.0072,0.0,0.0,0.0,0.0,0.0,0.0,0.0,0.0,0.0,0.0,0.0,0.0,0.0,0.0,0.0,0.0,0.0,0.0,0.0,-0.044,-0.1293,-0.1313,-0.1608,-0.2209,-0.3111,-0.3347]}]]